| time (UTC) | temp C | wind direction | speed KPH | gust KPH | rain 1hr cm | rain 24hr cm | rain mn cm | humidity % | barometer mb |
| 20260903125232 | 13 | 117 | 0.0 | 3.2 | 0.00 | 0.00 | 0.00 | 91 | 1014.5 |
| 20260903125130 | 13 | 117 | 0.0 | 3.2 | 0.00 | 0.00 | 0.00 | 91 | 1014.5 |
| 20260903125023 | 13 | 113 | 0.0 | 3.2 | 0.00 | 0.00 | 0.00 | 91 | 1014.5 |
| 20260903124924 | 13 | 113 | 0.0 | 3.2 | 0.00 | 0.00 | 0.00 | 91 | 1014.5 |
| 20260903124823 | 13 | 113 | 1.6 | 4.8 | 0.00 | 0.00 | 0.00 | 91 | 1014.5 |
| 20260903124724 | 13 | 113 | 1.6 | 4.8 | 0.00 | 0.00 | 0.00 | 91 | 1014.5 |
| 20260903124700 | 13 | 113 | 1.6 | 4.8 | 0.00 | 0.00 | 0.00 | 91 | 1014.6 |
| 20260903124624 | 13 | 113 | 1.6 | 4.8 | 0.00 | 0.00 | 0.00 | 90 | 1014.6 |
| 20260903124520 | 13 | 158 | 0.0 | 4.8 | 0.00 | 0.00 | 0.00 | 90 | 1014.5 |
| 20260903124417 | 13 | 139 | 0.0 | 4.8 | 0.00 | 0.00 | 0.00 | 90 | 1014.5 |
| 20260903124317 | 13 | 176 | 0.0 | 4.8 | 0.00 | 0.00 | 0.00 | 90 | 1014.5 |
| 20260903124218 | 13 | 176 | 0.0 | 4.8 | 0.00 | 0.00 | 0.00 | 90 | 1014.5 |
| 20260903124200 | 13 | 176 | 0.0 | 4.8 | 0.00 | 0.00 | 0.00 | 90 | 1014.5 |
| 20260903124118 | 13 | 158 | 0.0 | 4.8 | 0.00 | 0.00 | 0.00 | 90 | 1014.5 |
| 20260903124014 | 13 | 158 | 0.0 | 4.8 | 0.00 | 0.00 | 0.00 | 91 | 1014.5 |
| 20260903123914 | 13 | 158 | 0.0 | 4.8 | 0.00 | 0.00 | 0.00 | 91 | 1014.5 |
| 20260903123814 | 13 | 102 | 0.0 | 4.8 | 0.00 | 0.00 | 0.00 | 90 | 1014.5 |
| 20260903123713 | 13 | 160 | 0.0 | 4.8 | 0.00 | 0.00 | 0.00 | 90 | 1014.6 |
| 20260903123700 | 13 | 160 | 0.0 | 4.8 | 0.00 | 0.00 | 0.00 | 90 | 1014.6 |
| 20260903123615 | 13 | 160 | 0.0 | 4.8 | 0.00 | 0.00 | 0.00 | 90 | 1014.6 |
| 20260903123510 | 13 | 161 | 1.6 | 4.8 | 0.00 | 0.00 | 0.00 | 90 | 1014.5 |
| 20260903123409 | 13 | 161 | 1.6 | 4.8 | 0.00 | 0.00 | 0.00 | 90 | 1014.6 |
| 20260903123308 | 13 | 161 | 1.6 | 4.8 | 0.00 | 0.00 | 0.00 | 90 | 1014.6 |
| 20260903123210 | 13 | 104 | 1.6 | 4.8 | 0.00 | 0.00 | 0.00 | 90 | 1014.6 |
| 20260903123200 | 13 | 104 | 1.6 | 4.8 | 0.00 | 0.00 | 0.00 | 90 | 1014.6 |
| 20260903123106 | 13 | 141 | 1.6 | 4.8 | 0.00 | 0.00 | 0.00 | 90 | 1014.6 |
| 20260903123002 | 13 | 141 | 1.6 | 4.8 | 0.00 | 0.00 | 0.00 | 90 | 1014.5 |
| 20260903122900 | 13 | 145 | 1.6 | 4.8 | 0.00 | 0.00 | 0.00 | 90 | 1014.5 |
| 20260903122800 | 13 | 120 | 1.6 | 4.8 | 0.00 | 0.00 | 0.00 | 90 | 1014.6 |
| 20260903122702 | 13 | 104 | 1.6 | 4.8 | 0.00 | 0.00 | 0.00 | 90 | 1014.6 |
| 20260903122559 | 13 | 114 | 1.6 | 4.8 | 0.00 | 0.00 | 0.00 | 90 | 1014.6 |
| 20260903122455 | 13 | 104 | 1.6 | 4.8 | 0.00 | 0.00 | 0.00 | 90 | 1014.6 |
| 20260903122356 | 13 | 105 | 1.6 | 4.8 | 0.00 | 0.00 | 0.00 | 90 | 1014.5 |
| 20260903122256 | 13 | 99 | 1.6 | 4.8 | 0.00 | 0.00 | 0.00 | 90 | 1014.6 |
| 20260903122157 | 13 | 99 | 1.6 | 4.8 | 0.00 | 0.00 | 0.00 | 90 | 1014.6 |
| 20260903122054 | 13 | 99 | 1.6 | 4.8 | 0.00 | 0.00 | 0.00 | 90 | 1014.5 |
| 20260903121950 | 13 | 113 | 1.6 | 4.8 | 0.00 | 0.00 | 0.00 | 90 | 1014.5 |
| 20260903121930 | 13 | 61 | 1.6 | 3.2 | 0.00 | 0.00 | 0.00 | 90 | 1014.6 |
| 20260903121848 | 13 | 71 | 1.6 | 3.2 | 0.00 | 0.00 | 0.00 | 90 | 1014.6 |
| 20260903121818 | 13 | 105 | 1.6 | 3.2 | 0.00 | 0.00 | 0.00 | 90 | 1014.6 |
| 20260903121646 | 13 | 97 | 1.6 | 3.2 | 0.00 | 0.00 | 0.00 | 90 | 1014.6 |
| 20260903121546 | 13 | 110 | 1.6 | 3.2 | 0.00 | 0.00 | 0.00 | 90 | 1014.6 |
| 20260903121442 | 13 | 97 | 1.6 | 3.2 | 0.00 | 0.00 | 0.00 | 90 | 1014.6 |
| 20260903121343 | 13 | 117 | 1.6 | 3.2 | 0.00 | 0.00 | 0.00 | 90 | 1014.6 |
| 20260903121241 | 13 | 108 | 1.6 | 3.2 | 0.00 | 0.00 | 0.00 | 90 | 1014.6 |
| 20260903121151 | 13 | 105 | 1.6 | 3.2 | 0.00 | 0.00 | 0.00 | 90 | 1014.6 |
| 20260903121142 | 13 | 107 | 1.6 | 3.2 | 0.00 | 0.00 | 0.00 | 90 | 1014.6 |
| 20260903121042 | 13 | 107 | 1.6 | 3.2 | 0.00 | 0.00 | 0.00 | 90 | 1014.6 |
| 20260903120941 | 13 | 108 | 1.6 | 3.2 | 0.00 | 0.00 | 0.00 | 90 | 1014.6 |
| 20260903120842 | 13 | 92 | 1.6 | 3.2 | 0.00 | 0.00 | 0.00 | 90 | 1014.6 |
| 20260903120742 | 13 | 108 | 1.6 | 4.8 | 0.00 | 0.00 | 0.00 | 90 | 1014.6 |
| 20260903120643 | 13 | 117 | 1.6 | 4.8 | 0.00 | 0.00 | 0.00 | 90 | 1014.6 |
| 20260903120542 | 13 | 114 | 1.6 | 4.8 | 0.00 | 0.00 | 0.00 | 90 | 1014.6 |
| 20260903120442 | 13 | 114 | 1.6 | 4.8 | 0.00 | 0.00 | 0.00 | 90 | 1014.6 |
| 20260903120342 | 13 | 115 | 1.6 | 4.8 | 0.00 | 0.00 | 0.00 | 90 | 1014.6 |
| 20260903120242 | 13 | 114 | 1.6 | 6.4 | 0.00 | 0.00 | 0.00 | 90 | 1014.6 |
| 20260903120142 | 13 | 102 | 1.6 | 6.4 | 0.00 | 0.00 | 0.00 | 90 | 1014.6 |
| 20260903120042 | 13 | 105 | 1.6 | 6.4 | 0.00 | 0.00 | 0.00 | 90 | 1014.6 |
| 20260903115942 | 13 | 115 | 1.6 | 6.4 | 0.00 | 0.00 | 0.00 | 90 | 1014.6 |
| 20260903115907 | 13 | 98 | 1.6 | 6.4 | 0.00 | 0.00 | 0.00 | 90 | 1014.7 |
| 20260903115841 | 13 | 115 | 1.6 | 6.4 | 0.00 | 0.00 | 0.00 | 90 | 1014.6 |
| 20260903115758 | 13 | 117 | 1.6 | 6.4 | 0.00 | 0.00 | 0.00 | 90 | 1014.7 |
| 20260903115642 | 13 | 107 | 1.6 | 6.4 | 0.00 | 0.00 | 0.00 | 90 | 1014.7 |
| 20260903115538 | 13 | 98 | 1.6 | 6.4 | 0.00 | 0.00 | 0.00 | 90 | 1014.7 |
| 20260903115438 | 13 | 121 | 1.6 | 6.4 | 0.00 | 0.00 | 0.00 | 90 | 1014.7 |
| 20260903115408 | 13 | 108 | 0.0 | 3.2 | 0.00 | 0.00 | 0.00 | 90 | 1014.7 |
| 20260903115339 | 13 | 105 | 1.6 | 6.4 | 0.00 | 0.00 | 0.00 | 90 | 1014.7 |
| 20260903115258 | 13 | 117 | 1.6 | 3.2 | 0.00 | 0.00 | 0.00 | 90 | 1014.7 |
| 20260903115137 | 13 | 109 | 0.0 | 3.2 | 0.00 | 0.00 | 0.00 | 90 | 1014.7 |
| 20260903115039 | 13 | 107 | 0.0 | 3.2 | 0.00 | 0.00 | 0.00 | 90 | 1014.7 |
| 20260903114937 | 13 | 107 | 1.6 | 4.8 | 0.00 | 0.00 | 0.00 | 90 | 1014.8 |
| 20260903114839 | 13 | 107 | 1.6 | 4.8 | 0.00 | 0.00 | 0.00 | 90 | 1014.7 |
| 20260903114740 | 13 | 107 | 1.6 | 4.8 | 0.00 | 0.00 | 0.00 | 90 | 1014.7 |
| 20260903114640 | 13 | 108 | 1.6 | 4.8 | 0.00 | 0.00 | 0.00 | 90 | 1014.7 |
| 20260903114538 | 13 | 107 | 1.6 | 4.8 | 0.00 | 0.00 | 0.00 | 89 | 1014.8 |
| 20260903114437 | 13 | 108 | 1.6 | 4.8 | 0.00 | 0.00 | 0.00 | 89 | 1014.7 |
| 20260903114338 | 13 | 108 | 1.6 | 4.8 | 0.00 | 0.00 | 0.00 | 90 | 1014.8 |
| 20260903114238 | 13 | 107 | 1.6 | 4.8 | 0.00 | 0.00 | 0.00 | 89 | 1014.8 |
| 20260903114147 | 13 | 107 | 1.6 | 4.8 | 0.00 | 0.00 | 0.00 | 89 | 1014.8 |
| 20260903114138 | 13 | 108 | 1.6 | 4.8 | 0.00 | 0.00 | 0.00 | 89 | 1014.8 |
| 20260903114039 | 13 | 107 | 3.2 | 4.8 | 0.00 | 0.00 | 0.00 | 89 | 1014.8 |
| 20260903113938 | 13 | 111 | 3.2 | 4.8 | 0.00 | 0.00 | 0.00 | 89 | 1014.8 |
| 20260903113838 | 13 | 111 | 3.2 | 4.8 | 0.00 | 0.00 | 0.00 | 89 | 1014.8 |
| 20260903113739 | 13 | 112 | 3.2 | 4.8 | 0.00 | 0.00 | 0.00 | 89 | 1014.8 |
| 20260903113647 | 13 | 107 | 3.2 | 4.8 | 0.00 | 0.00 | 0.00 | 89 | 1014.9 |
| 20260903113638 | 13 | 91 | 3.2 | 4.8 | 0.00 | 0.00 | 0.00 | 89 | 1014.9 |
| 20260903113534 | 13 | 118 | 3.2 | 4.8 | 0.00 | 0.00 | 0.00 | 89 | 1014.8 |
| 20260903113435 | 13 | 109 | 3.2 | 4.8 | 0.00 | 0.00 | 0.00 | 89 | 1014.8 |
| 20260903113334 | 13 | 117 | 1.6 | 4.8 | 0.00 | 0.00 | 0.00 | 89 | 1014.8 |
| 20260903113234 | 13 | 94 | 1.6 | 4.8 | 0.00 | 0.00 | 0.00 | 89 | 1014.9 |
| 20260903113148 | 14 | 110 | 1.6 | 4.8 | 0.00 | 0.00 | 0.00 | 89 | 1014.8 |
| 20260903113134 | 14 | 109 | 1.6 | 4.8 | 0.00 | 0.00 | 0.00 | 89 | 1014.8 |
| 20260903113035 | 14 | 103 | 1.6 | 4.8 | 0.00 | 0.00 | 0.00 | 89 | 1014.9 |
| 20260903112934 | 14 | 107 | 1.6 | 4.8 | 0.00 | 0.00 | 0.00 | 89 | 1014.9 |
| 20260903112834 | 14 | 100 | 1.6 | 4.8 | 0.00 | 0.00 | 0.00 | 89 | 1014.8 |
| 20260903112734 | 14 | 103 | 0.0 | 3.2 | 0.00 | 0.00 | 0.00 | 89 | 1014.9 |
| 20260903112647 | 14 | 117 | 0.0 | 3.2 | 0.00 | 0.00 | 0.00 | 89 | 1014.8 |
| 20260903112638 | 14 | 108 | 0.0 | 3.2 | 0.00 | 0.00 | 0.00 | 89 | 1014.8 |
| 20260903112534 | 14 | 102 | 0.0 | 3.2 | 0.00 | 0.00 | 0.00 | 89 | 1014.9 |
| 20260903112434 | 14 | 101 | 0.0 | 3.2 | 0.00 | 0.00 | 0.00 | 89 | 1014.8 |
| 20260903112334 | 14 | 102 | 0.0 | 3.2 | 0.00 | 0.00 | 0.00 | 89 | 1014.8 |
| 20260903112234 | 14 | 102 | 0.0 | 3.2 | 0.00 | 0.00 | 0.00 | 89 | 1014.8 |
| 20260903112147 | 14 | 102 | 0.0 | 3.2 | 0.00 | 0.00 | 0.00 | 89 | 1014.8 |
| 20260903112134 | 14 | 101 | 0.0 | 3.2 | 0.00 | 0.00 | 0.00 | 89 | 1014.8 |
| 20260903112034 | 14 | 100 | 0.0 | 3.2 | 0.00 | 0.00 | 0.00 | 89 | 1014.8 |
| 20260903111934 | 14 | 132 | 0.0 | 3.2 | 0.00 | 0.00 | 0.00 | 89 | 1014.8 |
| 20260903111834 | 14 | 133 | 0.0 | 3.2 | 0.00 | 0.00 | 0.00 | 89 | 1014.8 |
| 20260903111731 | 14 | 132 | 0.0 | 3.2 | 0.00 | 0.00 | 0.00 | 89 | 1014.9 |
| 20260903111647 | 14 | 132 | 0.0 | 3.2 | 0.00 | 0.00 | 0.00 | 89 | 1014.9 |
| 20260903111630 | 14 | 133 | 0.0 | 3.2 | 0.00 | 0.00 | 0.00 | 89 | 1014.9 |
| 20260903111529 | 14 | 133 | 0.0 | 3.2 | 0.00 | 0.00 | 0.00 | 89 | 1014.9 |
| 20260903111430 | 14 | 132 | 1.6 | 3.2 | 0.00 | 0.00 | 0.00 | 89 | 1014.9 |
| 20260903111329 | 14 | 133 | 1.6 | 3.2 | 0.00 | 0.00 | 0.00 | 89 | 1014.9 |
| 20260903111230 | 14 | 132 | 1.6 | 3.2 | 0.00 | 0.00 | 0.00 | 89 | 1015.0 |
| 20260903111147 | 14 | 149 | 0.0 | 3.2 | 0.00 | 0.00 | 0.00 | 89 | 1015.0 |
| 20260903111131 | 14 | 150 | 0.0 | 3.2 | 0.00 | 0.00 | 0.00 | 89 | 1015.0 |
| 20260903111030 | 14 | 124 | 0.0 | 3.2 | 0.00 | 0.00 | 0.00 | 89 | 1014.9 |
| 20260903110930 | 14 | 140 | 0.0 | 3.2 | 0.00 | 0.00 | 0.00 | 89 | 1015.0 |
| 20260903110830 | 14 | 141 | 1.6 | 3.2 | 0.00 | 0.00 | 0.00 | 89 | 1015.0 |
| 20260903110730 | 14 | 141 | 1.6 | 3.2 | 0.00 | 0.00 | 0.00 | 89 | 1015.0 |
| 20260903110630 | 14 | 141 | 1.6 | 3.2 | 0.00 | 0.00 | 0.00 | 89 | 1015.0 |
| 20260903110529 | 14 | 141 | 1.6 | 3.2 | 0.00 | 0.00 | 0.00 | 88 | 1014.9 |
| 20260903110430 | 14 | 141 | 1.6 | 3.2 | 0.00 | 0.00 | 0.00 | 88 | 1015.0 |
| 20260903110330 | 14 | 148 | 0.0 | 3.2 | 0.00 | 0.00 | 0.00 | 88 | 1015.0 |
| 20260903110229 | 14 | 150 | 0.0 | 3.2 | 0.00 | 0.00 | 0.00 | 88 | 1015.0 |
| 20260903110131 | 14 | 150 | 1.6 | 3.2 | 0.00 | 0.00 | 0.00 | 88 | 1015.0 |
| 20260903110030 | 14 | 136 | 1.6 | 3.2 | 0.00 | 0.00 | 0.00 | 88 | 1015.0 |
| 20260903105930 | 14 | 124 | 0.0 | 3.2 | 0.00 | 0.00 | 0.00 | 88 | 1015.0 |
| 20260903105827 | 14 | 124 | 0.0 | 3.2 | 0.00 | 0.00 | 0.00 | 88 | 1015.0 |
| 20260903105726 | 14 | 124 | 0.0 | 3.2 | 0.00 | 0.00 | 0.00 | 88 | 1015.1 |
| 20260903105647 | 14 | 124 | 0.0 | 3.2 | 0.00 | 0.00 | 0.00 | 88 | 1015.1 |
| 20260903105626 | 14 | 118 | 0.0 | 3.2 | 0.00 | 0.00 | 0.00 | 88 | 1015.1 |
| 20260903105526 | 14 | 117 | 0.0 | 3.2 | 0.00 | 0.00 | 0.00 | 88 | 1015.0 |
| 20260903105425 | 14 | 117 | 0.0 | 3.2 | 0.00 | 0.00 | 0.00 | 88 | 1015.0 |
| 20260903105324 | 14 | 117 | 0.0 | 3.2 | 0.00 | 0.00 | 0.00 | 88 | 1015.0 |
| 20260903105224 | 14 | 117 | 1.6 | 3.2 | 0.00 | 0.00 | 0.00 | 88 | 1015.0 |
| 20260903105125 | 14 | 117 | 1.6 | 3.2 | 0.00 | 0.00 | 0.00 | 88 | 1015.0 |
| 20260903105022 | 14 | 139 | 1.6 | 3.2 | 0.00 | 0.00 | 0.00 | 88 | 1015.0 |
| 20260903104923 | 14 | 139 | 1.6 | 3.2 | 0.00 | 0.00 | 0.00 | 88 | 1015.0 |
| 20260903104822 | 14 | 139 | 1.6 | 3.2 | 0.00 | 0.00 | 0.00 | 88 | 1015.0 |
| 20260903104723 | 14 | 139 | 1.6 | 3.2 | 0.00 | 0.00 | 0.00 | 88 | 1014.9 |
| 20260903104623 | 14 | 139 | 1.6 | 3.2 | 0.00 | 0.00 | 0.00 | 88 | 1015.0 |
| 20260903104522 | 14 | 139 | 1.6 | 3.2 | 0.00 | 0.00 | 0.00 | 88 | 1015.0 |
| 20260903104422 | 14 | 139 | 1.6 | 3.2 | 0.00 | 0.00 | 0.00 | 88 | 1015.0 |
| 20260903104322 | 14 | 139 | 1.6 | 3.2 | 0.00 | 0.00 | 0.00 | 88 | 1015.0 |
| 20260903104219 | 14 | 141 | 1.6 | 3.2 | 0.00 | 0.00 | 0.00 | 88 | 1015.0 |
| 20260903104118 | 14 | 141 | 1.6 | 3.2 | 0.00 | 0.00 | 0.00 | 88 | 1015.0 |
| 20260903104018 | 14 | 143 | 1.6 | 3.2 | 0.00 | 0.00 | 0.00 | 87 | 1015.1 |
| 20260903103917 | 14 | 121 | 1.6 | 3.2 | 0.00 | 0.00 | 0.00 | 88 | 1015.1 |
| 20260903103904 | 14 | 110 | 1.6 | 3.2 | 0.00 | 0.00 | 0.00 | 88 | 1015.0 |
| 20260903103816 | 14 | 110 | 1.6 | 3.2 | 0.00 | 0.00 | 0.00 | 87 | 1015.1 |
| 20260903103753 | 14 | 110 | 1.6 | 3.2 | 0.00 | 0.00 | 0.00 | 87 | 1015.0 |
| 20260903103614 | 14 | 110 | 1.6 | 3.2 | 0.00 | 0.00 | 0.00 | 88 | 1015.1 |
| 20260903103512 | 15 | 108 | 1.6 | 3.2 | 0.00 | 0.00 | 0.00 | 87 | 1015.0 |
| 20260903103412 | 15 | 108 | 1.6 | 3.2 | 0.00 | 0.00 | 0.00 | 88 | 1015.1 |
| 20260903103312 | 15 | 108 | 0.0 | 3.2 | 0.00 | 0.00 | 0.00 | 88 | 1015.0 |
| 20260903103212 | 15 | 110 | 0.0 | 3.2 | 0.00 | 0.00 | 0.00 | 88 | 1015.1 |
| 20260903103143 | 15 | 110 | 0.0 | 3.2 | 0.00 | 0.00 | 0.00 | 88 | 1015.1 |
| 20260903103133 | 15 | 132 | 0.0 | 1.6 | 0.00 | 0.00 | 0.00 | 88 | 1015.0 |
| 20260903103113 | 15 | 110 | 0.0 | 3.2 | 0.00 | 0.00 | 0.00 | 88 | 1015.0 |
| 20260903103017 | 15 | 111 | 0.0 | 3.2 | 0.00 | 0.00 | 0.00 | 88 | 1015.0 |
| 20260903102904 | 15 | 132 | 0.0 | 1.6 | 0.00 | 0.00 | 0.00 | 88 | 1015.1 |
| 20260903102801 | 15 | 132 | 0.0 | 1.6 | 0.00 | 0.00 | 0.00 | 88 | 1015.0 |
| 20260903102751 | 15 | 132 | 0.0 | 1.6 | 0.00 | 0.00 | 0.00 | 88 | 1015.0 |
| 20260903102556 | 14 | 132 | 0.0 | 1.6 | 0.00 | 0.00 | 0.00 | 88 | 1015.0 |
| 20260903102457 | 15 | 132 | 0.0 | 1.6 | 0.00 | 0.00 | 0.00 | 87 | 1015.0 |
| 20260903102404 | 15 | 132 | 0.0 | 3.2 | 0.00 | 0.00 | 0.00 | 87 | 1015.0 |
| 20260903102356 | 15 | 132 | 0.0 | 1.6 | 0.00 | 0.00 | 0.00 | 87 | 1015.0 |
| 20260903102255 | 15 | 132 | 0.0 | 1.6 | 0.00 | 0.00 | 0.00 | 87 | 1015.0 |
| 20260903102151 | 15 | 133 | 0.0 | 3.2 | 0.00 | 0.00 | 0.00 | 87 | 1015.0 |
| 20260903102049 | 15 | 132 | 0.0 | 3.2 | 0.00 | 0.00 | 0.00 | 87 | 1015.0 |
| 20260903101946 | 15 | 133 | 0.0 | 3.2 | 0.00 | 0.00 | 0.00 | 87 | 1015.0 |
| 20260903101847 | 15 | 132 | 0.0 | 3.2 | 0.00 | 0.00 | 0.00 | 87 | 1015.0 |
| 20260903101743 | 15 | 139 | 0.0 | 3.2 | 0.00 | 0.00 | 0.00 | 87 | 1015.0 |
| 20260903101645 | 15 | 104 | 0.0 | 3.2 | 0.00 | 0.00 | 0.00 | 87 | 1014.9 |
| 20260903101540 | 15 | 104 | 0.0 | 3.2 | 0.00 | 0.00 | 0.00 | 87 | 1015.0 |
| 20260903101441 | 15 | 104 | 0.0 | 3.2 | 0.00 | 0.00 | 0.00 | 87 | 1014.9 |
| 20260903101339 | 15 | 104 | 0.0 | 3.2 | 0.00 | 0.00 | 0.00 | 87 | 1014.9 |
| 20260903101238 | 15 | 104 | 0.0 | 3.2 | 0.00 | 0.00 | 0.00 | 87 | 1014.9 |
| 20260903101138 | 15 | 132 | 0.0 | 1.6 | 0.00 | 0.00 | 0.00 | 87 | 1014.9 |
| 20260903101033 | 15 | 132 | 0.0 | 1.6 | 0.00 | 0.00 | 0.00 | 87 | 1014.9 |
| 20260903100931 | 15 | 133 | 0.0 | 1.6 | 0.00 | 0.00 | 0.00 | 87 | 1014.9 |
| 20260903100832 | 15 | 132 | 0.0 | 1.6 | 0.00 | 0.00 | 0.00 | 87 | 1014.9 |
| 20260903100732 | 15 | 133 | 0.0 | 1.6 | 0.00 | 0.00 | 0.00 | 87 | 1014.9 |
| 20260903100634 | 15 | 132 | 0.0 | 1.6 | 0.00 | 0.00 | 0.00 | 87 | 1014.9 |
| 20260903100524 | 15 | 132 | 0.0 | 1.6 | 0.00 | 0.00 | 0.00 | 87 | 1014.9 |
| 20260903100424 | 15 | 132 | 0.0 | 1.6 | 0.00 | 0.00 | 0.00 | 87 | 1014.9 |
| 20260903100324 | 15 | 133 | 0.0 | 1.6 | 0.00 | 0.00 | 0.00 | 87 | 1014.9 |
| 20260903100224 | 15 | 133 | 0.0 | 3.2 | 0.00 | 0.00 | 0.00 | 87 | 1014.9 |
| 20260903100126 | 15 | 133 | 0.0 | 3.2 | 0.00 | 0.00 | 0.00 | 87 | 1014.9 |
| 20260903100020 | 15 | 133 | 0.0 | 3.2 | 0.00 | 0.00 | 0.00 | 87 | 1014.9 |
| 20260903095919 | 15 | 132 | 0.0 | 3.2 | 0.00 | 0.00 | 0.00 | 87 | 1014.9 |
| 20260903095837 | 15 | 132 | 0.0 | 3.2 | 0.00 | 0.00 | 0.00 | 87 | 1014.9 |
| 20260903095819 | 15 | 133 | 0.0 | 3.2 | 0.00 | 0.00 | 0.00 | 87 | 1014.9 |
| 20260903095736 | 15 | 133 | 0.0 | 3.2 | 0.00 | 0.00 | 0.00 | 87 | 1014.9 |
| 20260903095723 | 15 | 132 | 0.0 | 3.2 | 0.00 | 0.00 | 0.00 | 87 | 1014.9 |
| 20260903095516 | 15 | 132 | 1.6 | 3.2 | 0.00 | 0.00 | 0.00 | 87 | 1014.9 |
| 20260903095414 | 15 | 132 | 1.6 | 3.2 | 0.00 | 0.00 | 0.00 | 87 | 1014.9 |
| 20260903095312 | 15 | 132 | 0.0 | 3.2 | 0.00 | 0.00 | 0.00 | 87 | 1014.9 |
| 20260903095212 | 15 | 120 | 0.0 | 3.2 | 0.00 | 0.00 | 0.00 | 87 | 1014.8 |
| 20260903095114 | 15 | 138 | 0.0 | 3.2 | 0.00 | 0.00 | 0.00 | 87 | 1014.9 |
| 20260903095008 | 15 | 138 | 0.0 | 3.2 | 0.00 | 0.00 | 0.00 | 87 | 1014.9 |
| 20260903094908 | 15 | 147 | 0.0 | 3.2 | 0.00 | 0.00 | 0.00 | 87 | 1014.9 |
| 20260903094808 | 15 | 146 | 0.0 | 3.2 | 0.00 | 0.00 | 0.00 | 87 | 1014.9 |
| 20260903094707 | 15 | 146 | 0.0 | 3.2 | 0.00 | 0.00 | 0.00 | 87 | 1014.9 |
| 20260903094604 | 15 | 146 | 0.0 | 3.2 | 0.00 | 0.00 | 0.00 | 87 | 1015.0 |
| 20260903094500 | 15 | 135 | 0.0 | 1.6 | 0.00 | 0.00 | 0.00 | 87 | 1014.9 |
| 20260903094358 | 15 | 135 | 0.0 | 1.6 | 0.00 | 0.00 | 0.00 | 87 | 1015.0 |
| 20260903094317 | 15 | 133 | 0.0 | 4.8 | 0.00 | 0.00 | 0.00 | 87 | 1015.0 |
| 20260903094258 | 15 | 136 | 0.0 | 1.6 | 0.00 | 0.00 | 0.00 | 87 | 1015.0 |
| 20260903094213 | 15 | 132 | 0.0 | 1.6 | 0.00 | 0.00 | 0.00 | 87 | 1015.0 |
| 20260903094203 | 15 | 133 | 0.0 | 4.8 | 0.00 | 0.00 | 0.00 | 87 | 1015.0 |
| 20260903093957 | 15 | 131 | 1.6 | 4.8 | 0.00 | 0.00 | 0.00 | 87 | 1015.0 |
| 20260903093855 | 15 | 131 | 1.6 | 4.8 | 0.00 | 0.00 | 0.00 | 87 | 1015.1 |
| 20260903093815 | 15 | 134 | 1.6 | 4.8 | 0.00 | 0.00 | 0.00 | 87 | 1015.0 |
| 20260903093755 | 15 | 131 | 1.6 | 4.8 | 0.00 | 0.00 | 0.00 | 87 | 1015.0 |
| 20260903093711 | 15 | 131 | 1.6 | 4.8 | 0.00 | 0.00 | 0.00 | 87 | 1015.0 |
| 20260903093657 | 15 | 134 | 1.6 | 4.8 | 0.00 | 0.00 | 0.00 | 87 | 1015.0 |
| 20260903093448 | 15 | 134 | 1.6 | 6.4 | 0.00 | 0.00 | 0.00 | 87 | 1015.0 |
| 20260903093345 | 15 | 142 | 1.6 | 6.4 | 0.00 | 0.00 | 0.00 | 87 | 1015.0 |
| 20260903093246 | 15 | 143 | 1.6 | 6.4 | 0.00 | 0.00 | 0.00 | 87 | 1015.0 |
| 20260903093146 | 15 | 219 | 1.6 | 6.4 | 0.00 | 0.00 | 0.00 | 87 | 1015.0 |
| 20260903093046 | 15 | 208 | 1.6 | 6.4 | 0.00 | 0.00 | 0.00 | 87 | 1015.0 |
| 20260903092946 | 15 | 203 | 1.6 | 6.4 | 0.00 | 0.00 | 0.00 | 87 | 1015.0 |
| 20260903092845 | 15 | 167 | 1.6 | 6.4 | 0.00 | 0.00 | 0.00 | 87 | 1015.0 |
| 20260903092744 | 15 | 180 | 1.6 | 6.4 | 0.00 | 0.00 | 0.00 | 87 | 1015.1 |
| 20260903092642 | 15 | 229 | 1.6 | 6.4 | 0.00 | 0.00 | 0.00 | 87 | 1015.1 |
| 20260903092540 | 15 | 215 | 1.6 | 4.8 | 0.00 | 0.00 | 0.00 | 87 | 1015.1 |
| 20260903092436 | 15 | 221 | 1.6 | 6.4 | 0.00 | 0.00 | 0.00 | 87 | 1015.1 |
| 20260903092334 | 15 | 221 | 1.6 | 6.4 | 0.00 | 0.00 | 0.00 | 87 | 1015.1 |
| 20260903092233 | 15 | 226 | 1.6 | 6.4 | 0.00 | 0.00 | 0.00 | 87 | 1015.2 |
| 20260903092135 | 15 | 226 | 1.6 | 6.4 | 0.00 | 0.00 | 0.00 | 87 | 1015.2 |
| 20260903092034 | 15 | 218 | 1.6 | 6.4 | 0.00 | 0.00 | 0.00 | 87 | 1015.1 |
| 20260903091930 | 15 | 219 | 1.6 | 6.4 | 0.00 | 0.00 | 0.00 | 87 | 1015.2 |
| 20260903091828 | 15 | 219 | 1.6 | 6.4 | 0.00 | 0.00 | 0.00 | 87 | 1015.2 |
| 20260903091727 | 15 | 217 | 1.6 | 6.4 | 0.00 | 0.00 | 0.00 | 87 | 1015.2 |
| 20260903091628 | 15 | 216 | 1.6 | 6.4 | 0.00 | 0.00 | 0.00 | 87 | 1015.2 |
| 20260903091541 | 15 | 217 | 1.6 | 6.4 | 0.00 | 0.00 | 0.00 | 87 | 1015.2 |
| 20260903091428 | 15 | 223 | 0.0 | 3.2 | 0.00 | 0.00 | 0.00 | 87 | 1015.2 |
| 20260903091326 | 15 | 224 | 0.0 | 3.2 | 0.00 | 0.00 | 0.00 | 87 | 1015.3 |
| 20260903091226 | 15 | 136 | 0.0 | 1.6 | 0.00 | 0.00 | 0.00 | 86 | 1015.3 |
| 20260903091125 | 15 | 136 | 0.0 | 1.6 | 0.00 | 0.00 | 0.00 | 86 | 1015.3 |
| 20260903091022 | 15 | 136 | 0.0 | 1.6 | 0.00 | 0.00 | 0.00 | 86 | 1015.3 |
| 20260903090916 | 15 | 136 | 0.0 | 1.6 | 0.00 | 0.00 | 0.00 | 86 | 1015.3 |
| 20260903090817 | 15 | 136 | 0.0 | 3.2 | 0.00 | 0.00 | 0.00 | 86 | 1015.3 |
| 20260903090716 | 15 | 136 | 0.0 | 3.2 | 0.00 | 0.00 | 0.00 | 86 | 1015.3 |
| 20260903090617 | 15 | 136 | 0.0 | 3.2 | 0.00 | 0.00 | 0.00 | 86 | 1015.3 |
| 20260903090531 | 15 | 136 | 0.0 | 3.2 | 0.00 | 0.00 | 0.00 | 86 | 1015.3 |
| 20260903090409 | 15 | 135 | 1.6 | 3.2 | 0.00 | 0.00 | 0.00 | 86 | 1015.3 |
| 20260903090310 | 15 | 136 | 1.6 | 4.8 | 0.00 | 0.00 | 0.00 | 86 | 1015.3 |
| 20260903090210 | 15 | 136 | 1.6 | 6.4 | 0.00 | 0.00 | 0.00 | 86 | 1015.3 |
| 20260903090113 | 15 | 135 | 1.6 | 6.4 | 0.00 | 0.00 | 0.00 | 86 | 1015.3 |
| 20260903090015 | 15 | 136 | 1.6 | 6.4 | 0.00 | 0.00 | 0.00 | 86 | 1015.3 |
| 20260903090010 | 15 | 135 | 1.6 | 6.4 | 0.00 | 0.00 | 0.00 | 86 | 1015.3 |
| 20260903085908 | 15 | 136 | 3.2 | 6.4 | 0.00 | 0.00 | 0.00 | 86 | 1015.3 |
| 20260903085829 | 15 | 129 | 1.6 | 6.4 | 0.00 | 0.00 | 0.00 | 85 | 1015.3 |
| 20260903085808 | 15 | 174 | 1.6 | 6.4 | 0.00 | 0.00 | 0.00 | 85 | 1015.3 |
| 20260903085739 | 15 | 129 | 1.6 | 6.4 | 0.00 | 0.00 | 0.00 | 85 | 1015.3 |
| 20260903085735 | 15 | 136 | 1.6 | 6.4 | 0.00 | 0.00 | 0.00 | 85 | 1015.3 |
| 20260903085724 | 15 | 129 | 1.6 | 6.4 | 0.00 | 0.00 | 0.00 | 85 | 1015.3 |
| 20260903085358 | 15 | 121 | 1.6 | 6.4 | 0.00 | 0.00 | 0.00 | 85 | 1015.3 |
| 20260903085258 | 15 | 148 | 1.6 | 6.4 | 0.00 | 0.00 | 0.00 | 85 | 1015.4 |
| 20260903085158 | 15 | 114 | 1.6 | 4.8 | 0.00 | 0.00 | 0.00 | 85 | 1015.4 |
| 20260903085058 | 15 | 132 | 1.6 | 4.8 | 0.00 | 0.00 | 0.00 | 85 | 1015.4 |
| 20260903085009 | 15 | 150 | 1.6 | 3.2 | 0.00 | 0.00 | 0.00 | 85 | 1015.3 |
| 20260903084957 | 15 | 146 | 1.6 | 3.2 | 0.00 | 0.00 | 0.00 | 85 | 1015.3 |
| 20260903084856 | 15 | 143 | 1.6 | 4.8 | 0.00 | 0.00 | 0.00 | 85 | 1015.4 |
| 20260903084757 | 15 | 205 | 1.6 | 4.8 | 0.00 | 0.00 | 0.00 | 85 | 1015.3 |
| 20260903084657 | 15 | 205 | 1.6 | 4.8 | 0.00 | 0.00 | 0.00 | 85 | 1015.4 |
| 20260903084601 | 15 | 205 | 1.6 | 4.8 | 0.00 | 0.00 | 0.00 | 85 | 1015.4 |
| 20260903084509 | 15 | 206 | 1.6 | 4.8 | 0.00 | 0.00 | 0.00 | 85 | 1015.4 |
| 20260903084452 | 15 | 206 | 1.6 | 4.8 | 0.00 | 0.00 | 0.00 | 85 | 1015.4 |
| 20260903084353 | 15 | 205 | 1.6 | 4.8 | 0.00 | 0.00 | 0.00 | 85 | 1015.4 |
| 20260903084300 | 15 | 193 | 1.6 | 4.8 | 0.00 | 0.00 | 0.00 | 85 | 1015.3 |
| 20260903084258 | 15 | 205 | 1.6 | 4.8 | 0.00 | 0.00 | 0.00 | 85 | 1015.4 |
| 20260903084221 | 15 | 193 | 1.6 | 4.8 | 0.00 | 0.00 | 0.00 | 85 | 1015.3 |
| 20260903084008 | 15 | 193 | 1.6 | 4.8 | 0.00 | 0.00 | 0.00 | 85 | 1015.3 |
| 20260903083943 | 15 | 194 | 1.6 | 4.8 | 0.00 | 0.00 | 0.00 | 85 | 1015.3 |
| 20260903083841 | 15 | 193 | 1.6 | 4.8 | 0.00 | 0.00 | 0.00 | 84 | 1015.3 |
| 20260903083743 | 15 | 176 | 1.6 | 4.8 | 0.00 | 0.00 | 0.00 | 84 | 1015.4 |
| 20260903083735 | 15 | 211 | 1.6 | 4.8 | 0.00 | 0.00 | 0.00 | 84 | 1015.3 |
| 20260903083641 | 15 | 148 | 1.6 | 4.8 | 0.00 | 0.00 | 0.00 | 84 | 1015.3 |
| 20260903083539 | 15 | 195 | 1.6 | 4.8 | 0.00 | 0.00 | 0.00 | 84 | 1015.4 |
| 20260903083437 | 15 | 226 | 1.6 | 4.8 | 0.00 | 0.00 | 0.00 | 84 | 1015.3 |
| 20260903083334 | 15 | 224 | 1.6 | 8.0 | 0.00 | 0.00 | 0.00 | 84 | 1015.4 |
| 20260903083240 | 15 | 216 | 3.2 | 8.0 | 0.00 | 0.00 | 0.00 | 84 | 1015.4 |
| 20260903083234 | 15 | 239 | 3.2 | 8.0 | 0.00 | 0.00 | 0.00 | 84 | 1015.4 |
| 20260903083134 | 15 | 215 | 3.2 | 8.0 | 0.00 | 0.00 | 0.00 | 84 | 1015.4 |
| 20260903083120 | 15 | 215 | 3.2 | 8.0 | 0.00 | 0.00 | 0.00 | 84 | 1015.3 |
| 20260903082929 | 15 | 221 | 3.2 | 8.0 | 0.00 | 0.00 | 0.00 | 84 | 1015.4 |
| 20260903082824 | 15 | 170 | 3.2 | 8.0 | 0.00 | 0.00 | 0.00 | 84 | 1015.4 |
| 20260903082724 | 15 | 138 | 3.2 | 8.0 | 0.00 | 0.00 | 0.00 | 84 | 1015.4 |
| 20260903082634 | 15 | 232 | 3.2 | 8.0 | 0.00 | 0.00 | 0.00 | 84 | 1015.4 |
| 20260903082607 | 15 | 224 | 1.6 | 9.7 | 0.00 | 0.00 | 0.00 | 84 | 1015.4 |
| 20260903082522 | 15 | 228 | 3.2 | 8.0 | 0.00 | 0.00 | 0.00 | 84 | 1015.4 |
| 20260903082509 | 15 | 226 | 3.2 | 8.0 | 0.00 | 0.00 | 0.00 | 84 | 1015.4 |
| 20260903082454 | 15 | 229 | 3.2 | 9.7 | 0.00 | 0.00 | 0.00 | 84 | 1015.4 |
| 20260903082320 | 15 | 222 | 1.6 | 9.7 | 0.00 | 0.00 | 0.00 | 84 | 1015.4 |
| 20260903082247 | 15 | 211 | 1.6 | 9.7 | 0.00 | 0.00 | 0.00 | 84 | 1015.4 |
| 20260903082240 | 15 | 236 | 1.6 | 9.7 | 0.00 | 0.00 | 0.00 | 84 | 1015.4 |
| 20260903082232 | 15 | 224 | 1.6 | 9.7 | 0.00 | 0.00 | 0.00 | 84 | 1015.4 |
| 20260903082224 | 15 | 224 | 1.6 | 9.7 | 0.00 | 0.00 | 0.00 | 84 | 1015.4 |
| 20260903081914 | 15 | 207 | 1.6 | 9.7 | 0.00 | 0.00 | 0.00 | 84 | 1015.4 |
| 20260903081808 | 16 | 250 | 1.6 | 9.7 | 0.00 | 0.00 | 0.00 | 84 | 1015.4 |
| 20260903081708 | 15 | 217 | 1.6 | 9.7 | 0.00 | 0.00 | 0.00 | 84 | 1015.4 |
| 20260903081612 | 16 | 217 | 1.6 | 9.7 | 0.00 | 0.00 | 0.00 | 84 | 1015.4 |
| 20260903081522 | 15 | 211 | 1.6 | 9.7 | 0.00 | 0.00 | 0.00 | 84 | 1015.4 |
| 20260903081508 | 15 | 219 | 1.6 | 9.7 | 0.00 | 0.00 | 0.00 | 84 | 1015.4 |
| 20260903081407 | 16 | 186 | 3.2 | 4.8 | 0.00 | 0.00 | 0.00 | 84 | 1015.4 |
| 20260903081304 | 16 | 186 | 3.2 | 6.4 | 0.00 | 0.00 | 0.00 | 84 | 1015.4 |
| 20260903081203 | 16 | 186 | 3.2 | 6.4 | 0.00 | 0.00 | 0.00 | 84 | 1015.4 |
| 20260903081104 | 16 | 186 | 3.2 | 8.0 | 0.00 | 0.00 | 0.00 | 84 | 1015.4 |
| 20260903081008 | 16 | 235 | 3.2 | 8.0 | 0.00 | 0.00 | 0.00 | 84 | 1015.3 |
| 20260903081002 | 16 | 235 | 3.2 | 8.0 | 0.00 | 0.00 | 0.00 | 84 | 1015.3 |
| 20260903080859 | 16 | 193 | 3.2 | 8.0 | 0.00 | 0.00 | 0.00 | 84 | 1015.3 |
| 20260903080757 | 16 | 208 | 3.2 | 8.0 | 0.00 | 0.00 | 0.00 | 84 | 1015.4 |
| 20260903080658 | 16 | 212 | 3.2 | 8.0 | 0.00 | 0.00 | 0.00 | 84 | 1015.3 |
| 20260903080559 | 16 | 196 | 3.2 | 8.0 | 0.00 | 0.00 | 0.00 | 84 | 1015.3 |
| 20260903080509 | 16 | 195 | 3.2 | 8.0 | 0.00 | 0.00 | 0.00 | 84 | 1015.3 |
| 20260903080458 | 16 | 195 | 3.2 | 8.0 | 0.00 | 0.00 | 0.00 | 84 | 1015.3 |
| 20260903080357 | 16 | 222 | 3.2 | 8.0 | 0.00 | 0.00 | 0.00 | 84 | 1015.3 |
| 20260903080256 | 16 | 200 | 3.2 | 8.0 | 0.00 | 0.00 | 0.00 | 84 | 1015.2 |
| 20260903080157 | 16 | 239 | 3.2 | 8.0 | 0.00 | 0.00 | 0.00 | 84 | 1015.2 |
| 20260903080056 | 16 | 166 | 3.2 | 8.0 | 0.00 | 0.00 | 0.00 | 84 | 1015.3 |
| 20260903080009 | 16 | 165 | 3.2 | 8.0 | 0.00 | 0.00 | 0.00 | 84 | 1015.3 |
| 20260903075956 | 16 | 203 | 3.2 | 8.0 | 0.00 | 0.00 | 0.00 | 84 | 1015.3 |
| 20260903075856 | 16 | 231 | 3.2 | 12.9 | 0.00 | 0.00 | 0.00 | 84 | 1015.2 |
| 20260903075754 | 16 | 191 | 3.2 | 12.9 | 0.00 | 0.00 | 0.00 | 84 | 1015.2 |
| 20260903075731 | 16 | 231 | 3.2 | 12.9 | 0.00 | 0.00 | 0.00 | 84 | 1015.2 |
| 20260903075654 | 16 | 200 | 3.2 | 12.9 | 0.00 | 0.00 | 0.00 | 84 | 1015.2 |
| 20260903075620 | 16 | 230 | 3.2 | 12.9 | 0.00 | 0.00 | 0.00 | 84 | 1015.2 |
| 20260903075452 | 16 | 203 | 3.2 | 12.9 | 0.00 | 0.00 | 0.00 | 84 | 1015.2 |
| 20260903075349 | 16 | 232 | 3.2 | 12.9 | 0.00 | 0.00 | 0.00 | 84 | 1015.2 |
| 20260903075250 | 16 | 232 | 3.2 | 12.9 | 0.00 | 0.00 | 0.00 | 83 | 1015.2 |
| 20260903075230 | 16 | 214 | 3.2 | 12.9 | 0.00 | 0.00 | 0.00 | 83 | 1015.2 |
| 20260903075146 | 16 | 217 | 3.2 | 12.9 | 0.00 | 0.00 | 0.00 | 84 | 1015.2 |
| 20260903075121 | 16 | 191 | 3.2 | 12.9 | 0.00 | 0.00 | 0.00 | 84 | 1015.2 |
| 20260903074942 | 16 | 236 | 3.2 | 12.9 | 0.00 | 0.00 | 0.00 | 83 | 1015.2 |
| 20260903074842 | 16 | 198 | 1.6 | 9.7 | 0.00 | 0.00 | 0.00 | 83 | 1015.2 |
| 20260903074740 | 16 | 174 | 1.6 | 9.7 | 0.00 | 0.00 | 0.00 | 83 | 1015.3 |
| 20260903074640 | 16 | 204 | 1.6 | 9.7 | 0.00 | 0.00 | 0.00 | 83 | 1015.3 |
| 20260903074540 | 16 | 230 | 1.6 | 9.7 | 0.00 | 0.00 | 0.00 | 83 | 1015.2 |
| 20260903074502 | 16 | 217 | 1.6 | 9.7 | 0.00 | 0.00 | 0.00 | 83 | 1015.3 |
| 20260903074440 | 16 | 215 | 1.6 | 8.0 | 0.00 | 0.00 | 0.00 | 83 | 1015.3 |
| 20260903074340 | 16 | 257 | 1.6 | 8.0 | 0.00 | 0.00 | 0.00 | 83 | 1015.2 |
| 20260903074239 | 16 | 161 | 1.6 | 9.7 | 0.00 | 0.00 | 0.00 | 83 | 1015.2 |
| 20260903074140 | 16 | 223 | 3.2 | 9.7 | 0.00 | 0.00 | 0.00 | 83 | 1015.2 |
| 20260903074039 | 16 | 163 | 3.2 | 9.7 | 0.00 | 0.00 | 0.00 | 83 | 1015.2 |
| 20260903073955 | 16 | 182 | 3.2 | 9.7 | 0.00 | 0.00 | 0.00 | 83 | 1015.2 |
| 20260903073938 | 16 | 231 | 3.2 | 9.7 | 0.00 | 0.00 | 0.00 | 83 | 1015.2 |
| 20260903073838 | 16 | 210 | 3.2 | 9.7 | 0.00 | 0.00 | 0.00 | 83 | 1015.3 |
| 20260903073736 | 16 | 210 | 3.2 | 9.7 | 0.00 | 0.00 | 0.00 | 83 | 1015.3 |
| 20260903073633 | 16 | 210 | 3.2 | 9.7 | 0.00 | 0.00 | 0.00 | 83 | 1015.3 |
| 20260903073530 | 16 | 203 | 3.2 | 9.7 | 0.00 | 0.00 | 0.00 | 83 | 1015.3 |
| 20260903073448 | 16 | 114 | 4.8 | 9.7 | 0.00 | 0.00 | 0.00 | 83 | 1015.3 |
| 20260903073428 | 16 | 226 | 4.8 | 9.7 | 0.00 | 0.00 | 0.00 | 83 | 1015.3 |
| 20260903073328 | 16 | 214 | 4.8 | 9.7 | 0.00 | 0.00 | 0.00 | 83 | 1015.2 |
| 20260903073229 | 16 | 228 | 3.2 | 9.7 | 0.00 | 0.00 | 0.00 | 83 | 1015.2 |
| 20260903073127 | 16 | 238 | 3.2 | 9.7 | 0.00 | 0.00 | 0.00 | 82 | 1015.3 |
| 20260903073024 | 16 | 226 | 3.2 | 9.7 | 0.00 | 0.00 | 0.00 | 82 | 1015.2 |
| 20260903072942 | 16 | 229 | 3.2 | 9.7 | 0.00 | 0.00 | 0.00 | 82 | 1015.2 |
| 20260903072922 | 16 | 225 | 3.2 | 9.7 | 0.00 | 0.00 | 0.00 | 82 | 1015.2 |
| 20260903072821 | 16 | 251 | 4.8 | 9.7 | 0.00 | 0.00 | 0.00 | 82 | 1015.2 |
| 20260903072722 | 16 | 231 | 4.8 | 11.3 | 0.00 | 0.00 | 0.00 | 82 | 1015.2 |
| 20260903072622 | 16 | 253 | 4.8 | 11.3 | 0.00 | 0.00 | 0.00 | 82 | 1015.2 |
| 20260903072516 | 16 | 212 | 4.8 | 11.3 | 0.00 | 0.00 | 0.00 | 82 | 1015.1 |
| 20260903072436 | 16 | 212 | 4.8 | 11.3 | 0.00 | 0.00 | 0.00 | 82 | 1015.2 |
| 20260903072416 | 16 | 216 | 4.8 | 11.3 | 0.00 | 0.00 | 0.00 | 82 | 1015.1 |
| 20260903072316 | 16 | 243 | 4.8 | 11.3 | 0.00 | 0.00 | 0.00 | 82 | 1015.1 |
| 20260903072216 | 16 | 250 | 6.4 | 12.9 | 0.00 | 0.00 | 0.00 | 82 | 1015.1 |
| 20260903072116 | 16 | 305 | 6.4 | 16.1 | 0.00 | 0.00 | 0.00 | 82 | 1015.1 |
| 20260903072012 | 16 | 241 | 6.4 | 16.1 | 0.00 | 0.00 | 0.00 | 82 | 1015.1 |
| 20260903071935 | 16 | 200 | 6.4 | 16.1 | 0.00 | 0.00 | 0.00 | 82 | 1015.1 |
| 20260903071912 | 16 | 256 | 8.0 | 16.1 | 0.00 | 0.00 | 0.00 | 82 | 1015.1 |
| 20260903071812 | 16 | 200 | 8.0 | 16.1 | 0.00 | 0.00 | 0.00 | 82 | 1015.2 |
| 20260903071712 | 16 | 229 | 8.0 | 16.1 | 0.00 | 0.00 | 0.00 | 82 | 1015.1 |
| 20260903071615 | 16 | 204 | 6.4 | 16.1 | 0.00 | 0.00 | 0.00 | 82 | 1015.1 |
| 20260903071506 | 16 | 226 | 6.4 | 16.1 | 0.00 | 0.00 | 0.00 | 82 | 1015.1 |
| 20260903071434 | 16 | 212 | 6.4 | 16.1 | 0.00 | 0.00 | 0.00 | 82 | 1015.1 |
| 20260903071405 | 16 | 248 | 6.4 | 16.1 | 0.00 | 0.00 | 0.00 | 82 | 1015.1 |
| 20260903071306 | 16 | 240 | 6.4 | 16.1 | 0.00 | 0.00 | 0.00 | 82 | 1015.1 |
| 20260903071206 | 16 | 237 | 6.4 | 16.1 | 0.00 | 0.00 | 0.00 | 82 | 1015.1 |
| 20260903071109 | 16 | 248 | 6.4 | 16.1 | 0.00 | 0.00 | 0.00 | 82 | 1015.2 |
| 20260903071006 | 16 | 238 | 6.4 | 14.5 | 0.00 | 0.00 | 0.00 | 81 | 1015.2 |
| 20260903070935 | 16 | 229 | 6.4 | 14.5 | 0.00 | 0.00 | 0.00 | 81 | 1015.2 |
| 20260903070906 | 16 | 195 | 6.4 | 14.5 | 0.00 | 0.00 | 0.00 | 81 | 1015.2 |
| 20260903070806 | 16 | 248 | 6.4 | 14.5 | 0.00 | 0.00 | 0.00 | 81 | 1015.2 |
| 20260903070704 | 16 | 232 | 6.4 | 12.9 | 0.00 | 0.00 | 0.00 | 81 | 1015.2 |
| 20260903070614 | 16 | 211 | 6.4 | 12.9 | 0.00 | 0.00 | 0.00 | 81 | 1015.2 |
| 20260903070504 | 16 | 240 | 6.4 | 12.9 | 0.00 | 0.00 | 0.00 | 81 | 1015.2 |
| 20260903070434 | 16 | 210 | 6.4 | 12.9 | 0.00 | 0.00 | 0.00 | 81 | 1015.2 |
| 20260903070405 | 16 | 242 | 6.4 | 12.9 | 0.00 | 0.00 | 0.00 | 81 | 1015.2 |
| 20260903070304 | 16 | 218 | 6.4 | 12.9 | 0.00 | 0.00 | 0.00 | 81 | 1015.2 |
| 20260903070203 | 16 | 253 | 6.4 | 12.9 | 0.00 | 0.00 | 0.00 | 81 | 1015.2 |
| 20260903070100 | 16 | 211 | 6.4 | 12.9 | 0.00 | 0.00 | 0.00 | 81 | 1015.2 |
| 20260903070000 | 16 | 248 | 6.4 | 12.9 | 0.00 | 0.00 | 0.00 | 81 | 1015.1 |
| 20260903065935 | 16 | 195 | 6.4 | 12.9 | 0.00 | 0.00 | 0.00 | 81 | 1015.1 |
| 20260903065900 | 16 | 256 | 6.4 | 12.9 | 0.00 | 0.00 | 0.00 | 81 | 1015.1 |
| 20260903065800 | 16 | 221 | 6.4 | 12.9 | 0.00 | 0.00 | 0.00 | 81 | 1015.2 |
| 20260903065700 | 16 | 205 | 6.4 | 12.9 | 0.00 | 0.00 | 0.00 | 81 | 1015.1 |
| 20260903065558 | 16 | 165 | 6.4 | 12.9 | 0.00 | 0.00 | 0.00 | 80 | 1015.0 |
| 20260903065457 | 16 | 219 | 6.4 | 11.3 | 0.00 | 0.00 | 0.00 | 80 | 1015.1 |
| 20260903065434 | 16 | 246 | 6.4 | 9.7 | 0.00 | 0.00 | 0.00 | 80 | 1015.1 |
| 20260903065356 | 16 | 208 | 6.4 | 9.7 | 0.00 | 0.00 | 0.00 | 80 | 1015.1 |
| 20260903065254 | 16 | 233 | 6.4 | 9.7 | 0.00 | 0.00 | 0.00 | 80 | 1015.1 |
| 20260903065155 | 16 | 219 | 6.4 | 9.7 | 0.00 | 0.00 | 0.00 | 80 | 1015.1 |
| 20260903065054 | 16 | 231 | 4.8 | 9.7 | 0.00 | 0.00 | 0.00 | 80 | 1015.1 |
| 20260903064954 | 16 | 219 | 4.8 | 9.7 | 0.00 | 0.00 | 0.00 | 80 | 1015.1 |
| 20260903064933 | 16 | 212 | 4.8 | 9.7 | 0.00 | 0.00 | 0.00 | 80 | 1015.1 |
| 20260903064855 | 16 | 235 | 4.8 | 9.7 | 0.00 | 0.00 | 0.00 | 80 | 1015.1 |
| 20260903064754 | 16 | 200 | 4.8 | 9.7 | 0.00 | 0.00 | 0.00 | 79 | 1015.1 |
| 20260903064700 | 16 | 214 | 4.8 | 12.9 | 0.00 | 0.00 | 0.00 | 79 | 1015.0 |
| 20260903064654 | 16 | 262 | 4.8 | 12.9 | 0.00 | 0.00 | 0.00 | 79 | 1015.0 |
| 20260903064553 | 16 | 211 | 4.8 | 12.9 | 0.00 | 0.00 | 0.00 | 79 | 1015.1 |
| 20260903064544 | 16 | 229 | 4.8 | 12.9 | 0.00 | 0.00 | 0.00 | 79 | 1015.0 |
| 20260903064354 | 16 | 248 | 4.8 | 12.9 | 0.00 | 0.00 | 0.00 | 79 | 1015.1 |
| 20260903064254 | 16 | 256 | 4.8 | 12.9 | 0.00 | 0.00 | 0.00 | 79 | 1015.0 |
| 20260903064154 | 16 | 232 | 4.8 | 12.9 | 0.00 | 0.00 | 0.00 | 79 | 1015.1 |
| 20260903064048 | 16 | 231 | 4.8 | 12.9 | 0.00 | 0.00 | 0.00 | 79 | 1015.0 |
| 20260903063949 | 17 | 219 | 4.8 | 12.9 | 0.00 | 0.00 | 0.00 | 78 | 1015.0 |
| 20260903063933 | 17 | 226 | 4.8 | 12.9 | 0.00 | 0.00 | 0.00 | 78 | 1015.0 |
| 20260903063848 | 17 | 193 | 4.8 | 12.9 | 0.00 | 0.00 | 0.00 | 78 | 1015.0 |
| 20260903063748 | 17 | 235 | 4.8 | 12.9 | 0.00 | 0.00 | 0.00 | 78 | 1015.0 |
| 20260903063648 | 17 | 204 | 4.8 | 11.3 | 0.00 | 0.00 | 0.00 | 78 | 1015.0 |
| 20260903063548 | 17 | 228 | 4.8 | 11.3 | 0.00 | 0.00 | 0.00 | 78 | 1015.1 |
| 20260903063448 | 17 | 236 | 4.8 | 11.3 | 0.00 | 0.00 | 0.00 | 78 | 1015.1 |
| 20260903063433 | 17 | 235 | 4.8 | 11.3 | 0.00 | 0.00 | 0.00 | 78 | 1015.1 |
| 20260903063347 | 17 | 240 | 4.8 | 11.3 | 0.00 | 0.00 | 0.00 | 78 | 1015.0 |
| 20260903063248 | 17 | 251 | 4.8 | 11.3 | 0.00 | 0.00 | 0.00 | 78 | 1015.0 |
| 20260903063148 | 17 | 269 | 4.8 | 11.3 | 0.00 | 0.00 | 0.00 | 78 | 1015.0 |
| 20260903063047 | 17 | 245 | 4.8 | 11.3 | 0.00 | 0.00 | 0.00 | 78 | 1015.1 |
| 20260903062948 | 17 | 224 | 4.8 | 11.3 | 0.00 | 0.00 | 0.00 | 78 | 1015.0 |
| 20260903062933 | 17 | 211 | 4.8 | 11.3 | 0.00 | 0.00 | 0.00 | 78 | 1015.0 |
| 20260903062844 | 17 | 234 | 4.8 | 11.3 | 0.00 | 0.00 | 0.00 | 78 | 1015.0 |
| 20260903062745 | 17 | 233 | 4.8 | 11.3 | 0.00 | 0.00 | 0.00 | 77 | 1015.0 |
| 20260903062645 | 17 | 229 | 4.8 | 11.3 | 0.00 | 0.00 | 0.00 | 77 | 1015.0 |
| 20260903062544 | 17 | 235 | 4.8 | 11.3 | 0.00 | 0.00 | 0.00 | 77 | 1015.0 |
| 20260903062444 | 17 | 248 | 4.8 | 11.3 | 0.00 | 0.00 | 0.00 | 77 | 1015.0 |
| 20260903062433 | 17 | 222 | 4.8 | 11.3 | 0.00 | 0.00 | 0.00 | 77 | 1015.0 |
| 20260903062344 | 17 | 243 | 4.8 | 11.3 | 0.00 | 0.00 | 0.00 | 77 | 1015.0 |
| 20260903062244 | 17 | 240 | 4.8 | 11.3 | 0.00 | 0.00 | 0.00 | 77 | 1015.0 |
| 20260903062145 | 17 | 225 | 4.8 | 11.3 | 0.00 | 0.00 | 0.00 | 77 | 1015.0 |
| 20260903062044 | 17 | 226 | 4.8 | 11.3 | 0.00 | 0.00 | 0.00 | 77 | 1015.0 |
| 20260903061945 | 17 | 242 | 4.8 | 11.3 | 0.00 | 0.00 | 0.00 | 77 | 1015.0 |
| 20260903061929 | 17 | 226 | 4.8 | 11.3 | 0.00 | 0.00 | 0.00 | 77 | 1015.0 |
| 20260903061845 | 17 | 218 | 4.8 | 11.3 | 0.00 | 0.00 | 0.00 | 77 | 1015.0 |
| 20260903061744 | 17 | 231 | 4.8 | 11.3 | 0.00 | 0.00 | 0.00 | 77 | 1015.0 |
| 20260903061645 | 17 | 235 | 4.8 | 11.3 | 0.00 | 0.00 | 0.00 | 77 | 1015.0 |
| 20260903061544 | 17 | 235 | 4.8 | 11.3 | 0.00 | 0.00 | 0.00 | 77 | 1015.0 |
| 20260903061429 | 17 | 235 | 4.8 | 11.3 | 0.00 | 0.00 | 0.00 | 77 | 1015.0 |
| 20260903061345 | 17 | 236 | 4.8 | 11.3 | 0.00 | 0.00 | 0.00 | 77 | 1015.0 |
| 20260903061244 | 17 | 229 | 4.8 | 11.3 | 0.00 | 0.00 | 0.00 | 77 | 1015.0 |
| 20260903061145 | 17 | 256 | 4.8 | 9.7 | 0.00 | 0.00 | 0.00 | 77 | 1015.0 |
| 20260903061045 | 17 | 236 | 4.8 | 9.7 | 0.00 | 0.00 | 0.00 | 76 | 1015.0 |
| 20260903060944 | 17 | 231 | 4.8 | 9.7 | 0.00 | 0.00 | 0.00 | 76 | 1015.0 |
| 20260903060930 | 17 | 238 | 4.8 | 9.7 | 0.00 | 0.00 | 0.00 | 76 | 1015.0 |
| 20260903060844 | 17 | 236 | 4.8 | 9.7 | 0.00 | 0.00 | 0.00 | 76 | 1015.0 |
| 20260903060744 | 17 | 229 | 4.8 | 9.7 | 0.00 | 0.00 | 0.00 | 76 | 1015.0 |
| 20260903060645 | 17 | 235 | 3.2 | 9.7 | 0.00 | 0.00 | 0.00 | 76 | 1015.0 |
| 20260903060544 | 17 | 238 | 4.8 | 9.7 | 0.00 | 0.00 | 0.00 | 76 | 1015.0 |
| 20260903060442 | 17 | 246 | 4.8 | 9.7 | 0.00 | 0.00 | 0.00 | 76 | 1015.0 |
| 20260903060427 | 17 | 233 | 4.8 | 9.7 | 0.00 | 0.00 | 0.00 | 76 | 1015.0 |
| 20260903060342 | 17 | 235 | 3.2 | 9.7 | 0.00 | 0.00 | 0.00 | 76 | 1015.0 |
| 20260903060242 | 17 | 233 | 3.2 | 9.7 | 0.00 | 0.00 | 0.00 | 75 | 1015.0 |
| 20260903060143 | 17 | 233 | 3.2 | 9.7 | 0.00 | 0.00 | 0.00 | 75 | 1015.1 |
| 20260903060042 | 17 | 235 | 3.2 | 9.7 | 0.00 | 0.00 | 0.00 | 75 | 1015.0 |
| 20260903055927 | 17 | 238 | 3.2 | 9.7 | 0.00 | 0.00 | 0.00 | 75 | 1015.0 |
| 20260903055840 | 17 | 238 | 3.2 | 9.7 | 0.00 | 0.00 | 0.00 | 75 | 1015.1 |
| 20260903055740 | 17 | 166 | 3.2 | 9.7 | 0.00 | 0.00 | 0.00 | 75 | 1015.0 |
| 20260903055651 | 17 | 208 | 3.2 | 9.7 | 0.00 | 0.00 | 0.00 | 74 | 1015.0 |
| 20260903055640 | 17 | 229 | 3.2 | 9.7 | 0.00 | 0.00 | 0.00 | 75 | 1015.1 |
| 20260903055547 | 17 | 236 | 3.2 | 9.7 | 0.00 | 0.00 | 0.00 | 74 | 1015.1 |
| 20260903055538 | 17 | 203 | 3.2 | 9.7 | 0.00 | 0.00 | 0.00 | 74 | 1015.0 |
| 20260903055338 | 17 | 212 | 3.2 | 9.7 | 0.00 | 0.00 | 0.00 | 74 | 1015.1 |
| 20260903055238 | 17 | 232 | 3.2 | 9.7 | 0.00 | 0.00 | 0.00 | 74 | 1015.1 |
| 20260903055137 | 17 | 240 | 3.2 | 9.7 | 0.00 | 0.00 | 0.00 | 74 | 1015.0 |
| 20260903055036 | 17 | 232 | 3.2 | 9.7 | 0.00 | 0.00 | 0.00 | 74 | 1015.0 |
| 20260903054936 | 17 | 242 | 3.2 | 9.7 | 0.00 | 0.00 | 0.00 | 74 | 1015.0 |
| 20260903054925 | 17 | 236 | 3.2 | 9.7 | 0.00 | 0.00 | 0.00 | 74 | 1015.0 |
| 20260903054836 | 17 | 146 | 3.2 | 9.7 | 0.00 | 0.00 | 0.00 | 74 | 1015.0 |
| 20260903054737 | 17 | 231 | 3.2 | 12.9 | 0.00 | 0.00 | 0.00 | 74 | 1015.0 |
| 20260903054638 | 17 | 226 | 3.2 | 12.9 | 0.00 | 0.00 | 0.00 | 74 | 1015.0 |
| 20260903054536 | 17 | 237 | 3.2 | 12.9 | 0.00 | 0.00 | 0.00 | 73 | 1014.9 |
| 20260903054436 | 17 | 211 | 3.2 | 12.9 | 0.00 | 0.00 | 0.00 | 73 | 1015.0 |
| 20260903054426 | 17 | 203 | 3.2 | 12.9 | 0.00 | 0.00 | 0.00 | 73 | 1015.0 |
| 20260903054336 | 17 | 153 | 3.2 | 12.9 | 0.00 | 0.00 | 0.00 | 73 | 1015.0 |
| 20260903054237 | 17 | 256 | 3.2 | 12.9 | 0.00 | 0.00 | 0.00 | 73 | 1015.0 |
| 20260903054136 | 18 | 256 | 3.2 | 12.9 | 0.00 | 0.00 | 0.00 | 73 | 1015.0 |
| 20260903054036 | 18 | 263 | 3.2 | 12.9 | 0.00 | 0.00 | 0.00 | 73 | 1015.0 |
| 20260903054026 | 18 | 232 | 4.8 | 16.1 | 0.00 | 0.00 | 0.00 | 72 | 1015.0 |
| 20260903054020 | 18 | 234 | 4.8 | 14.5 | 0.00 | 0.00 | 0.00 | 72 | 1015.0 |
| 20260903054016 | 18 | 233 | 3.2 | 12.9 | 0.00 | 0.00 | 0.00 | 73 | 1015.0 |
| 20260903054006 | 18 | 229 | 3.2 | 12.9 | 0.00 | 0.00 | 0.00 | 73 | 1015.0 |
| 20260903053856 | 18 | 229 | 4.8 | 14.5 | 0.00 | 0.00 | 0.00 | 73 | 1015.0 |
| 20260903053743 | 18 | 210 | 4.8 | 14.5 | 0.00 | 0.00 | 0.00 | 72 | 1015.0 |
| 20260903053541 | 18 | 233 | 4.8 | 16.1 | 0.00 | 0.00 | 0.00 | 72 | 1015.0 |
| 20260903053532 | 18 | 233 | 4.8 | 16.1 | 0.00 | 0.00 | 0.00 | 72 | 1015.0 |
| 20260903053326 | 18 | 221 | 4.8 | 16.1 | 0.00 | 0.00 | 0.00 | 72 | 1015.0 |
| 20260903053226 | 18 | 239 | 4.8 | 16.1 | 0.00 | 0.00 | 0.00 | 72 | 1014.9 |
| 20260903053127 | 18 | 266 | 4.8 | 16.1 | 0.00 | 0.00 | 0.00 | 72 | 1014.9 |
| 20260903053026 | 18 | 223 | 4.8 | 16.1 | 0.00 | 0.00 | 0.00 | 71 | 1015.0 |
| 20260903052931 | 18 | 228 | 6.4 | 16.1 | 0.00 | 0.00 | 0.00 | 71 | 1015.0 |
| 20260903052920 | 18 | 225 | 6.4 | 16.1 | 0.00 | 0.00 | 0.00 | 71 | 1015.0 |
| 20260903052839 | 18 | 253 | 6.4 | 16.1 | 0.00 | 0.00 | 0.00 | 71 | 1014.9 |
| 20260903052835 | 18 | 218 | 6.4 | 16.1 | 0.00 | 0.00 | 0.00 | 71 | 1014.9 |
| 20260903052627 | 18 | 239 | 6.4 | 16.1 | 0.00 | 0.00 | 0.00 | 71 | 1015.0 |
| 20260903052526 | 18 | 222 | 4.8 | 16.1 | 0.00 | 0.00 | 0.00 | 71 | 1015.0 |
| 20260903052446 | 18 | 259 | 6.4 | 19.3 | 0.00 | 0.00 | 0.00 | 70 | 1015.0 |
| 20260903052432 | 18 | 263 | 6.4 | 19.3 | 0.00 | 0.00 | 0.00 | 71 | 1015.0 |
| 20260903052226 | 18 | 239 | 4.8 | 19.3 | 0.00 | 0.00 | 0.00 | 70 | 1015.0 |
| 20260903052135 | 18 | 288 | 6.4 | 19.3 | 0.00 | 0.00 | 0.00 | 70 | 1015.0 |
| 20260903052123 | 18 | 238 | 4.8 | 19.3 | 0.00 | 0.00 | 0.00 | 70 | 1015.0 |
| 20260903052022 | 18 | 246 | 6.4 | 19.3 | 0.00 | 0.00 | 0.00 | 70 | 1015.0 |
| 20260903051927 | 18 | 270 | 6.4 | 19.3 | 0.00 | 0.00 | 0.00 | 70 | 1015.0 |
| 20260903051820 | 18 | 250 | 4.8 | 19.3 | 0.00 | 0.00 | 0.00 | 70 | 1015.0 |
| 20260903051720 | 18 | 224 | 4.8 | 19.3 | 0.00 | 0.00 | 0.00 | 69 | 1014.9 |
| 20260903051621 | 18 | 233 | 4.8 | 19.3 | 0.00 | 0.00 | 0.00 | 69 | 1015.0 |
| 20260903051520 | 18 | 249 | 4.8 | 19.3 | 0.00 | 0.00 | 0.00 | 69 | 1015.0 |
| 20260903051437 | 18 | 233 | 4.8 | 14.5 | 0.00 | 0.00 | 0.00 | 69 | 1014.9 |
| 20260903051426 | 18 | 225 | 4.8 | 14.5 | 0.00 | 0.00 | 0.00 | 69 | 1014.9 |
| 20260903051320 | 18 | 248 | 4.8 | 14.5 | 0.00 | 0.00 | 0.00 | 68 | 1014.9 |
| 20260903051221 | 18 | 257 | 4.8 | 14.5 | 0.00 | 0.00 | 0.00 | 68 | 1015.0 |
| 20260903051120 | 18 | 250 | 4.8 | 14.5 | 0.00 | 0.00 | 0.00 | 68 | 1015.0 |
| 20260903051020 | 18 | 263 | 4.8 | 14.5 | 0.00 | 0.00 | 0.00 | 68 | 1015.0 |
| 20260903050924 | 18 | 267 | 4.8 | 14.5 | 0.00 | 0.00 | 0.00 | 68 | 1015.0 |
| 20260903050913 | 18 | 212 | 4.8 | 14.5 | 0.00 | 0.00 | 0.00 | 68 | 1015.0 |
| 20260903050820 | 18 | 253 | 4.8 | 14.5 | 0.00 | 0.00 | 0.00 | 67 | 1015.0 |
| 20260903050733 | 18 | 236 | 4.8 | 12.9 | 0.00 | 0.00 | 0.00 | 67 | 1015.0 |
| 20260903050635 | 18 | 211 | 4.8 | 16.1 | 0.00 | 0.00 | 0.00 | 67 | 1015.0 |
| 20260903050621 | 18 | 280 | 4.8 | 16.1 | 0.00 | 0.00 | 0.00 | 67 | 1015.0 |
| 20260903050521 | 18 | 283 | 4.8 | 16.1 | 0.00 | 0.00 | 0.00 | 67 | 1015.1 |
| 20260903050426 | 18 | 250 | 4.8 | 16.1 | 0.00 | 0.00 | 0.00 | 67 | 1015.0 |
| 20260903050419 | 18 | 211 | 4.8 | 16.1 | 0.00 | 0.00 | 0.00 | 67 | 1015.0 |
| 20260903050318 | 18 | 219 | 6.4 | 16.1 | 0.00 | 0.00 | 0.00 | 67 | 1015.0 |
| 20260903050218 | 18 | 225 | 6.4 | 16.1 | 0.00 | 0.00 | 0.00 | 66 | 1015.0 |
| 20260903050118 | 18 | 223 | 6.4 | 16.1 | 0.00 | 0.00 | 0.00 | 66 | 1015.0 |
| 20260903050018 | 18 | 240 | 6.4 | 16.1 | 0.00 | 0.00 | 0.00 | 66 | 1015.0 |
| 20260903045924 | 18 | 248 | 6.4 | 16.1 | 0.00 | 0.00 | 0.00 | 66 | 1015.0 |
| 20260903045913 | 18 | 240 | 6.4 | 16.1 | 0.00 | 0.00 | 0.00 | 66 | 1015.0 |
| 20260903045858 | 19 | 253 | 6.4 | 16.1 | 0.00 | 0.00 | 0.00 | 65 | 1015.0 |
| 20260903045818 | 19 | 246 | 6.4 | 16.1 | 0.00 | 0.00 | 0.00 | 66 | 1015.1 |
| 20260903045718 | 19 | 269 | 6.4 | 16.1 | 0.00 | 0.00 | 0.00 | 66 | 1015.0 |
| 20260903045643 | 19 | 253 | 6.4 | 16.1 | 0.00 | 0.00 | 0.00 | 65 | 1015.0 |
| 20260903045619 | 19 | 260 | 6.4 | 16.1 | 0.00 | 0.00 | 0.00 | 66 | 1015.0 |
| 20260903045518 | 19 | 253 | 6.4 | 16.1 | 0.00 | 0.00 | 0.00 | 65 | 1015.0 |
| 20260903045454 | 19 | 253 | 6.4 | 16.1 | 0.00 | 0.00 | 0.00 | 65 | 1015.0 |
| 20260903045322 | 19 | 267 | 4.8 | 16.1 | 0.00 | 0.00 | 0.00 | 65 | 1015.0 |
| 20260903045219 | 19 | 224 | 4.8 | 16.1 | 0.00 | 0.00 | 0.00 | 65 | 1015.0 |
| 20260903045149 | 19 | 263 | 4.8 | 16.1 | 0.00 | 0.00 | 0.00 | 65 | 1015.0 |
| 20260903045119 | 19 | 228 | 4.8 | 16.1 | 0.00 | 0.00 | 0.00 | 65 | 1015.0 |
| 20260903045013 | 19 | 256 | 4.8 | 16.1 | 0.00 | 0.00 | 0.00 | 65 | 1015.0 |
| 20260903044923 | 19 | 263 | 4.8 | 16.1 | 0.00 | 0.00 | 0.00 | 65 | 1015.0 |
| 20260903044912 | 19 | 236 | 4.8 | 16.1 | 0.00 | 0.00 | 0.00 | 65 | 1015.0 |
| 20260903044812 | 19 | 228 | 4.8 | 16.1 | 0.00 | 0.00 | 0.00 | 65 | 1015.0 |
| 20260903044712 | 19 | 230 | 4.8 | 16.1 | 0.00 | 0.00 | 0.00 | 65 | 1015.0 |
| 20260903044613 | 19 | 266 | 4.8 | 16.1 | 0.00 | 0.00 | 0.00 | 65 | 1015.0 |
| 20260903044512 | 19 | 200 | 4.8 | 16.1 | 0.00 | 0.00 | 0.00 | 65 | 1015.0 |
| 20260903044418 | 19 | 284 | 4.8 | 16.1 | 0.00 | 0.00 | 0.00 | 64 | 1014.9 |
| 20260903044412 | 19 | 282 | 4.8 | 16.1 | 0.00 | 0.00 | 0.00 | 64 | 1014.9 |
| 20260903044312 | 19 | 228 | 3.2 | 16.1 | 0.00 | 0.00 | 0.00 | 64 | 1015.0 |
| 20260903044226 | 19 | 208 | 4.8 | 12.9 | 0.00 | 0.00 | 0.00 | 64 | 1014.9 |
| 20260903044222 | 19 | 266 | 4.8 | 11.3 | 0.00 | 0.00 | 0.00 | 64 | 1014.9 |
| 20260903044012 | 19 | 228 | 4.8 | 12.9 | 0.00 | 0.00 | 0.00 | 64 | 1014.9 |
| 20260903043920 | 19 | 250 | 4.8 | 12.9 | 0.00 | 0.00 | 0.00 | 64 | 1014.8 |
| 20260903043912 | 19 | 257 | 4.8 | 12.9 | 0.00 | 0.00 | 0.00 | 64 | 1014.8 |
| 20260903043813 | 19 | 235 | 4.8 | 12.9 | 0.00 | 0.00 | 0.00 | 64 | 1014.9 |
| 20260903043712 | 19 | 240 | 4.8 | 12.9 | 0.00 | 0.00 | 0.00 | 64 | 1014.9 |
| 20260903043613 | 19 | 248 | 4.8 | 16.1 | 0.00 | 0.00 | 0.00 | 64 | 1014.9 |
| 20260903043513 | 20 | 232 | 4.8 | 16.1 | 0.00 | 0.00 | 0.00 | 64 | 1014.9 |
| 20260903043418 | 20 | 259 | 4.8 | 16.1 | 0.00 | 0.00 | 0.00 | 64 | 1014.9 |
| 20260903043412 | 20 | 260 | 6.4 | 16.1 | 0.00 | 0.00 | 0.00 | 64 | 1014.9 |
| 20260903043313 | 20 | 236 | 6.4 | 16.1 | 0.00 | 0.00 | 0.00 | 64 | 1014.8 |
| 20260903043210 | 20 | 250 | 6.4 | 16.1 | 0.00 | 0.00 | 0.00 | 64 | 1014.8 |
| 20260903043111 | 20 | 253 | 6.4 | 16.1 | 0.00 | 0.00 | 0.00 | 64 | 1014.9 |
| 20260903043010 | 20 | 259 | 6.4 | 16.1 | 0.00 | 0.00 | 0.00 | 64 | 1014.9 |
| 20260903042916 | 20 | 259 | 6.4 | 16.1 | 0.00 | 0.00 | 0.00 | 64 | 1014.9 |
| 20260903042910 | 20 | 260 | 6.4 | 16.1 | 0.00 | 0.00 | 0.00 | 64 | 1014.9 |
| 20260903042810 | 20 | 281 | 8.0 | 16.1 | 0.00 | 0.00 | 0.00 | 64 | 1014.9 |
| 20260903042710 | 20 | 264 | 6.4 | 16.1 | 0.00 | 0.00 | 0.00 | 64 | 1014.9 |
| 20260903042612 | 20 | 273 | 6.4 | 16.1 | 0.00 | 0.00 | 0.00 | 64 | 1014.9 |
| 20260903042510 | 20 | 256 | 6.4 | 16.1 | 0.00 | 0.00 | 0.00 | 64 | 1015.0 |
| 20260903042428 | 20 | 257 | 6.4 | 16.1 | 0.00 | 0.00 | 0.00 | 63 | 1015.0 |
| 20260903042410 | 20 | 253 | 6.4 | 16.1 | 0.00 | 0.00 | 0.00 | 63 | 1014.9 |
| 20260903042310 | 20 | 218 | 6.4 | 14.5 | 0.00 | 0.00 | 0.00 | 63 | 1015.0 |
| 20260903042210 | 20 | 236 | 6.4 | 14.5 | 0.00 | 0.00 | 0.00 | 63 | 1015.0 |
| 20260903042111 | 20 | 236 | 6.4 | 14.5 | 0.00 | 0.00 | 0.00 | 63 | 1014.9 |
| 20260903042010 | 20 | 255 | 6.4 | 14.5 | 0.00 | 0.00 | 0.00 | 63 | 1015.0 |
| 20260903041916 | 20 | 241 | 6.4 | 14.5 | 0.00 | 0.00 | 0.00 | 63 | 1015.0 |
| 20260903041911 | 20 | 240 | 6.4 | 14.5 | 0.00 | 0.00 | 0.00 | 63 | 1014.9 |
| 20260903041810 | 20 | 245 | 6.4 | 14.5 | 0.00 | 0.00 | 0.00 | 63 | 1014.9 |
| 20260903041710 | 20 | 214 | 6.4 | 14.5 | 0.00 | 0.00 | 0.00 | 63 | 1014.9 |
| 20260903041610 | 20 | 256 | 6.4 | 14.5 | 0.00 | 0.00 | 0.00 | 63 | 1014.9 |
| 20260903041511 | 20 | 239 | 6.4 | 14.5 | 0.00 | 0.00 | 0.00 | 63 | 1014.9 |
| 20260903041426 | 20 | 232 | 6.4 | 14.5 | 0.00 | 0.00 | 0.00 | 63 | 1014.9 |
| 20260903041408 | 20 | 215 | 6.4 | 14.5 | 0.00 | 0.00 | 0.00 | 63 | 1014.9 |
| 20260903041308 | 20 | 226 | 6.4 | 14.5 | 0.00 | 0.00 | 0.00 | 63 | 1014.9 |
| 20260903041209 | 20 | 239 | 6.4 | 14.5 | 0.00 | 0.00 | 0.00 | 63 | 1014.9 |
| 20260903041110 | 20 | 246 | 6.4 | 14.5 | 0.00 | 0.00 | 0.00 | 63 | 1014.9 |
| 20260903041008 | 20 | 228 | 6.4 | 14.5 | 0.00 | 0.00 | 0.00 | 63 | 1014.8 |
| 20260903040913 | 20 | 242 | 6.4 | 14.5 | 0.00 | 0.00 | 0.00 | 63 | 1014.8 |
| 20260903040908 | 20 | 236 | 6.4 | 14.5 | 0.00 | 0.00 | 0.00 | 63 | 1014.8 |
| 20260903040808 | 20 | 201 | 6.4 | 14.5 | 0.00 | 0.00 | 0.00 | 63 | 1014.8 |
| 20260903040708 | 20 | 218 | 4.8 | 14.5 | 0.00 | 0.00 | 0.00 | 63 | 1014.7 |
| 20260903040642 | 20 | 245 | 4.8 | 14.5 | 0.00 | 0.00 | 0.00 | 63 | 1014.7 |
| 20260903040611 | 20 | 264 | 4.8 | 14.5 | 0.00 | 0.00 | 0.00 | 63 | 1014.8 |
| 20260903040532 | 20 | 238 | 4.8 | 14.5 | 0.00 | 0.00 | 0.00 | 63 | 1014.7 |
| 20260903040409 | 20 | 253 | 4.8 | 14.5 | 0.00 | 0.00 | 0.00 | 63 | 1014.7 |
| 20260903040309 | 20 | 256 | 4.8 | 12.9 | 0.00 | 0.00 | 0.00 | 62 | 1014.7 |
| 20260903040208 | 20 | 222 | 4.8 | 12.9 | 0.00 | 0.00 | 0.00 | 62 | 1014.7 |
| 20260903040109 | 20 | 217 | 4.8 | 12.9 | 0.00 | 0.00 | 0.00 | 62 | 1014.7 |
| 20260903040003 | 20 | 210 | 4.8 | 11.3 | 0.00 | 0.00 | 0.00 | 63 | 1014.7 |
| 20260903035913 | 20 | 269 | 4.8 | 11.3 | 0.00 | 0.00 | 0.00 | 63 | 1014.7 |
| 20260903035903 | 20 | 226 | 4.8 | 11.3 | 0.00 | 0.00 | 0.00 | 63 | 1014.7 |
| 20260903035800 | 20 | 255 | 4.8 | 11.3 | 0.00 | 0.00 | 0.00 | 62 | 1014.6 |
| 20260903035700 | 20 | 239 | 4.8 | 11.3 | 0.00 | 0.00 | 0.00 | 62 | 1014.6 |
| 20260903035605 | 20 | 250 | 4.8 | 12.9 | 0.00 | 0.00 | 0.00 | 62 | 1014.6 |
| 20260903035500 | 20 | 256 | 4.8 | 12.9 | 0.00 | 0.00 | 0.00 | 62 | 1014.6 |
| 20260903035414 | 20 | 212 | 4.8 | 12.9 | 0.00 | 0.00 | 0.00 | 62 | 1014.6 |
| 20260903035400 | 20 | 193 | 4.8 | 12.9 | 0.00 | 0.00 | 0.00 | 62 | 1014.6 |
| 20260903035300 | 20 | 239 | 4.8 | 16.1 | 0.00 | 0.00 | 0.00 | 62 | 1014.6 |
| 20260903035200 | 20 | 239 | 4.8 | 16.1 | 0.00 | 0.00 | 0.00 | 62 | 1014.5 |
| 20260903035112 | 21 | 257 | 4.8 | 16.1 | 0.00 | 0.00 | 0.00 | 62 | 1014.5 |
| 20260903035108 | 21 | 274 | 4.8 | 16.1 | 0.00 | 0.00 | 0.00 | 62 | 1014.5 |
| 20260903034911 | 21 | 243 | 4.8 | 16.1 | 0.00 | 0.00 | 0.00 | 62 | 1014.4 |
| 20260903034858 | 21 | 232 | 4.8 | 16.1 | 0.00 | 0.00 | 0.00 | 62 | 1014.4 |
| 20260903034758 | 21 | 250 | 4.8 | 16.1 | 0.00 | 0.00 | 0.00 | 62 | 1014.5 |
| 20260903034658 | 21 | 232 | 4.8 | 16.1 | 0.00 | 0.00 | 0.00 | 62 | 1014.4 |
| 20260903034558 | 21 | 233 | 4.8 | 16.1 | 0.00 | 0.00 | 0.00 | 62 | 1014.5 |
| 20260903034456 | 21 | 280 | 4.8 | 16.1 | 0.00 | 0.00 | 0.00 | 61 | 1014.4 |
| 20260903034408 | 21 | 235 | 4.8 | 16.1 | 0.00 | 0.00 | 0.00 | 61 | 1014.4 |
| 20260903034402 | 21 | 238 | 3.2 | 12.9 | 0.00 | 0.00 | 0.00 | 61 | 1014.4 |
| 20260903034356 | 21 | 221 | 4.8 | 16.1 | 0.00 | 0.00 | 0.00 | 61 | 1014.4 |
| 20260903034256 | 21 | 239 | 4.8 | 12.9 | 0.00 | 0.00 | 0.00 | 61 | 1014.4 |
| 20260903034246 | 21 | 232 | 3.2 | 12.9 | 0.00 | 0.00 | 0.00 | 61 | 1014.3 |
| 20260903034054 | 21 | 263 | 3.2 | 12.9 | 0.00 | 0.00 | 0.00 | 61 | 1014.3 |
| 20260903034018 | 21 | 262 | 3.2 | 12.9 | 0.00 | 0.00 | 0.00 | 61 | 1014.4 |
| 20260903033854 | 21 | 246 | 3.2 | 12.9 | 0.00 | 0.00 | 0.00 | 61 | 1014.4 |
| 20260903033752 | 21 | 241 | 3.2 | 12.9 | 0.00 | 0.00 | 0.00 | 61 | 1014.3 |
| 20260903033653 | 21 | 222 | 3.2 | 12.9 | 0.00 | 0.00 | 0.00 | 61 | 1014.2 |
| 20260903033552 | 21 | 230 | 1.6 | 12.9 | 0.00 | 0.00 | 0.00 | 61 | 1014.3 |
| 20260903033452 | 21 | 243 | 1.6 | 8.0 | 0.00 | 0.00 | 0.00 | 61 | 1014.3 |
| 20260903033408 | 21 | 246 | 1.6 | 8.0 | 0.00 | 0.00 | 0.00 | 61 | 1014.2 |
| 20260903033355 | 21 | 253 | 1.6 | 8.0 | 0.00 | 0.00 | 0.00 | 61 | 1014.2 |
| 20260903033346 | 21 | 229 | 1.6 | 9.7 | 0.00 | 0.00 | 0.00 | 60 | 1014.2 |
| 20260903033252 | 21 | 231 | 1.6 | 8.0 | 0.00 | 0.00 | 0.00 | 60 | 1014.2 |
| 20260903033238 | 21 | 225 | 1.6 | 8.0 | 0.00 | 0.00 | 0.00 | 60 | 1014.2 |
| 20260903033049 | 21 | 256 | 1.6 | 8.0 | 0.00 | 0.00 | 0.00 | 60 | 1014.2 |
| 20260903033019 | 21 | 250 | 1.6 | 8.0 | 0.00 | 0.00 | 0.00 | 60 | 1014.2 |
| 20260903032846 | 21 | 235 | 1.6 | 9.7 | 0.00 | 0.00 | 0.00 | 60 | 1014.2 |
| 20260903032747 | 21 | 239 | 1.6 | 9.7 | 0.00 | 0.00 | 0.00 | 60 | 1014.2 |
| 20260903032647 | 21 | 204 | 1.6 | 9.7 | 0.00 | 0.00 | 0.00 | 60 | 1014.2 |
| 20260903032551 | 21 | 204 | 1.6 | 9.7 | 0.00 | 0.00 | 0.00 | 59 | 1014.1 |
| 20260903032444 | 21 | 246 | 1.6 | 9.7 | 0.00 | 0.00 | 0.00 | 59 | 1014.1 |
| 20260903032407 | 21 | 246 | 1.6 | 9.7 | 0.00 | 0.00 | 0.00 | 59 | 1014.1 |
| 20260903032344 | 21 | 245 | 1.6 | 9.7 | 0.00 | 0.00 | 0.00 | 59 | 1014.1 |
| 20260903032244 | 21 | 228 | 3.2 | 9.7 | 0.00 | 0.00 | 0.00 | 59 | 1014.1 |
| 20260903032145 | 21 | 242 | 3.2 | 9.7 | 0.00 | 0.00 | 0.00 | 59 | 1014.2 |
| 20260903032044 | 21 | 241 | 3.2 | 9.7 | 0.00 | 0.00 | 0.00 | 59 | 1014.1 |
| 20260903031945 | 21 | 238 | 3.2 | 9.7 | 0.00 | 0.00 | 0.00 | 59 | 1014.1 |
| 20260903031918 | 21 | 248 | 3.2 | 9.7 | 0.00 | 0.00 | 0.00 | 59 | 1014.1 |
| 20260903031844 | 21 | 267 | 3.2 | 9.7 | 0.00 | 0.00 | 0.00 | 59 | 1014.1 |
| 20260903031744 | 21 | 233 | 3.2 | 9.7 | 0.00 | 0.00 | 0.00 | 58 | 1014.1 |
| 20260903031645 | 21 | 232 | 3.2 | 9.7 | 0.00 | 0.00 | 0.00 | 58 | 1014.1 |
| 20260903031542 | 21 | 269 | 3.2 | 9.7 | 0.00 | 0.00 | 0.00 | 58 | 1014.0 |
| 20260903031442 | 21 | 290 | 3.2 | 8.0 | 0.00 | 0.00 | 0.00 | 58 | 1014.1 |
| 20260903031405 | 21 | 250 | 3.2 | 8.0 | 0.00 | 0.00 | 0.00 | 58 | 1014.0 |
| 20260903031342 | 21 | 233 | 3.2 | 8.0 | 0.00 | 0.00 | 0.00 | 58 | 1014.0 |
| 20260903031240 | 21 | 228 | 1.6 | 8.0 | 0.00 | 0.00 | 0.00 | 58 | 1014.0 |
| 20260903031140 | 21 | 257 | 1.6 | 6.4 | 0.00 | 0.00 | 0.00 | 57 | 1014.1 |
| 20260903031040 | 21 | 230 | 1.6 | 9.7 | 0.00 | 0.00 | 0.00 | 57 | 1014.0 |
| 20260903030940 | 21 | 246 | 1.6 | 9.7 | 0.00 | 0.00 | 0.00 | 57 | 1014.0 |
| 20260903030905 | 21 | 248 | 3.2 | 9.7 | 0.00 | 0.00 | 0.00 | 57 | 1014.0 |
| 20260903030840 | 21 | 246 | 3.2 | 9.7 | 0.00 | 0.00 | 0.00 | 57 | 1014.0 |
| 20260903030740 | 21 | 235 | 3.2 | 9.7 | 0.00 | 0.00 | 0.00 | 57 | 1014.0 |
| 20260903030642 | 21 | 266 | 3.2 | 9.7 | 0.00 | 0.00 | 0.00 | 56 | 1014.0 |
| 20260903030637 | 21 | 233 | 3.2 | 9.7 | 0.00 | 0.00 | 0.00 | 57 | 1014.0 |
| 20260903030535 | 21 | 239 | 3.2 | 9.7 | 0.00 | 0.00 | 0.00 | 56 | 1014.0 |
| 20260903030527 | 21 | 266 | 3.2 | 9.7 | 0.00 | 0.00 | 0.00 | 56 | 1014.0 |
| 20260903030335 | 21 | 286 | 3.2 | 9.7 | 0.00 | 0.00 | 0.00 | 56 | 1014.0 |
| 20260903030234 | 21 | 240 | 3.2 | 9.7 | 0.00 | 0.00 | 0.00 | 56 | 1014.0 |
| 20260903030217 | 22 | 287 | 1.6 | 11.3 | 0.00 | 0.00 | 0.00 | 55 | 1014.0 |
| 20260903030212 | 22 | 216 | 1.6 | 6.4 | 0.00 | 0.00 | 0.00 | 55 | 1014.0 |
| 20260903030209 | 21 | 243 | 3.2 | 9.7 | 0.00 | 0.00 | 0.00 | 56 | 1014.0 |
| 20260903030200 | 21 | 233 | 3.2 | 9.7 | 0.00 | 0.00 | 0.00 | 56 | 1014.0 |
| 20260903030152 | 21 | 235 | 3.2 | 11.3 | 0.00 | 0.00 | 0.00 | 56 | 1014.0 |
| 20260903030142 | 21 | 232 | 3.2 | 11.3 | 0.00 | 0.00 | 0.00 | 56 | 1014.0 |
| 20260903030136 | 21 | 252 | 3.2 | 11.3 | 0.00 | 0.00 | 0.00 | 56 | 1014.0 |
| 20260903030127 | 21 | 235 | 3.2 | 11.3 | 0.00 | 0.00 | 0.00 | 55 | 1014.0 |
| 20260903030119 | 22 | 253 | 3.2 | 11.3 | 0.00 | 0.00 | 0.00 | 55 | 1014.0 |
| 20260903030107 | 22 | 262 | 3.2 | 11.3 | 0.00 | 0.00 | 0.00 | 55 | 1014.0 |
| 20260903030057 | 22 | 238 | 3.2 | 11.3 | 0.00 | 0.00 | 0.00 | 55 | 1014.1 |
| 20260903030046 | 22 | 238 | 1.6 | 11.3 | 0.00 | 0.00 | 0.00 | 55 | 1014.0 |
| 20260903030028 | 22 | 315 | 1.6 | 11.3 | 0.00 | 0.00 | 0.00 | 55 | 1014.0 |
| 20260903030020 | 22 | 245 | 1.6 | 11.3 | 0.00 | 0.00 | 0.00 | 55 | 1014.1 |
| 20260903030011 | 22 | 236 | 1.6 | 11.3 | 0.00 | 0.00 | 0.00 | 55 | 1014.0 |
| 20260903025012 | 22 | 274 | 1.6 | 6.4 | 0.00 | 0.00 | 0.00 | 55 | 1014.1 |
| 20260903024830 | 22 | 219 | 1.6 | 6.4 | 0.00 | 0.00 | 0.00 | 55 | 1014.0 |
| 20260903024729 | 22 | 242 | 1.6 | 8.0 | 0.00 | 0.00 | 0.00 | 54 | 1014.0 |
| 20260903024629 | 22 | 233 | 1.6 | 9.7 | 0.00 | 0.00 | 0.00 | 54 | 1014.1 |
| 20260903024528 | 22 | 210 | 1.6 | 9.7 | 0.00 | 0.00 | 0.00 | 54 | 1014.1 |
| 20260903024428 | 22 | 253 | 1.6 | 9.7 | 0.00 | 0.00 | 0.00 | 54 | 1014.0 |
| 20260903024402 | 22 | 252 | 1.6 | 9.7 | 0.00 | 0.00 | 0.00 | 54 | 1014.0 |
| 20260903024326 | 22 | 300 | 1.6 | 9.7 | 0.00 | 0.00 | 0.00 | 54 | 1014.0 |
| 20260903024226 | 22 | 300 | 3.2 | 12.9 | 0.00 | 0.00 | 0.00 | 54 | 1014.1 |
| 20260903024131 | 22 | 260 | 3.2 | 12.9 | 0.00 | 0.00 | 0.00 | 54 | 1014.0 |
| 20260903024024 | 22 | 244 | 3.2 | 12.9 | 0.00 | 0.00 | 0.00 | 54 | 1014.0 |
| 20260903023925 | 22 | 194 | 3.2 | 12.9 | 0.00 | 0.00 | 0.00 | 54 | 1014.0 |
| 20260903023859 | 22 | 250 | 3.2 | 12.9 | 0.00 | 0.00 | 0.00 | 54 | 1014.1 |
| 20260903023848 | 22 | 47 | 3.2 | 12.9 | 0.00 | 0.00 | 0.00 | 53 | 1014.1 |
| 20260903023825 | 22 | 266 | 3.2 | 12.9 | 0.00 | 0.00 | 0.00 | 54 | 1014.1 |
| 20260903023734 | 22 | 246 | 3.2 | 12.9 | 0.00 | 0.00 | 0.00 | 53 | 1014.0 |
| 20260903023618 | 22 | 274 | 3.2 | 12.9 | 0.00 | 0.00 | 0.00 | 53 | 1014.0 |
| 20260903023518 | 22 | 232 | 3.2 | 12.9 | 0.00 | 0.00 | 0.00 | 53 | 1014.0 |
| 20260903023446 | 22 | 252 | 3.2 | 12.9 | 0.00 | 0.00 | 0.00 | 53 | 1014.1 |
| 20260903023401 | 22 | 47 | 3.2 | 12.9 | 0.00 | 0.00 | 0.00 | 53 | 1014.1 |
| 20260903023318 | 22 | 273 | 3.2 | 12.9 | 0.00 | 0.00 | 0.00 | 53 | 1014.1 |
| 20260903023218 | 22 | 225 | 3.2 | 8.0 | 0.00 | 0.00 | 0.00 | 53 | 1014.1 |
| 20260903023119 | 22 | 243 | 3.2 | 8.0 | 0.00 | 0.00 | 0.00 | 53 | 1014.0 |
| 20260903023018 | 22 | 249 | 3.2 | 12.9 | 0.00 | 0.00 | 0.00 | 53 | 1014.0 |
| 20260903022918 | 22 | 278 | 3.2 | 12.9 | 0.00 | 0.00 | 0.00 | 53 | 1014.1 |
| 20260903022857 | 22 | 246 | 3.2 | 12.9 | 0.00 | 0.00 | 0.00 | 53 | 1014.1 |
| 20260903022818 | 22 | 245 | 3.2 | 12.9 | 0.00 | 0.00 | 0.00 | 53 | 1014.1 |
| 20260903022718 | 22 | 270 | 3.2 | 12.9 | 0.00 | 0.00 | 0.00 | 53 | 1014.0 |
| 20260903022619 | 22 | 221 | 3.2 | 12.9 | 0.00 | 0.00 | 0.00 | 53 | 1014.1 |
| 20260903022512 | 22 | 245 | 3.2 | 12.9 | 0.00 | 0.00 | 0.00 | 53 | 1014.0 |
| 20260903022413 | 22 | 226 | 3.2 | 12.9 | 0.00 | 0.00 | 0.00 | 53 | 1014.1 |
| 20260903022357 | 22 | 226 | 3.2 | 12.9 | 0.00 | 0.00 | 0.00 | 53 | 1014.1 |
| 20260903022312 | 22 | 262 | 3.2 | 12.9 | 0.00 | 0.00 | 0.00 | 53 | 1014.1 |
| 20260903022212 | 22 | 237 | 3.2 | 12.9 | 0.00 | 0.00 | 0.00 | 53 | 1014.1 |
| 20260903022113 | 22 | 226 | 1.6 | 12.9 | 0.00 | 0.00 | 0.00 | 53 | 1014.1 |
| 20260903022012 | 22 | 274 | 1.6 | 9.7 | 0.00 | 0.00 | 0.00 | 53 | 1014.1 |
| 20260903022003 | 22 | 225 | 3.2 | 9.7 | 0.00 | 0.00 | 0.00 | 53 | 1014.1 |
| 20260903021959 | 22 | 262 | 3.2 | 8.0 | 0.00 | 0.00 | 0.00 | 53 | 1014.1 |
| 20260903021949 | 22 | 228 | 3.2 | 8.0 | 0.00 | 0.00 | 0.00 | 53 | 1014.1 |
| 20260903021828 | 22 | 225 | 3.2 | 9.7 | 0.00 | 0.00 | 0.00 | 53 | 1014.1 |
| 20260903021723 | 22 | 226 | 1.6 | 9.7 | 0.00 | 0.00 | 0.00 | 53 | 1014.1 |
| 20260903021612 | 22 | 294 | 1.6 | 9.7 | 0.00 | 0.00 | 0.00 | 52 | 1014.1 |
| 20260903021511 | 22 | 224 | 1.6 | 9.7 | 0.00 | 0.00 | 0.00 | 52 | 1014.1 |
| 20260903021409 | 22 | 260 | 1.6 | 9.7 | 0.00 | 0.00 | 0.00 | 52 | 1014.1 |
| 20260903021355 | 22 | 243 | 1.6 | 9.7 | 0.00 | 0.00 | 0.00 | 52 | 1014.1 |
| 20260903021308 | 22 | 245 | 1.6 | 9.7 | 0.00 | 0.00 | 0.00 | 53 | 1014.1 |
| 20260903021208 | 22 | 256 | 1.6 | 9.7 | 0.00 | 0.00 | 0.00 | 52 | 1014.1 |
| 20260903021109 | 22 | 211 | 1.6 | 9.7 | 0.00 | 0.00 | 0.00 | 52 | 1014.2 |
| 20260903021008 | 22 | 243 | 1.6 | 9.7 | 0.00 | 0.00 | 0.00 | 52 | 1014.2 |
| 20260903020910 | 22 | 243 | 1.6 | 9.7 | 0.00 | 0.00 | 0.00 | 52 | 1014.2 |
| 20260903020902 | 23 | 217 | 6.4 | 16.1 | 0.00 | 0.00 | 0.00 | 53 | 1014.2 |
| 20260903020855 | 22 | 229 | 1.6 | 9.7 | 0.00 | 0.00 | 0.00 | 52 | 1014.2 |
| 20260903020804 | 22 | 218 | 1.6 | 6.4 | 0.00 | 0.00 | 0.00 | 52 | 1014.1 |
| 20260903020752 | 23 | 232 | 4.8 | 14.5 | 0.00 | 0.00 | 0.00 | 53 | 1014.2 |
| 20260903020747 | 22 | 246 | 1.6 | 6.4 | 0.00 | 0.00 | 0.00 | 52 | 1014.1 |
| 20260903020634 | 22 | 231 | 1.6 | 6.4 | 0.00 | 0.00 | 0.00 | 52 | 1014.2 |
| 20260903020518 | 22 | 235 | 1.6 | 6.4 | 0.00 | 0.00 | 0.00 | 53 | 1014.2 |
| 20260903020509 | 23 | 218 | 1.6 | 9.7 | 0.00 | 0.00 | 0.00 | 53 | 1014.1 |
| 20260903020458 | 23 | 198 | 1.6 | 9.7 | 0.00 | 0.00 | 0.00 | 53 | 1014.1 |
| 20260903020349 | 23 | 291 | 3.2 | 11.3 | 0.00 | 0.00 | 0.00 | 52 | 1014.1 |
| 20260903020340 | 23 | 291 | 3.2 | 11.3 | 0.00 | 0.00 | 0.00 | 52 | 1014.2 |
| 20260903020332 | 23 | 291 | 4.8 | 11.3 | 0.00 | 0.00 | 0.00 | 53 | 1014.2 |
| 20260903020323 | 23 | 245 | 4.8 | 14.5 | 0.00 | 0.00 | 0.00 | 53 | 1014.2 |
| 20260903020315 | 23 | 232 | 4.8 | 14.5 | 0.00 | 0.00 | 0.00 | 53 | 1014.2 |
| 20260903015805 | 23 | 232 | 4.8 | 14.5 | 0.00 | 0.00 | 0.00 | 53 | 1014.2 |
| 20260903015733 | 23 | 207 | 6.4 | 14.5 | 0.00 | 0.00 | 0.00 | 53 | 1014.2 |
| 20260903015604 | 23 | 232 | 6.4 | 14.5 | 0.00 | 0.00 | 0.00 | 53 | 1014.2 |
| 20260903015511 | 23 | 263 | 6.4 | 14.5 | 0.00 | 0.00 | 0.00 | 53 | 1014.2 |
| 20260903015502 | 23 | 219 | 6.4 | 16.1 | 0.00 | 0.00 | 0.00 | 53 | 1014.2 |
| 20260903015305 | 23 | 191 | 6.4 | 16.1 | 0.00 | 0.00 | 0.00 | 53 | 1014.2 |
| 20260903015206 | 23 | 241 | 6.4 | 16.1 | 0.00 | 0.00 | 0.00 | 53 | 1014.2 |
| 20260903015111 | 23 | 248 | 6.4 | 16.1 | 0.00 | 0.00 | 0.00 | 54 | 1014.2 |
| 20260903015105 | 23 | 253 | 6.4 | 16.1 | 0.00 | 0.00 | 0.00 | 53 | 1014.3 |
| 20260903015011 | 23 | 259 | 6.4 | 16.1 | 0.00 | 0.00 | 0.00 | 54 | 1014.2 |
| 20260903015002 | 23 | 225 | 6.4 | 16.1 | 0.00 | 0.00 | 0.00 | 54 | 1014.2 |
| 20260903014758 | 23 | 245 | 6.4 | 16.1 | 0.00 | 0.00 | 0.00 | 54 | 1014.2 |
| 20260903014658 | 23 | 267 | 6.4 | 16.1 | 0.00 | 0.00 | 0.00 | 55 | 1014.3 |
| 20260903014618 | 23 | 212 | 4.8 | 16.1 | 0.00 | 0.00 | 0.00 | 55 | 1014.3 |
| 20260903014604 | 23 | 240 | 6.4 | 16.1 | 0.00 | 0.00 | 0.00 | 55 | 1014.3 |
| 20260903014511 | 23 | 222 | 4.8 | 16.1 | 0.00 | 0.00 | 0.00 | 55 | 1014.2 |
| 20260903014502 | 23 | 233 | 4.8 | 16.1 | 0.00 | 0.00 | 0.00 | 55 | 1014.3 |
| 20260903014311 | 23 | 246 | 3.2 | 16.1 | 0.00 | 0.00 | 0.00 | 55 | 1014.3 |
| 20260903014307 | 23 | 246 | 3.2 | 16.1 | 0.00 | 0.00 | 0.00 | 55 | 1014.3 |
| 20260903014054 | 23 | 222 | 3.2 | 16.1 | 0.00 | 0.00 | 0.00 | 55 | 1014.3 |
| 20260903013954 | 23 | 211 | 3.2 | 16.1 | 0.00 | 0.00 | 0.00 | 55 | 1014.3 |
| 20260903013856 | 23 | 232 | 3.2 | 9.7 | 0.00 | 0.00 | 0.00 | 55 | 1014.3 |
| 20260903013819 | 23 | 222 | 3.2 | 11.3 | 0.00 | 0.00 | 0.00 | 55 | 1014.3 |
| 20260903013814 | 23 | 295 | 3.2 | 11.3 | 0.00 | 0.00 | 0.00 | 55 | 1014.3 |
| 20260903013810 | 23 | 239 | 1.6 | 11.3 | 0.00 | 0.00 | 0.00 | 55 | 1014.3 |
| 20260903013452 | 23 | 238 | 4.8 | 12.9 | 0.00 | 0.00 | 0.00 | 55 | 1014.3 |
| 20260903013353 | 23 | 284 | 4.8 | 14.5 | 0.00 | 0.00 | 0.00 | 55 | 1014.3 |
| 20260903013252 | 23 | 221 | 4.8 | 14.5 | 0.00 | 0.00 | 0.00 | 54 | 1014.3 |
| 20260903013153 | 23 | 268 | 4.8 | 14.5 | 0.00 | 0.00 | 0.00 | 54 | 1014.4 |
| 20260903013052 | 23 | 273 | 4.8 | 14.5 | 0.00 | 0.00 | 0.00 | 55 | 1014.3 |
| 20260903012952 | 23 | 250 | 6.4 | 14.5 | 0.00 | 0.00 | 0.00 | 55 | 1014.3 |
| 20260903012854 | 23 | 248 | 6.4 | 14.5 | 0.00 | 0.00 | 0.00 | 55 | 1014.3 |
| 20260903012752 | 23 | 232 | 4.8 | 14.5 | 0.00 | 0.00 | 0.00 | 55 | 1014.3 |
| 20260903012652 | 23 | 225 | 4.8 | 14.5 | 0.00 | 0.00 | 0.00 | 55 | 1014.3 |
| 20260903012552 | 23 | 212 | 4.8 | 14.5 | 0.00 | 0.00 | 0.00 | 54 | 1014.3 |
| 20260903012453 | 23 | 190 | 4.8 | 14.5 | 0.00 | 0.00 | 0.00 | 54 | 1014.3 |
| 20260903012354 | 23 | 259 | 4.8 | 14.5 | 0.00 | 0.00 | 0.00 | 54 | 1014.3 |
| 20260903012251 | 23 | 257 | 3.2 | 14.5 | 0.00 | 0.00 | 0.00 | 54 | 1014.3 |
| 20260903012151 | 23 | 231 | 3.2 | 14.5 | 0.00 | 0.00 | 0.00 | 55 | 1014.3 |
| 20260903012050 | 23 | 281 | 3.2 | 14.5 | 0.00 | 0.00 | 0.00 | 54 | 1014.3 |
| 20260903011950 | 23 | 256 | 3.2 | 14.5 | 0.00 | 0.00 | 0.00 | 54 | 1014.3 |
| 20260903011852 | 23 | 271 | 1.6 | 12.9 | 0.00 | 0.00 | 0.00 | 55 | 1014.3 |
| 20260903011828 | 23 | 235 | 3.2 | 14.5 | 0.00 | 0.00 | 0.00 | 55 | 1014.3 |
| 20260903011750 | 23 | 278 | 3.2 | 12.9 | 0.00 | 0.00 | 0.00 | 55 | 1014.3 |
| 20260903011719 | 23 | 243 | 3.2 | 12.9 | 0.00 | 0.00 | 0.00 | 55 | 1014.3 |
| 20260903011550 | 23 | 228 | 3.2 | 12.9 | 0.00 | 0.00 | 0.00 | 55 | 1014.3 |
| 20260903011504 | 23 | 296 | 3.2 | 14.5 | 0.00 | 0.00 | 0.00 | 55 | 1014.3 |
| 20260903011454 | 23 | 235 | 3.2 | 14.5 | 0.00 | 0.00 | 0.00 | 55 | 1014.3 |
| 20260903011318 | 23 | 280 | 4.8 | 14.5 | 0.00 | 0.00 | 0.00 | 55 | 1014.3 |
| 20260903011147 | 23 | 253 | 4.8 | 14.5 | 0.00 | 0.00 | 0.00 | 55 | 1014.3 |
| 20260903011046 | 23 | 203 | 6.4 | 14.5 | 0.00 | 0.00 | 0.00 | 56 | 1014.3 |
| 20260903010946 | 23 | 233 | 6.4 | 14.5 | 0.00 | 0.00 | 0.00 | 55 | 1014.3 |
| 20260903010846 | 23 | 250 | 6.4 | 14.5 | 0.00 | 0.00 | 0.00 | 55 | 1014.4 |
| 20260903010747 | 23 | 208 | 6.4 | 14.5 | 0.00 | 0.00 | 0.00 | 55 | 1014.4 |
| 20260903010647 | 23 | 217 | 4.8 | 14.5 | 0.00 | 0.00 | 0.00 | 55 | 1014.4 |
| 20260903010546 | 23 | 239 | 4.8 | 14.5 | 0.00 | 0.00 | 0.00 | 55 | 1014.4 |
| 20260903010447 | 23 | 230 | 4.8 | 14.5 | 0.00 | 0.00 | 0.00 | 56 | 1014.3 |
| 20260903010352 | 23 | 229 | 4.8 | 14.5 | 0.00 | 0.00 | 0.00 | 55 | 1014.4 |
| 20260903010347 | 23 | 210 | 4.8 | 14.5 | 0.00 | 0.00 | 0.00 | 55 | 1014.4 |
| 20260903010246 | 23 | 246 | 4.8 | 14.5 | 0.00 | 0.00 | 0.00 | 55 | 1014.4 |
| 20260903010148 | 23 | 239 | 3.2 | 14.5 | 0.00 | 0.00 | 0.00 | 55 | 1014.4 |
| 20260903010042 | 23 | 225 | 3.2 | 14.5 | 0.00 | 0.00 | 0.00 | 55 | 1014.4 |
| 20260903005942 | 24 | 257 | 3.2 | 9.7 | 0.00 | 0.00 | 0.00 | 55 | 1014.4 |
| 20260903005848 | 24 | 230 | 3.2 | 9.7 | 0.00 | 0.00 | 0.00 | 55 | 1014.4 |
| 20260903005842 | 24 | 229 | 3.2 | 9.7 | 0.00 | 0.00 | 0.00 | 55 | 1014.4 |
| 20260903005743 | 24 | 250 | 3.2 | 11.3 | 0.00 | 0.00 | 0.00 | 55 | 1014.4 |
| 20260903005642 | 24 | 250 | 3.2 | 11.3 | 0.00 | 0.00 | 0.00 | 55 | 1014.4 |
| 20260903005540 | 24 | 228 | 3.2 | 11.3 | 0.00 | 0.00 | 0.00 | 55 | 1014.4 |
| 20260903005456 | 24 | 231 | 3.2 | 11.3 | 0.00 | 0.00 | 0.00 | 56 | 1014.4 |
| 20260903005345 | 24 | 225 | 3.2 | 11.3 | 0.00 | 0.00 | 0.00 | 55 | 1014.4 |
| 20260903005340 | 24 | 238 | 3.2 | 11.3 | 0.00 | 0.00 | 0.00 | 55 | 1014.4 |
| 20260903005240 | 24 | 207 | 4.8 | 11.3 | 0.00 | 0.00 | 0.00 | 55 | 1014.4 |
| 20260903005140 | 24 | 235 | 3.2 | 11.3 | 0.00 | 0.00 | 0.00 | 55 | 1014.4 |
| 20260903005103 | 24 | 241 | 3.2 | 11.3 | 0.00 | 0.00 | 0.00 | 55 | 1014.5 |
| 20260903005040 | 24 | 241 | 4.8 | 11.3 | 0.00 | 0.00 | 0.00 | 55 | 1014.4 |
| 20260903004957 | 24 | 231 | 3.2 | 11.3 | 0.00 | 0.00 | 0.00 | 55 | 1014.4 |
| 20260903004840 | 24 | 250 | 3.2 | 11.3 | 0.00 | 0.00 | 0.00 | 55 | 1014.5 |
| 20260903004741 | 24 | 228 | 3.2 | 11.3 | 0.00 | 0.00 | 0.00 | 55 | 1014.5 |
| 20260903004640 | 24 | 239 | 3.2 | 11.3 | 0.00 | 0.00 | 0.00 | 55 | 1014.4 |
| 20260903004541 | 24 | 224 | 3.2 | 11.3 | 0.00 | 0.00 | 0.00 | 55 | 1014.4 |
| 20260903004442 | 24 | 221 | 3.2 | 11.3 | 0.00 | 0.00 | 0.00 | 56 | 1014.4 |
| 20260903004346 | 24 | 246 | 3.2 | 8.0 | 0.00 | 0.00 | 0.00 | 56 | 1014.4 |
| 20260903004341 | 24 | 228 | 3.2 | 8.0 | 0.00 | 0.00 | 0.00 | 56 | 1014.4 |
| 20260903004238 | 24 | 262 | 1.6 | 8.0 | 0.00 | 0.00 | 0.00 | 56 | 1014.4 |
| 20260903004138 | 24 | 286 | 1.6 | 8.0 | 0.00 | 0.00 | 0.00 | 56 | 1014.4 |
| 20260903004038 | 24 | 238 | 1.6 | 8.0 | 0.00 | 0.00 | 0.00 | 56 | 1014.4 |
| 20260903003938 | 24 | 239 | 1.6 | 9.7 | 0.00 | 0.00 | 0.00 | 56 | 1014.4 |
| 20260903003845 | 24 | 236 | 1.6 | 9.7 | 0.00 | 0.00 | 0.00 | 56 | 1014.5 |
| 20260903003838 | 24 | 232 | 1.6 | 9.7 | 0.00 | 0.00 | 0.00 | 56 | 1014.5 |
| 20260903003739 | 24 | 233 | 1.6 | 9.7 | 0.00 | 0.00 | 0.00 | 56 | 1014.5 |
| 20260903003638 | 24 | 210 | 1.6 | 9.7 | 0.00 | 0.00 | 0.00 | 56 | 1014.4 |
| 20260903003605 | 24 | 204 | 3.2 | 12.9 | 0.00 | 0.00 | 0.00 | 56 | 1014.4 |
| 20260903003538 | 24 | 274 | 3.2 | 9.7 | 0.00 | 0.00 | 0.00 | 56 | 1014.5 |
| 20260903003456 | 24 | 249 | 3.2 | 12.9 | 0.00 | 0.00 | 0.00 | 56 | 1014.4 |
| 20260903003337 | 24 | 204 | 3.2 | 12.9 | 0.00 | 0.00 | 0.00 | 56 | 1014.4 |
| 20260903003238 | 24 | 253 | 3.2 | 12.9 | 0.00 | 0.00 | 0.00 | 55 | 1014.4 |
| 20260903003139 | 24 | 231 | 3.2 | 12.9 | 0.00 | 0.00 | 0.00 | 56 | 1014.5 |
| 20260903003039 | 24 | 295 | 3.2 | 12.9 | 0.00 | 0.00 | 0.00 | 56 | 1014.5 |
| 20260903002935 | 24 | 236 | 3.2 | 12.9 | 0.00 | 0.00 | 0.00 | 56 | 1014.4 |
| 20260903002836 | 24 | 150 | 4.8 | 14.5 | 0.00 | 0.00 | 0.00 | 56 | 1014.5 |
| 20260903002832 | 24 | 270 | 3.2 | 12.9 | 0.00 | 0.00 | 0.00 | 56 | 1014.5 |
| 20260903002732 | 24 | 232 | 4.8 | 12.9 | 0.00 | 0.00 | 0.00 | 56 | 1014.5 |
| 20260903002715 | 24 | 226 | 4.8 | 14.5 | 0.00 | 0.00 | 0.00 | 56 | 1014.5 |
| 20260903002539 | 24 | 239 | 4.8 | 14.5 | 0.00 | 0.00 | 0.00 | 57 | 1014.5 |
| 20260903002534 | 24 | 230 | 4.8 | 14.5 | 0.00 | 0.00 | 0.00 | 56 | 1014.5 |
| 20260903002457 | 24 | 239 | 4.8 | 14.5 | 0.00 | 0.00 | 0.00 | 57 | 1014.5 |
| 20260903002330 | 24 | 151 | 4.8 | 14.5 | 0.00 | 0.00 | 0.00 | 56 | 1014.5 |
| 20260903002230 | 24 | 150 | 4.8 | 14.5 | 0.00 | 0.00 | 0.00 | 56 | 1014.5 |
| 20260903002144 | 24 | 197 | 6.4 | 17.7 | 0.00 | 0.00 | 0.00 | 56 | 1014.5 |
| 20260903002138 | 24 | 198 | 6.4 | 17.7 | 0.00 | 0.00 | 0.00 | 56 | 1014.5 |
| 20260903001929 | 24 | 237 | 4.8 | 17.7 | 0.00 | 0.00 | 0.00 | 56 | 1014.6 |
| 20260903001845 | 24 | 140 | 6.4 | 17.7 | 0.00 | 0.00 | 0.00 | 56 | 1014.6 |
| 20260903001828 | 24 | 208 | 6.4 | 17.7 | 0.00 | 0.00 | 0.00 | 56 | 1014.6 |
| 20260903001728 | 24 | 239 | 6.4 | 17.7 | 0.00 | 0.00 | 0.00 | 55 | 1014.5 |
| 20260903001628 | 24 | 231 | 4.8 | 17.7 | 0.00 | 0.00 | 0.00 | 55 | 1014.6 |
| 20260903001610 | 24 | 255 | 4.8 | 17.7 | 0.00 | 0.00 | 0.00 | 55 | 1014.6 |
| 20260903001535 | 24 | 257 | 4.8 | 17.7 | 0.00 | 0.00 | 0.00 | 55 | 1014.6 |
| 20260903001456 | 24 | 250 | 4.8 | 17.7 | 0.00 | 0.00 | 0.00 | 56 | 1014.6 |
| 20260903001328 | 24 | 256 | 4.8 | 17.7 | 0.00 | 0.00 | 0.00 | 55 | 1014.6 |
| 20260903001228 | 24 | 274 | 4.8 | 17.7 | 0.00 | 0.00 | 0.00 | 55 | 1014.6 |
| 20260903001128 | 24 | 252 | 3.2 | 14.5 | 0.00 | 0.00 | 0.00 | 55 | 1014.6 |
| 20260903001028 | 25 | 242 | 3.2 | 14.5 | 0.00 | 0.00 | 0.00 | 55 | 1014.6 |
| 20260903000928 | 25 | 229 | 3.2 | 14.5 | 0.00 | 0.00 | 0.00 | 54 | 1014.6 |
| 20260903000845 | 25 | 218 | 3.2 | 14.5 | 0.00 | 0.00 | 0.00 | 54 | 1014.6 |
| 20260903000827 | 25 | 236 | 3.2 | 14.5 | 0.00 | 0.00 | 0.00 | 54 | 1014.6 |
| 20260903000728 | 25 | 233 | 3.2 | 12.9 | 0.00 | 0.00 | 0.00 | 55 | 1014.6 |
| 20260903000628 | 25 | 229 | 3.2 | 12.9 | 0.00 | 0.00 | 0.00 | 54 | 1014.6 |
| 20260903000612 | 25 | 344 | 3.2 | 14.5 | 0.00 | 0.00 | 0.00 | 54 | 1014.7 |
| 20260903000524 | 25 | 225 | 4.8 | 14.5 | 0.00 | 0.00 | 0.00 | 54 | 1014.7 |
| 20260903000455 | 25 | 223 | 3.2 | 14.5 | 0.00 | 0.00 | 0.00 | 55 | 1014.7 |
| 20260903000325 | 25 | 345 | 3.2 | 14.5 | 0.00 | 0.00 | 0.00 | 54 | 1014.7 |
| 20260903000226 | 25 | 269 | 3.2 | 14.5 | 0.00 | 0.00 | 0.00 | 55 | 1014.7 |
| 20260903000124 | 25 | 246 | 3.2 | 14.5 | 0.00 | 0.00 | 0.00 | 53 | 1014.7 |
| 20260903000022 | 25 | 102 | 3.2 | 14.5 | 0.00 | 0.00 | 0.00 | 53 | 1014.8 |
| 20260902235928 | 25 | 161 | 3.2 | 14.5 | 0.00 | 0.00 | 0.00 | 53 | 1014.7 |
| 20260902235822 | 25 | 236 | 3.2 | 14.5 | 0.00 | 0.00 | 0.00 | 53 | 1014.7 |
| 20260902235722 | 25 | 218 | 3.2 | 14.5 | 0.00 | 0.00 | 0.00 | 53 | 1014.7 |
| 20260902235623 | 25 | 233 | 1.6 | 14.5 | 0.00 | 0.00 | 0.00 | 53 | 1014.7 |
| 20260902235606 | 25 | 281 | 1.6 | 6.4 | 0.00 | 0.00 | 0.00 | 53 | 1014.7 |
| 20260902235523 | 25 | 235 | 1.6 | 8.0 | 0.00 | 0.00 | 0.00 | 52 | 1014.7 |
| 20260902235500 | 25 | 239 | 1.6 | 6.4 | 0.00 | 0.00 | 0.00 | 53 | 1014.7 |
| 20260902235455 | 25 | 281 | 1.6 | 6.4 | 0.00 | 0.00 | 0.00 | 53 | 1014.7 |
| 20260902235324 | 25 | 239 | 1.6 | 6.4 | 0.00 | 0.00 | 0.00 | 53 | 1014.7 |
| 20260902235216 | 25 | 298 | 1.6 | 6.4 | 0.00 | 0.00 | 0.00 | 53 | 1014.7 |
| 20260902235117 | 25 | 233 | 1.6 | 6.4 | 0.00 | 0.00 | 0.00 | 53 | 1014.7 |
| 20260902235017 | 25 | 217 | 0.0 | 4.8 | 0.00 | 0.00 | 0.00 | 54 | 1014.8 |
| 20260902234916 | 25 | 259 | 0.0 | 4.8 | 0.00 | 0.00 | 0.00 | 53 | 1014.8 |
| 20260902234847 | 25 | 135 | 0.0 | 4.8 | 0.00 | 0.00 | 0.00 | 53 | 1014.8 |
| 20260902234842 | 26 | 276 | 1.6 | 9.7 | 0.00 | 0.00 | 0.00 | 53 | 1014.9 |
| 20260902234816 | 25 | 135 | 0.0 | 4.8 | 0.00 | 0.00 | 0.00 | 53 | 1014.8 |
| 20260902234731 | 25 | 167 | 0.0 | 4.8 | 0.00 | 0.00 | 0.00 | 53 | 1014.8 |
| 20260902234617 | 25 | 166 | 0.0 | 4.8 | 0.00 | 0.00 | 0.00 | 53 | 1014.9 |
| 20260902234516 | 25 | 277 | 1.6 | 8.0 | 0.00 | 0.00 | 0.00 | 52 | 1014.9 |
| 20260902234456 | 26 | 277 | 1.6 | 9.7 | 0.00 | 0.00 | 0.00 | 53 | 1014.9 |
| 20260902234316 | 26 | 280 | 1.6 | 16.1 | 0.00 | 0.00 | 0.00 | 53 | 1014.9 |
| 20260902234216 | 25 | 269 | 3.2 | 16.1 | 0.00 | 0.00 | 0.00 | 53 | 1014.9 |
| 20260902234113 | 25 | 222 | 4.8 | 16.1 | 0.00 | 0.00 | 0.00 | 54 | 1014.9 |
| 20260902234012 | 25 | 225 | 4.8 | 16.1 | 0.00 | 0.00 | 0.00 | 54 | 1014.8 |
| 20260902233913 | 25 | 225 | 4.8 | 16.1 | 0.00 | 0.00 | 0.00 | 54 | 1014.7 |
| 20260902233847 | 25 | 225 | 4.8 | 16.1 | 0.00 | 0.00 | 0.00 | 53 | 1014.7 |
| 20260902233813 | 25 | 225 | 4.8 | 16.1 | 0.00 | 0.00 | 0.00 | 53 | 1014.9 |
| 20260902233712 | 25 | 224 | 4.8 | 16.1 | 0.00 | 0.00 | 0.00 | 52 | 1014.9 |
| 20260902233614 | 25 | 222 | 4.8 | 16.1 | 0.00 | 0.00 | 0.00 | 52 | 1014.9 |
| 20260902233513 | 25 | 239 | 3.2 | 16.1 | 0.00 | 0.00 | 0.00 | 52 | 1014.9 |
| 20260902233412 | 25 | 208 | 3.2 | 16.1 | 0.00 | 0.00 | 0.00 | 52 | 1014.9 |
| 20260902233345 | 26 | 204 | 3.2 | 16.1 | 0.00 | 0.00 | 0.00 | 52 | 1014.9 |
| 20260902233312 | 26 | 219 | 1.6 | 14.5 | 0.00 | 0.00 | 0.00 | 52 | 1014.8 |
| 20260902233212 | 26 | 212 | 1.6 | 12.9 | 0.00 | 0.00 | 0.00 | 53 | 1014.8 |
| 20260902233125 | 25 | 260 | 1.6 | 6.4 | 0.00 | 0.00 | 0.00 | 53 | 1014.7 |
| 20260902233122 | 26 | 211 | 1.6 | 6.4 | 0.00 | 0.00 | 0.00 | 53 | 1014.8 |
| 20260902232913 | 25 | 300 | 1.6 | 9.7 | 0.00 | 0.00 | 0.00 | 53 | 1014.9 |
| 20260902232845 | 25 | 300 | 1.6 | 9.7 | 0.00 | 0.00 | 0.00 | 54 | 1014.9 |
| 20260902232812 | 25 | 242 | 1.6 | 9.7 | 0.00 | 0.00 | 0.00 | 54 | 1014.8 |
| 20260902232712 | 25 | 235 | 1.6 | 11.3 | 0.00 | 0.00 | 0.00 | 54 | 1014.9 |
| 20260902232615 | 25 | 215 | 1.6 | 11.3 | 0.00 | 0.00 | 0.00 | 53 | 1014.8 |
| 20260902232607 | 25 | 326 | 3.2 | 11.3 | 0.00 | 0.00 | 0.00 | 54 | 1014.9 |
| 20260902232600 | 25 | 326 | 3.2 | 11.3 | 0.00 | 0.00 | 0.00 | 53 | 1014.8 |
| 20260902232419 | 25 | 326 | 3.2 | 11.3 | 0.00 | 0.00 | 0.00 | 54 | 1014.8 |
| 20260902232313 | 25 | 326 | 3.2 | 11.3 | 0.00 | 0.00 | 0.00 | 54 | 1014.9 |
| 20260902232243 | 25 | 225 | 3.2 | 11.3 | 0.00 | 0.00 | 0.00 | 54 | 1014.9 |
| 20260902232124 | 25 | 253 | 3.2 | 11.3 | 0.00 | 0.00 | 0.00 | 53 | 1014.9 |
| 20260902232120 | 25 | 225 | 3.2 | 11.3 | 0.00 | 0.00 | 0.00 | 53 | 1014.9 |
| 20260902231910 | 25 | 231 | 1.6 | 11.3 | 0.00 | 0.00 | 0.00 | 54 | 1014.9 |
| 20260902231843 | 25 | 250 | 1.6 | 11.3 | 0.00 | 0.00 | 0.00 | 54 | 1014.9 |
| 20260902231809 | 25 | 248 | 1.6 | 11.3 | 0.00 | 0.00 | 0.00 | 53 | 1014.9 |
| 20260902231710 | 25 | 284 | 1.6 | 8.0 | 0.00 | 0.00 | 0.00 | 54 | 1014.9 |
| 20260902231611 | 25 | 256 | 1.6 | 8.0 | 0.00 | 0.00 | 0.00 | 53 | 1014.9 |
| 20260902231531 | 25 | 263 | 1.6 | 8.0 | 0.00 | 0.00 | 0.00 | 54 | 1014.9 |
| 20260902231411 | 25 | 214 | 1.6 | 6.4 | 0.00 | 0.00 | 0.00 | 54 | 1015.0 |
| 20260902231343 | 25 | 326 | 1.6 | 6.4 | 0.00 | 0.00 | 0.00 | 54 | 1015.0 |
| 20260902231310 | 25 | 328 | 1.6 | 6.4 | 0.00 | 0.00 | 0.00 | 54 | 1014.9 |
| 20260902231208 | 25 | 48 | 1.6 | 4.8 | 0.00 | 0.00 | 0.00 | 54 | 1014.9 |
| 20260902231108 | 25 | 358 | 1.6 | 4.8 | 0.00 | 0.00 | 0.00 | 54 | 1014.9 |
| 20260902231002 | 25 | 1 | 1.6 | 4.8 | 0.00 | 0.00 | 0.00 | 54 | 1014.9 |
| 20260902230842 | 25 | 1 | 1.6 | 6.4 | 0.00 | 0.00 | 0.00 | 53 | 1014.9 |
| 20260902230802 | 25 | 4 | 1.6 | 6.4 | 0.00 | 0.00 | 0.00 | 53 | 1015.0 |
| 20260902230702 | 25 | 231 | 1.6 | 6.4 | 0.00 | 0.00 | 0.00 | 54 | 1015.0 |
| 20260902230604 | 25 | 230 | 1.6 | 6.4 | 0.00 | 0.00 | 0.00 | 53 | 1015.0 |
| 20260902230500 | 25 | 318 | 1.6 | 6.4 | 0.00 | 0.00 | 0.00 | 53 | 1015.0 |
| 20260902230405 | 26 | 221 | 3.2 | 6.4 | 0.00 | 0.00 | 0.00 | 53 | 1015.0 |
| 20260902230354 | 26 | 221 | 3.2 | 9.7 | 0.00 | 0.00 | 0.00 | 53 | 1015.0 |
| 20260902230300 | 26 | 250 | 3.2 | 12.9 | 0.00 | 0.00 | 0.00 | 53 | 1015.1 |
| 20260902230247 | 26 | 241 | 3.2 | 12.9 | 0.00 | 0.00 | 0.00 | 53 | 1015.1 |
| 20260902230212 | 26 | 250 | 3.2 | 12.9 | 0.00 | 0.00 | 0.00 | 53 | 1015.1 |
| 20260902230001 | 26 | 263 | 3.2 | 12.9 | 0.00 | 0.00 | 0.00 | 53 | 1015.1 |
| 20260902225841 | 26 | 354 | 3.2 | 12.9 | 0.00 | 0.00 | 0.00 | 53 | 1015.1 |
| 20260902225756 | 26 | 354 | 3.2 | 12.9 | 0.00 | 0.00 | 0.00 | 52 | 1015.1 |
| 20260902225656 | 26 | 240 | 3.2 | 12.9 | 0.00 | 0.00 | 0.00 | 53 | 1015.1 |
| 20260902225609 | 26 | 233 | 3.2 | 12.9 | 0.00 | 0.00 | 0.00 | 52 | 1015.1 |
| 20260902225601 | 26 | 229 | 3.2 | 12.9 | 0.00 | 0.00 | 0.00 | 52 | 1015.1 |
| 20260902225458 | 26 | 222 | 4.8 | 12.9 | 0.00 | 0.00 | 0.00 | 52 | 1015.1 |
| 20260902225450 | 26 | 193 | 3.2 | 12.9 | 0.00 | 0.00 | 0.00 | 52 | 1015.1 |
| 20260902225254 | 26 | 240 | 3.2 | 11.3 | 0.00 | 0.00 | 0.00 | 53 | 1015.2 |
| 20260902225154 | 26 | 243 | 3.2 | 9.7 | 0.00 | 0.00 | 0.00 | 53 | 1015.1 |
| 20260902225054 | 26 | 243 | 3.2 | 9.7 | 0.00 | 0.00 | 0.00 | 54 | 1015.1 |
| 20260902224954 | 26 | 308 | 3.2 | 12.9 | 0.00 | 0.00 | 0.00 | 53 | 1015.1 |
| 20260902224840 | 26 | 238 | 3.2 | 14.5 | 0.00 | 0.00 | 0.00 | 53 | 1015.1 |
| 20260902224754 | 26 | 238 | 3.2 | 14.5 | 0.00 | 0.00 | 0.00 | 54 | 1015.2 |
| 20260902224655 | 26 | 259 | 3.2 | 14.5 | 0.00 | 0.00 | 0.00 | 53 | 1015.2 |
| 20260902224550 | 26 | 235 | 3.2 | 14.5 | 0.00 | 0.00 | 0.00 | 53 | 1015.2 |
| 20260902224450 | 25 | 232 | 3.2 | 14.5 | 0.00 | 0.00 | 0.00 | 54 | 1015.2 |
| 20260902224357 | 25 | 250 | 3.2 | 14.5 | 0.00 | 0.00 | 0.00 | 54 | 1015.2 |
| 20260902224250 | 25 | 250 | 4.8 | 14.5 | 0.00 | 0.00 | 0.00 | 54 | 1015.2 |
| 20260902224151 | 25 | 250 | 4.8 | 14.5 | 0.00 | 0.00 | 0.00 | 54 | 1015.2 |
| 20260902224049 | 25 | 259 | 4.8 | 14.5 | 0.00 | 0.00 | 0.00 | 53 | 1015.3 |
| 20260902223948 | 25 | 235 | 4.8 | 14.5 | 0.00 | 0.00 | 0.00 | 53 | 1015.2 |
| 20260902223848 | 25 | 160 | 3.2 | 12.9 | 0.00 | 0.00 | 0.00 | 54 | 1015.2 |
| 20260902223837 | 25 | 158 | 3.2 | 12.9 | 0.00 | 0.00 | 0.00 | 54 | 1015.2 |
| 20260902223749 | 25 | 187 | 3.2 | 12.9 | 0.00 | 0.00 | 0.00 | 54 | 1015.2 |
| 20260902223648 | 25 | 248 | 4.8 | 12.9 | 0.00 | 0.00 | 0.00 | 54 | 1015.3 |
| 20260902223548 | 25 | 236 | 4.8 | 12.9 | 0.00 | 0.00 | 0.00 | 55 | 1015.2 |
| 20260902223448 | 25 | 242 | 4.8 | 12.9 | 0.00 | 0.00 | 0.00 | 54 | 1015.3 |
| 20260902223347 | 25 | 241 | 4.8 | 12.9 | 0.00 | 0.00 | 0.00 | 54 | 1015.3 |
| 20260902223337 | 25 | 239 | 4.8 | 12.9 | 0.00 | 0.00 | 0.00 | 54 | 1015.3 |
| 20260902223243 | 25 | 134 | 4.8 | 12.9 | 0.00 | 0.00 | 0.00 | 53 | 1015.3 |
| 20260902223143 | 25 | 236 | 4.8 | 12.9 | 0.00 | 0.00 | 0.00 | 53 | 1015.3 |
| 20260902223055 | 25 | 283 | 4.8 | 12.9 | 0.00 | 0.00 | 0.00 | 53 | 1015.3 |
| 20260902223043 | 25 | 300 | 4.8 | 12.9 | 0.00 | 0.00 | 0.00 | 53 | 1015.3 |
| 20260902222956 | 25 | 256 | 4.8 | 12.9 | 0.00 | 0.00 | 0.00 | 53 | 1015.3 |
| 20260902222948 | 25 | 238 | 4.8 | 12.9 | 0.00 | 0.00 | 0.00 | 53 | 1015.3 |
| 20260902222742 | 25 | 235 | 4.8 | 12.9 | 0.00 | 0.00 | 0.00 | 53 | 1015.3 |
| 20260902222642 | 25 | 233 | 4.8 | 12.9 | 0.00 | 0.00 | 0.00 | 53 | 1015.2 |
| 20260902222542 | 25 | 284 | 4.8 | 12.9 | 0.00 | 0.00 | 0.00 | 53 | 1015.2 |
| 20260902222442 | 25 | 242 | 4.8 | 12.9 | 0.00 | 0.00 | 0.00 | 52 | 1015.3 |
| 20260902222347 | 25 | 212 | 4.8 | 12.9 | 0.00 | 0.00 | 0.00 | 53 | 1015.3 |
| 20260902222337 | 25 | 226 | 4.8 | 12.9 | 0.00 | 0.00 | 0.00 | 53 | 1015.3 |
| 20260902222242 | 25 | 253 | 4.8 | 17.7 | 0.00 | 0.00 | 0.00 | 52 | 1015.3 |
| 20260902222143 | 25 | 224 | 4.8 | 17.7 | 0.00 | 0.00 | 0.00 | 53 | 1015.3 |
| 20260902222042 | 25 | 249 | 4.8 | 17.7 | 0.00 | 0.00 | 0.00 | 53 | 1015.3 |
| 20260902221942 | 25 | 241 | 4.8 | 17.7 | 0.00 | 0.00 | 0.00 | 54 | 1015.3 |
| 20260902221837 | 25 | 208 | 4.8 | 17.7 | 0.00 | 0.00 | 0.00 | 54 | 1015.3 |
| 20260902221742 | 25 | 231 | 4.8 | 17.7 | 0.00 | 0.00 | 0.00 | 54 | 1015.3 |
| 20260902221642 | 25 | 269 | 6.4 | 17.7 | 0.00 | 0.00 | 0.00 | 54 | 1015.3 |
| 20260902221607 | 25 | 222 | 6.4 | 19.3 | 0.00 | 0.00 | 0.00 | 54 | 1015.3 |
| 20260902221540 | 25 | 212 | 6.4 | 19.3 | 0.00 | 0.00 | 0.00 | 54 | 1015.3 |
| 20260902221444 | 25 | 224 | 6.4 | 19.3 | 0.00 | 0.00 | 0.00 | 54 | 1015.4 |
| 20260902221354 | 25 | 222 | 6.4 | 19.3 | 0.00 | 0.00 | 0.00 | 54 | 1015.3 |
| 20260902221240 | 25 | 238 | 6.4 | 19.3 | 0.00 | 0.00 | 0.00 | 54 | 1015.4 |
| 20260902221141 | 25 | 246 | 6.4 | 19.3 | 0.00 | 0.00 | 0.00 | 53 | 1015.4 |
| 20260902221059 | 25 | 208 | 6.4 | 19.3 | 0.00 | 0.00 | 0.00 | 53 | 1015.4 |
| 20260902221039 | 25 | 233 | 8.0 | 19.3 | 0.00 | 0.00 | 0.00 | 54 | 1015.4 |
| 20260902220956 | 25 | 226 | 8.0 | 19.3 | 0.00 | 0.00 | 0.00 | 54 | 1015.4 |
| 20260902220946 | 25 | 208 | 6.4 | 19.3 | 0.00 | 0.00 | 0.00 | 53 | 1015.4 |
| 20260902220740 | 25 | 233 | 6.4 | 19.3 | 0.00 | 0.00 | 0.00 | 52 | 1015.4 |
| 20260902220640 | 25 | 240 | 4.8 | 19.3 | 0.00 | 0.00 | 0.00 | 52 | 1015.4 |
| 20260902220540 | 25 | 201 | 4.8 | 17.7 | 0.00 | 0.00 | 0.00 | 52 | 1015.4 |
| 20260902220508 | 25 | 240 | 3.2 | 16.1 | 0.00 | 0.00 | 0.00 | 52 | 1015.4 |
| 20260902220342 | 25 | 228 | 4.8 | 16.1 | 0.00 | 0.00 | 0.00 | 53 | 1015.4 |
| 20260902220248 | 25 | 260 | 3.2 | 16.1 | 0.00 | 0.00 | 0.00 | 52 | 1015.4 |
| 20260902220141 | 26 | 260 | 3.2 | 16.1 | 0.00 | 0.00 | 0.00 | 52 | 1015.4 |
| 20260902220040 | 26 | 238 | 3.2 | 16.1 | 0.00 | 0.00 | 0.00 | 53 | 1015.4 |
| 20260902215954 | 25 | 241 | 4.8 | 17.7 | 0.00 | 0.00 | 0.00 | 53 | 1015.4 |
| 20260902215950 | 26 | 238 | 4.8 | 17.7 | 0.00 | 0.00 | 0.00 | 53 | 1015.4 |
| 20260902215831 | 25 | 241 | 4.8 | 17.7 | 0.00 | 0.00 | 0.00 | 53 | 1015.4 |
| 20260902215809 | 25 | 217 | 4.8 | 17.7 | 0.00 | 0.00 | 0.00 | 53 | 1015.5 |
| 20260902215638 | 25 | 146 | 4.8 | 17.7 | 0.00 | 0.00 | 0.00 | 53 | 1015.5 |
| 20260902215538 | 25 | 274 | 6.4 | 17.7 | 0.00 | 0.00 | 0.00 | 53 | 1015.6 |
| 20260902215439 | 25 | 281 | 4.8 | 17.7 | 0.00 | 0.00 | 0.00 | 53 | 1015.6 |
| 20260902215342 | 25 | 236 | 4.8 | 17.7 | 0.00 | 0.00 | 0.00 | 52 | 1015.5 |
| 20260902215331 | 25 | 256 | 4.8 | 17.7 | 0.00 | 0.00 | 0.00 | 52 | 1015.5 |
| 20260902215238 | 25 | 232 | 4.8 | 17.7 | 0.00 | 0.00 | 0.00 | 53 | 1015.6 |
| 20260902215139 | 25 | 159 | 4.8 | 17.7 | 0.00 | 0.00 | 0.00 | 53 | 1015.6 |
| 20260902215038 | 25 | 245 | 3.2 | 16.1 | 0.00 | 0.00 | 0.00 | 53 | 1015.6 |
| 20260902214938 | 25 | 158 | 3.2 | 12.9 | 0.00 | 0.00 | 0.00 | 52 | 1015.6 |
| 20260902214842 | 25 | 216 | 3.2 | 12.9 | 0.00 | 0.00 | 0.00 | 52 | 1015.7 |
| 20260902214831 | 25 | 203 | 3.2 | 12.9 | 0.00 | 0.00 | 0.00 | 52 | 1015.7 |
| 20260902214739 | 25 | 274 | 4.8 | 14.5 | 0.00 | 0.00 | 0.00 | 52 | 1015.7 |
| 20260902214639 | 26 | 273 | 4.8 | 16.1 | 0.00 | 0.00 | 0.00 | 51 | 1015.7 |
| 20260902214539 | 25 | 228 | 6.4 | 16.1 | 0.00 | 0.00 | 0.00 | 53 | 1015.7 |
| 20260902214446 | 25 | 228 | 6.4 | 16.1 | 0.00 | 0.00 | 0.00 | 52 | 1015.7 |
| 20260902214336 | 25 | 284 | 8.0 | 16.1 | 0.00 | 0.00 | 0.00 | 53 | 1015.7 |
| 20260902214234 | 25 | 273 | 8.0 | 16.1 | 0.00 | 0.00 | 0.00 | 53 | 1015.8 |
| 20260902214134 | 25 | 184 | 8.0 | 16.1 | 0.00 | 0.00 | 0.00 | 53 | 1015.7 |
| 20260902214034 | 25 | 222 | 6.4 | 16.1 | 0.00 | 0.00 | 0.00 | 53 | 1015.7 |
| 20260902213934 | 25 | 256 | 6.4 | 16.1 | 0.00 | 0.00 | 0.00 | 52 | 1015.8 |
| 20260902213834 | 25 | 273 | 6.4 | 16.1 | 0.00 | 0.00 | 0.00 | 52 | 1015.7 |
| 20260902213732 | 25 | 219 | 4.8 | 16.1 | 0.00 | 0.00 | 0.00 | 52 | 1015.8 |
| 20260902213632 | 25 | 233 | 3.2 | 16.1 | 0.00 | 0.00 | 0.00 | 52 | 1015.7 |
| 20260902213554 | 25 | 231 | 4.8 | 12.9 | 0.00 | 0.00 | 0.00 | 55 | 1015.9 |
| 20260902213545 | 25 | 335 | 1.6 | 9.7 | 0.00 | 0.00 | 0.00 | 53 | 1015.7 |
| 20260902213540 | 25 | 225 | 3.2 | 16.1 | 0.00 | 0.00 | 0.00 | 52 | 1015.8 |
| 20260902213528 | 25 | 235 | 1.6 | 12.9 | 0.00 | 0.00 | 0.00 | 53 | 1015.8 |
| 20260902213413 | 25 | 335 | 1.6 | 9.7 | 0.00 | 0.00 | 0.00 | 53 | 1015.7 |
| 20260902213238 | 25 | 77 | 1.6 | 9.7 | 0.00 | 0.00 | 0.00 | 53 | 1015.9 |
| 20260902213233 | 25 | 335 | 1.6 | 11.3 | 0.00 | 0.00 | 0.00 | 53 | 1015.7 |
| 20260902213157 | 25 | 214 | 0.0 | 3.2 | 0.00 | 0.00 | 0.00 | 53 | 1015.9 |
| 20260902213153 | 25 | 321 | 1.6 | 11.3 | 0.00 | 0.00 | 0.00 | 54 | 1015.7 |
| 20260902213037 | 25 | 218 | 4.8 | 11.3 | 0.00 | 0.00 | 0.00 | 54 | 1015.8 |
| 20260902213033 | 25 | 321 | 3.2 | 11.3 | 0.00 | 0.00 | 0.00 | 54 | 1015.7 |
| 20260902213024 | 25 | 232 | 3.2 | 9.7 | 0.00 | 0.00 | 0.00 | 53 | 1015.8 |
| 20260902213020 | 25 | 314 | 3.2 | 9.7 | 0.00 | 0.00 | 0.00 | 53 | 1015.9 |
| 20260902213015 | 25 | 77 | 1.6 | 9.7 | 0.00 | 0.00 | 0.00 | 53 | 1015.9 |
| 20260902213005 | 25 | 321 | 3.2 | 11.3 | 0.00 | 0.00 | 0.00 | 54 | 1015.7 |
| 20260902212949 | 25 | 321 | 3.2 | 11.3 | 0.00 | 0.00 | 0.00 | 54 | 1015.8 |
| 20260902212820 | 25 | 264 | 4.8 | 14.5 | 0.00 | 0.00 | 0.00 | 54 | 1016.0 |
| 20260902212816 | 25 | 235 | 3.2 | 11.3 | 0.00 | 0.00 | 0.00 | 54 | 1015.8 |
| 20260902212703 | 25 | 204 | 3.2 | 11.3 | 0.00 | 0.00 | 0.00 | 53 | 1015.8 |
| 20260902212655 | 25 | 250 | 3.2 | 11.3 | 0.00 | 0.00 | 0.00 | 54 | 1015.8 |
| 20260902212643 | 25 | 226 | 3.2 | 11.3 | 0.00 | 0.00 | 0.00 | 53 | 1015.8 |
| 20260902212626 | 25 | 218 | 4.8 | 11.3 | 0.00 | 0.00 | 0.00 | 54 | 1015.8 |
| 20260902212617 | 25 | 266 | 3.2 | 11.3 | 0.00 | 0.00 | 0.00 | 53 | 1015.8 |
| 20260902212610 | 25 | 232 | 3.2 | 9.7 | 0.00 | 0.00 | 0.00 | 53 | 1015.8 |
| 20260902212547 | 25 | 314 | 3.2 | 9.7 | 0.00 | 0.00 | 0.00 | 53 | 1015.9 |
| 20260902212533 | 25 | 18 | 3.2 | 9.7 | 0.00 | 0.00 | 0.00 | 53 | 1015.8 |
| 20260902212519 | 25 | 136 | 3.2 | 9.7 | 0.00 | 0.00 | 0.00 | 52 | 1015.8 |
| 20260902212509 | 25 | 193 | 3.2 | 9.7 | 0.00 | 0.00 | 0.00 | 52 | 1015.9 |
| 20260902212500 | 25 | 256 | 3.2 | 9.7 | 0.00 | 0.00 | 0.00 | 53 | 1015.9 |
| 20260902212450 | 25 | 235 | 1.6 | 9.7 | 0.00 | 0.00 | 0.00 | 53 | 1015.9 |
| 20260902212439 | 25 | 246 | 1.6 | 9.7 | 0.00 | 0.00 | 0.00 | 53 | 1015.9 |
| 20260902212427 | 25 | 77 | 1.6 | 9.7 | 0.00 | 0.00 | 0.00 | 53 | 1015.9 |
| 20260902212405 | 25 | 293 | 1.6 | 9.7 | 0.00 | 0.00 | 0.00 | 53 | 1015.9 |
| 20260902212356 | 25 | 225 | 1.6 | 9.7 | 0.00 | 0.00 | 0.00 | 53 | 1015.9 |
| 20260902212348 | 25 | 173 | 1.6 | 8.0 | 0.00 | 0.00 | 0.00 | 53 | 1015.9 |
| 20260902212340 | 25 | 268 | 0.0 | 8.0 | 0.00 | 0.00 | 0.00 | 53 | 1015.9 |
| 20260902212331 | 25 | 224 | 0.0 | 3.2 | 0.00 | 0.00 | 0.00 | 53 | 1015.9 |
| 20260902211410 | 25 | 193 | 0.0 | 3.2 | 0.00 | 0.00 | 0.00 | 53 | 1015.9 |
| 20260902211402 | 25 | 193 | 1.6 | 11.3 | 0.00 | 0.00 | 0.00 | 53 | 1015.9 |
| 20260902211354 | 25 | 193 | 1.6 | 14.5 | 0.00 | 0.00 | 0.00 | 53 | 1015.9 |
| 20260902211341 | 25 | 193 | 1.6 | 14.5 | 0.00 | 0.00 | 0.00 | 53 | 1015.9 |
| 20260902211322 | 25 | 217 | 3.2 | 14.5 | 0.00 | 0.00 | 0.00 | 53 | 1015.9 |
| 20260902211316 | 25 | 217 | 3.2 | 14.5 | 0.00 | 0.00 | 0.00 | 54 | 1015.9 |
| 20260902211308 | 25 | 264 | 3.2 | 14.5 | 0.00 | 0.00 | 0.00 | 54 | 1015.9 |
| 20260902211259 | 25 | 264 | 3.2 | 14.5 | 0.00 | 0.00 | 0.00 | 54 | 1015.9 |
| 20260902211251 | 25 | 264 | 3.2 | 14.5 | 0.00 | 0.00 | 0.00 | 54 | 1015.9 |
| 20260902211242 | 25 | 264 | 4.8 | 14.5 | 0.00 | 0.00 | 0.00 | 54 | 1016.0 |
| 20260902211127 | 25 | 295 | 4.8 | 14.5 | 0.00 | 0.00 | 0.00 | 55 | 1016.0 |
| 20260902211118 | 25 | 308 | 4.8 | 14.5 | 0.00 | 0.00 | 0.00 | 55 | 1015.9 |
| 20260902211110 | 25 | 210 | 4.8 | 12.9 | 0.00 | 0.00 | 0.00 | 55 | 1015.9 |
| 20260902211058 | 25 | 145 | 4.8 | 12.9 | 0.00 | 0.00 | 0.00 | 56 | 1015.9 |
| 20260902211046 | 25 | 231 | 4.8 | 12.9 | 0.00 | 0.00 | 0.00 | 55 | 1015.9 |
| 20260902205228 | 24 | 243 | 4.8 | 12.9 | 0.00 | 0.00 | 0.00 | 54 | 1016.0 |
| 20260902205127 | 25 | 246 | 4.8 | 12.9 | 0.00 | 0.00 | 0.00 | 53 | 1015.9 |
| 20260902205029 | 25 | 212 | 4.8 | 12.9 | 0.00 | 0.00 | 0.00 | 52 | 1016.0 |
| 20260902204928 | 25 | 221 | 4.8 | 12.9 | 0.00 | 0.00 | 0.00 | 53 | 1016.0 |
| 20260902204831 | 25 | 250 | 4.8 | 12.9 | 0.00 | 0.00 | 0.00 | 51 | 1016.0 |
| 20260902204821 | 25 | 255 | 4.8 | 12.9 | 0.00 | 0.00 | 0.00 | 51 | 1016.0 |
| 20260902204728 | 25 | 211 | 3.2 | 11.3 | 0.00 | 0.00 | 0.00 | 51 | 1016.0 |
| 20260902204629 | 25 | 255 | 3.2 | 11.3 | 0.00 | 0.00 | 0.00 | 51 | 1016.0 |
| 20260902204528 | 25 | 223 | 3.2 | 9.7 | 0.00 | 0.00 | 0.00 | 52 | 1016.0 |
| 20260902204428 | 25 | 214 | 3.2 | 9.7 | 0.00 | 0.00 | 0.00 | 52 | 1016.0 |
| 20260902204332 | 25 | 236 | 3.2 | 9.7 | 0.00 | 0.00 | 0.00 | 52 | 1016.0 |
| 20260902204322 | 25 | 248 | 3.2 | 9.7 | 0.00 | 0.00 | 0.00 | 52 | 1016.0 |
| 20260902204228 | 25 | 205 | 3.2 | 9.7 | 0.00 | 0.00 | 0.00 | 52 | 1016.0 |
| 20260902204128 | 25 | 225 | 3.2 | 9.7 | 0.00 | 0.00 | 0.00 | 52 | 1016.0 |
| 20260902204112 | 25 | 248 | 3.2 | 9.7 | 0.00 | 0.00 | 0.00 | 52 | 1016.0 |
| 20260902203929 | 25 | 224 | 3.2 | 8.0 | 0.00 | 0.00 | 0.00 | 53 | 1016.0 |
| 20260902203821 | 25 | 235 | 3.2 | 9.7 | 0.00 | 0.00 | 0.00 | 53 | 1016.0 |
| 20260902203728 | 25 | 240 | 3.2 | 9.7 | 0.00 | 0.00 | 0.00 | 53 | 1016.1 |
| 20260902203629 | 25 | 100 | 4.8 | 9.7 | 0.00 | 0.00 | 0.00 | 52 | 1016.1 |
| 20260902203529 | 25 | 101 | 4.8 | 9.7 | 0.00 | 0.00 | 0.00 | 52 | 1016.1 |
| 20260902203424 | 25 | 141 | 4.8 | 9.7 | 0.00 | 0.00 | 0.00 | 52 | 1016.1 |
| 20260902203326 | 25 | 110 | 4.8 | 9.7 | 0.00 | 0.00 | 0.00 | 52 | 1016.1 |
| 20260902203225 | 25 | 113 | 4.8 | 9.7 | 0.00 | 0.00 | 0.00 | 52 | 1016.1 |
| 20260902203125 | 25 | 200 | 4.8 | 9.7 | 0.00 | 0.00 | 0.00 | 52 | 1016.2 |
| 20260902203024 | 25 | 225 | 4.8 | 9.7 | 0.00 | 0.00 | 0.00 | 52 | 1016.2 |
| 20260902202945 | 25 | 108 | 3.2 | 9.7 | 0.00 | 0.00 | 0.00 | 52 | 1016.2 |
| 20260902202940 | 25 | 214 | 3.2 | 9.7 | 0.00 | 0.00 | 0.00 | 52 | 1016.2 |
| 20260902202826 | 25 | 108 | 3.2 | 9.7 | 0.00 | 0.00 | 0.00 | 52 | 1016.2 |
| 20260902202724 | 25 | 210 | 3.2 | 9.7 | 0.00 | 0.00 | 0.00 | 51 | 1016.2 |
| 20260902202625 | 25 | 141 | 3.2 | 9.7 | 0.00 | 0.00 | 0.00 | 51 | 1016.3 |
| 20260902202529 | 26 | 219 | 1.6 | 9.7 | 0.00 | 0.00 | 0.00 | 51 | 1016.3 |
| 20260902202423 | 26 | 70 | 1.6 | 9.7 | 0.00 | 0.00 | 0.00 | 50 | 1016.3 |
| 20260902202325 | 26 | 103 | 1.6 | 4.8 | 0.00 | 0.00 | 0.00 | 51 | 1016.3 |
| 20260902202237 | 26 | 146 | 1.6 | 3.2 | 0.00 | 0.00 | 0.00 | 51 | 1016.3 |
| 20260902202233 | 26 | 201 | 1.6 | 3.2 | 0.00 | 0.00 | 0.00 | 51 | 1016.3 |
| 20260902202024 | 26 | 177 | 1.6 | 3.2 | 0.00 | 0.00 | 0.00 | 52 | 1016.3 |
| 20260902201925 | 26 | 309 | 1.6 | 3.2 | 0.00 | 0.00 | 0.00 | 52 | 1016.3 |
| 20260902201830 | 26 | 44 | 1.6 | 3.2 | 0.00 | 0.00 | 0.00 | 52 | 1016.3 |
| 20260902201725 | 26 | 335 | 1.6 | 3.2 | 0.00 | 0.00 | 0.00 | 53 | 1016.4 |
| 20260902201624 | 26 | 294 | 1.6 | 3.2 | 0.00 | 0.00 | 0.00 | 52 | 1016.3 |
| 20260902201526 | 26 | 294 | 1.6 | 3.2 | 0.00 | 0.00 | 0.00 | 52 | 1016.3 |
| 20260902201510 | 25 | 230 | 4.8 | 11.3 | 0.00 | 0.00 | 0.00 | 54 | 1016.5 |
| 20260902201506 | 26 | 294 | 1.6 | 6.4 | 0.00 | 0.00 | 0.00 | 52 | 1016.3 |
| 20260902201447 | 26 | 294 | 1.6 | 8.0 | 0.00 | 0.00 | 0.00 | 53 | 1016.4 |
| 20260902201442 | 26 | 291 | 1.6 | 8.0 | 0.00 | 0.00 | 0.00 | 52 | 1016.4 |
| 20260902201432 | 26 | 226 | 1.6 | 9.7 | 0.00 | 0.00 | 0.00 | 53 | 1016.4 |
| 20260902201424 | 26 | 153 | 3.2 | 9.7 | 0.00 | 0.00 | 0.00 | 53 | 1016.4 |
| 20260902201415 | 25 | 228 | 3.2 | 9.7 | 0.00 | 0.00 | 0.00 | 53 | 1016.5 |
| 20260902201353 | 25 | 217 | 3.2 | 9.7 | 0.00 | 0.00 | 0.00 | 53 | 1016.4 |
| 20260902200722 | 25 | 113 | 3.2 | 11.3 | 0.00 | 0.00 | 0.00 | 53 | 1016.5 |
| 20260902200656 | 25 | 141 | 4.8 | 11.3 | 0.00 | 0.00 | 0.00 | 54 | 1016.5 |
| 20260902200525 | 25 | 131 | 4.8 | 11.3 | 0.00 | 0.00 | 0.00 | 53 | 1016.5 |
| 20260902200439 | 25 | 242 | 4.8 | 11.3 | 0.00 | 0.00 | 0.00 | 54 | 1016.5 |
| 20260902200431 | 25 | 229 | 4.8 | 11.3 | 0.00 | 0.00 | 0.00 | 54 | 1016.5 |
| 20260902200221 | 25 | 212 | 4.8 | 11.3 | 0.00 | 0.00 | 0.00 | 55 | 1016.5 |
| 20260902200123 | 25 | 212 | 4.8 | 11.3 | 0.00 | 0.00 | 0.00 | 55 | 1016.5 |
| 20260902200054 | 24 | 193 | 3.2 | 11.3 | 0.00 | 0.00 | 0.00 | 55 | 1016.5 |
| 20260902195922 | 24 | 250 | 3.2 | 11.3 | 0.00 | 0.00 | 0.00 | 54 | 1016.5 |
| 20260902195829 | 24 | 130 | 3.2 | 11.3 | 0.00 | 0.00 | 0.00 | 54 | 1016.6 |
| 20260902195719 | 24 | 211 | 3.2 | 11.3 | 0.00 | 0.00 | 0.00 | 54 | 1016.6 |
| 20260902195621 | 24 | 219 | 3.2 | 14.5 | 0.00 | 0.00 | 0.00 | 54 | 1016.6 |
| 20260902195526 | 24 | 208 | 3.2 | 14.5 | 0.00 | 0.00 | 0.00 | 56 | 1016.6 |
| 20260902195420 | 24 | 333 | 3.2 | 14.5 | 0.00 | 0.00 | 0.00 | 56 | 1016.5 |
| 20260902195325 | 24 | 310 | 4.8 | 14.5 | 0.00 | 0.00 | 0.00 | 55 | 1016.6 |
| 20260902195220 | 24 | 356 | 4.8 | 14.5 | 0.00 | 0.00 | 0.00 | 56 | 1016.5 |
| 20260902195121 | 24 | 284 | 4.8 | 14.5 | 0.00 | 0.00 | 0.00 | 56 | 1016.6 |
| 20260902195021 | 24 | 300 | 4.8 | 14.5 | 0.00 | 0.00 | 0.00 | 55 | 1016.7 |
| 20260902194952 | 25 | 235 | 3.2 | 14.5 | 0.00 | 0.00 | 0.00 | 55 | 1016.7 |
| 20260902194841 | 25 | 249 | 3.2 | 14.5 | 0.00 | 0.00 | 0.00 | 54 | 1016.7 |
| 20260902194830 | 25 | 257 | 3.2 | 14.5 | 0.00 | 0.00 | 0.00 | 54 | 1016.7 |
| 20260902194620 | 25 | 233 | 3.2 | 11.3 | 0.00 | 0.00 | 0.00 | 54 | 1016.7 |
| 20260902194525 | 25 | 198 | 3.2 | 9.7 | 0.00 | 0.00 | 0.00 | 53 | 1016.7 |
| 20260902194417 | 25 | 230 | 3.2 | 9.7 | 0.00 | 0.00 | 0.00 | 53 | 1016.7 |
| 20260902194322 | 25 | 215 | 3.2 | 9.7 | 0.00 | 0.00 | 0.00 | 53 | 1016.7 |
| 20260902194316 | 25 | 215 | 3.2 | 9.7 | 0.00 | 0.00 | 0.00 | 53 | 1016.8 |
| 20260902194215 | 25 | 146 | 4.8 | 16.1 | 0.00 | 0.00 | 0.00 | 55 | 1016.7 |
| 20260902194117 | 25 | 235 | 4.8 | 16.1 | 0.00 | 0.00 | 0.00 | 54 | 1016.7 |
| 20260902194016 | 25 | 231 | 4.8 | 16.1 | 0.00 | 0.00 | 0.00 | 54 | 1016.8 |
| 20260902193916 | 25 | 205 | 4.8 | 16.1 | 0.00 | 0.00 | 0.00 | 54 | 1016.8 |
| 20260902193822 | 25 | 243 | 4.8 | 16.1 | 0.00 | 0.00 | 0.00 | 54 | 1016.8 |
| 20260902193817 | 25 | 229 | 4.8 | 16.1 | 0.00 | 0.00 | 0.00 | 54 | 1016.8 |
| 20260902193716 | 25 | 146 | 4.8 | 16.1 | 0.00 | 0.00 | 0.00 | 54 | 1016.7 |
| 20260902193616 | 25 | 216 | 3.2 | 16.1 | 0.00 | 0.00 | 0.00 | 54 | 1016.8 |
| 20260902193520 | 25 | 214 | 3.2 | 16.1 | 0.00 | 0.00 | 0.00 | 54 | 1016.7 |
| 20260902193415 | 25 | 183 | 3.2 | 16.1 | 0.00 | 0.00 | 0.00 | 53 | 1016.8 |
| 20260902193323 | 25 | 183 | 3.2 | 16.1 | 0.00 | 0.00 | 0.00 | 53 | 1016.8 |
| 20260902193317 | 25 | 218 | 3.2 | 16.1 | 0.00 | 0.00 | 0.00 | 53 | 1016.8 |
| 20260902193217 | 25 | 217 | 1.6 | 12.9 | 0.00 | 0.00 | 0.00 | 54 | 1016.8 |
| 20260902193117 | 25 | 234 | 3.2 | 12.9 | 0.00 | 0.00 | 0.00 | 55 | 1016.8 |
| 20260902193016 | 25 | 232 | 1.6 | 12.9 | 0.00 | 0.00 | 0.00 | 55 | 1016.8 |
| 20260902192914 | 25 | 273 | 1.6 | 12.9 | 0.00 | 0.00 | 0.00 | 55 | 1016.8 |
| 20260902192821 | 25 | 256 | 1.6 | 12.9 | 0.00 | 0.00 | 0.00 | 55 | 1016.8 |
| 20260902192815 | 25 | 256 | 1.6 | 12.9 | 0.00 | 0.00 | 0.00 | 55 | 1016.9 |
| 20260902192715 | 25 | 256 | 1.6 | 12.9 | 0.00 | 0.00 | 0.00 | 55 | 1017.0 |
| 20260902192615 | 25 | 256 | 1.6 | 12.9 | 0.00 | 0.00 | 0.00 | 54 | 1017.0 |
| 20260902192546 | 25 | 274 | 3.2 | 12.9 | 0.00 | 0.00 | 0.00 | 53 | 1016.9 |
| 20260902192519 | 25 | 239 | 3.2 | 12.9 | 0.00 | 0.00 | 0.00 | 54 | 1017.0 |
| 20260902192431 | 25 | 225 | 3.2 | 12.9 | 0.00 | 0.00 | 0.00 | 55 | 1016.9 |
| 20260902192315 | 25 | 281 | 3.2 | 12.9 | 0.00 | 0.00 | 0.00 | 53 | 1017.0 |
| 20260902192214 | 25 | 242 | 3.2 | 9.7 | 0.00 | 0.00 | 0.00 | 54 | 1017.0 |
| 20260902192115 | 25 | 278 | 3.2 | 8.0 | 0.00 | 0.00 | 0.00 | 55 | 1017.0 |
| 20260902192014 | 25 | 297 | 3.2 | 12.9 | 0.00 | 0.00 | 0.00 | 55 | 1017.0 |
| 20260902191914 | 25 | 296 | 3.2 | 12.9 | 0.00 | 0.00 | 0.00 | 55 | 1017.0 |
| 20260902191814 | 24 | 296 | 3.2 | 12.9 | 0.00 | 0.00 | 0.00 | 55 | 1017.0 |
| 20260902191714 | 24 | 191 | 3.2 | 12.9 | 0.00 | 0.00 | 0.00 | 56 | 1017.0 |
| 20260902191617 | 24 | 243 | 3.2 | 12.9 | 0.00 | 0.00 | 0.00 | 56 | 1017.0 |
| 20260902191541 | 23 | 146 | 3.2 | 12.9 | 0.00 | 0.00 | 0.00 | 56 | 1017.1 |
| 20260902191518 | 24 | 266 | 3.2 | 12.9 | 0.00 | 0.00 | 0.00 | 56 | 1017.1 |
| 20260902191414 | 23 | 138 | 3.2 | 12.9 | 0.00 | 0.00 | 0.00 | 56 | 1017.1 |
| 20260902191318 | 23 | 146 | 3.2 | 12.9 | 0.00 | 0.00 | 0.00 | 56 | 1017.1 |
| 20260902191310 | 23 | 138 | 3.2 | 12.9 | 0.00 | 0.00 | 0.00 | 56 | 1017.1 |
| 20260902191214 | 23 | 206 | 4.8 | 16.1 | 0.00 | 0.00 | 0.00 | 56 | 1017.1 |
| 20260902191111 | 23 | 179 | 4.8 | 16.1 | 0.00 | 0.00 | 0.00 | 56 | 1017.2 |
| 20260902191010 | 23 | 165 | 3.2 | 16.1 | 0.00 | 0.00 | 0.00 | 56 | 1017.2 |
| 20260902190910 | 23 | 223 | 3.2 | 16.1 | 0.00 | 0.00 | 0.00 | 57 | 1017.2 |
| 20260902190848 | 24 | 231 | 3.2 | 16.1 | 0.00 | 0.00 | 0.00 | 55 | 1017.2 |
| 20260902190810 | 23 | 246 | 3.2 | 16.1 | 0.00 | 0.00 | 0.00 | 57 | 1017.2 |
| 20260902190743 | 23 | 231 | 3.2 | 16.1 | 0.00 | 0.00 | 0.00 | 56 | 1017.2 |
| 20260902190738 | 23 | 246 | 3.2 | 16.1 | 0.00 | 0.00 | 0.00 | 57 | 1017.2 |
| 20260902190625 | 23 | 218 | 3.2 | 16.1 | 0.00 | 0.00 | 0.00 | 57 | 1017.2 |
| 20260902190410 | 23 | 238 | 3.2 | 16.1 | 0.00 | 0.00 | 0.00 | 57 | 1017.2 |
| 20260902190311 | 24 | 218 | 3.2 | 16.1 | 0.00 | 0.00 | 0.00 | 55 | 1017.2 |
| 20260902190301 | 24 | 221 | 3.2 | 11.3 | 0.00 | 0.00 | 0.00 | 56 | 1017.2 |
| 20260902190210 | 24 | 250 | 3.2 | 12.9 | 0.00 | 0.00 | 0.00 | 55 | 1017.1 |
| 20260902190111 | 24 | 229 | 3.2 | 11.3 | 0.00 | 0.00 | 0.00 | 56 | 1017.2 |
| 20260902190041 | 24 | 221 | 3.2 | 11.3 | 0.00 | 0.00 | 0.00 | 56 | 1017.2 |
| 20260902190010 | 24 | 231 | 3.2 | 11.3 | 0.00 | 0.00 | 0.00 | 57 | 1017.1 |
| 20260902185927 | 24 | 117 | 3.2 | 11.3 | 0.00 | 0.00 | 0.00 | 56 | 1017.2 |
| 20260902185810 | 24 | 221 | 3.2 | 11.3 | 0.00 | 0.00 | 0.00 | 55 | 1017.2 |
| 20260902185711 | 24 | 233 | 3.2 | 11.3 | 0.00 | 0.00 | 0.00 | 56 | 1017.2 |
| 20260902185611 | 24 | 235 | 3.2 | 11.3 | 0.00 | 0.00 | 0.00 | 55 | 1017.2 |
| 20260902185511 | 24 | 218 | 3.2 | 11.3 | 0.00 | 0.00 | 0.00 | 55 | 1017.1 |
| 20260902185404 | 24 | 141 | 3.2 | 11.3 | 0.00 | 0.00 | 0.00 | 56 | 1017.1 |
| 20260902185314 | 24 | 143 | 3.2 | 11.3 | 0.00 | 0.00 | 0.00 | 56 | 1017.1 |
| 20260902185307 | 24 | 145 | 3.2 | 11.3 | 0.00 | 0.00 | 0.00 | 56 | 1017.1 |
| 20260902185205 | 24 | 132 | 1.6 | 11.3 | 0.00 | 0.00 | 0.00 | 55 | 1017.2 |
| 20260902185105 | 24 | 137 | 1.6 | 11.3 | 0.00 | 0.00 | 0.00 | 55 | 1017.2 |
| 20260902185004 | 24 | 99 | 1.6 | 8.0 | 0.00 | 0.00 | 0.00 | 56 | 1017.2 |
| 20260902184904 | 24 | 117 | 1.6 | 6.4 | 0.00 | 0.00 | 0.00 | 57 | 1017.2 |
| 20260902184846 | 24 | 11 | 1.6 | 6.4 | 0.00 | 0.00 | 0.00 | 57 | 1017.1 |
| 20260902184804 | 24 | 11 | 1.6 | 8.0 | 0.00 | 0.00 | 0.00 | 57 | 1017.1 |
| 20260902184704 | 23 | 12 | 1.6 | 8.0 | 0.00 | 0.00 | 0.00 | 58 | 1017.2 |
| 20260902184605 | 23 | 117 | 1.6 | 8.0 | 0.00 | 0.00 | 0.00 | 58 | 1017.2 |
| 20260902184505 | 23 | 59 | 3.2 | 8.0 | 0.00 | 0.00 | 0.00 | 57 | 1017.2 |
| 20260902184405 | 23 | 187 | 3.2 | 9.7 | 0.00 | 0.00 | 0.00 | 57 | 1017.2 |
| 20260902184311 | 23 | 236 | 3.2 | 11.3 | 0.00 | 0.00 | 0.00 | 58 | 1017.2 |
| 20260902184308 | 23 | 236 | 3.2 | 11.3 | 0.00 | 0.00 | 0.00 | 58 | 1017.2 |
| 20260902184200 | 23 | 295 | 3.2 | 11.3 | 0.00 | 0.00 | 0.00 | 58 | 1017.2 |
| 20260902184102 | 23 | 255 | 4.8 | 12.9 | 0.00 | 0.00 | 0.00 | 59 | 1017.2 |
| 20260902184031 | 22 | 197 | 4.8 | 12.9 | 0.00 | 0.00 | 0.00 | 59 | 1017.3 |
| 20260902184000 | 23 | 255 | 4.8 | 12.9 | 0.00 | 0.00 | 0.00 | 60 | 1017.2 |
| 20260902183922 | 23 | 231 | 6.4 | 12.9 | 0.00 | 0.00 | 0.00 | 60 | 1017.2 |
| 20260902183912 | 22 | 239 | 6.4 | 12.9 | 0.00 | 0.00 | 0.00 | 60 | 1017.2 |
| 20260902183800 | 22 | 210 | 6.4 | 12.9 | 0.00 | 0.00 | 0.00 | 60 | 1017.2 |
| 20260902183743 | 22 | 156 | 6.4 | 12.9 | 0.00 | 0.00 | 0.00 | 60 | 1017.3 |
| 20260902183739 | 22 | 190 | 6.4 | 12.9 | 0.00 | 0.00 | 0.00 | 60 | 1017.3 |
| 20260902183628 | 22 | 156 | 6.4 | 12.9 | 0.00 | 0.00 | 0.00 | 60 | 1017.3 |
| 20260902183500 | 22 | 198 | 4.8 | 12.9 | 0.00 | 0.00 | 0.00 | 59 | 1017.3 |
| 20260902183422 | 22 | 225 | 4.8 | 12.9 | 0.00 | 0.00 | 0.00 | 59 | 1017.3 |
| 20260902183301 | 22 | 219 | 4.8 | 12.9 | 0.00 | 0.00 | 0.00 | 59 | 1017.3 |
| 20260902183201 | 22 | 212 | 4.8 | 12.9 | 0.00 | 0.00 | 0.00 | 59 | 1017.3 |
| 20260902183101 | 22 | 186 | 4.8 | 11.3 | 0.00 | 0.00 | 0.00 | 59 | 1017.3 |
| 20260902183030 | 22 | 186 | 4.8 | 9.7 | 0.00 | 0.00 | 0.00 | 60 | 1017.2 |
| 20260902183000 | 22 | 139 | 4.8 | 11.3 | 0.00 | 0.00 | 0.00 | 59 | 1017.3 |
| 20260902182922 | 22 | 132 | 4.8 | 11.3 | 0.00 | 0.00 | 0.00 | 60 | 1017.3 |
| 20260902182800 | 22 | 210 | 4.8 | 9.7 | 0.00 | 0.00 | 0.00 | 60 | 1017.2 |
| 20260902182702 | 22 | 200 | 4.8 | 9.7 | 0.00 | 0.00 | 0.00 | 60 | 1017.3 |
| 20260902182601 | 22 | 143 | 4.8 | 9.7 | 0.00 | 0.00 | 0.00 | 60 | 1017.3 |
| 20260902182522 | 22 | 197 | 4.8 | 9.7 | 0.00 | 0.00 | 0.00 | 59 | 1017.3 |
| 20260902182509 | 22 | 225 | 4.8 | 9.7 | 0.00 | 0.00 | 0.00 | 60 | 1017.3 |
| 20260902182312 | 22 | 208 | 4.8 | 11.3 | 0.00 | 0.00 | 0.00 | 60 | 1017.3 |
| 20260902182258 | 22 | 226 | 4.8 | 11.3 | 0.00 | 0.00 | 0.00 | 60 | 1017.3 |
| 20260902182158 | 22 | 185 | 4.8 | 11.3 | 0.00 | 0.00 | 0.00 | 59 | 1017.3 |
| 20260902182059 | 22 | 162 | 4.8 | 11.3 | 0.00 | 0.00 | 0.00 | 60 | 1017.2 |
| 20260902181958 | 22 | 124 | 4.8 | 11.3 | 0.00 | 0.00 | 0.00 | 60 | 1017.3 |
| 20260902181858 | 22 | 191 | 4.8 | 11.3 | 0.00 | 0.00 | 0.00 | 60 | 1017.3 |
| 20260902181811 | 22 | 190 | 4.8 | 11.3 | 0.00 | 0.00 | 0.00 | 60 | 1017.3 |
| 20260902181758 | 22 | 197 | 4.8 | 11.3 | 0.00 | 0.00 | 0.00 | 59 | 1017.3 |
| 20260902181658 | 22 | 148 | 3.2 | 11.3 | 0.00 | 0.00 | 0.00 | 60 | 1017.2 |
| 20260902181558 | 22 | 131 | 4.8 | 11.3 | 0.00 | 0.00 | 0.00 | 60 | 1017.2 |
| 20260902181536 | 22 | 207 | 4.8 | 11.3 | 0.00 | 0.00 | 0.00 | 60 | 1017.2 |
| 20260902181458 | 22 | 101 | 4.8 | 11.3 | 0.00 | 0.00 | 0.00 | 60 | 1017.2 |
| 20260902181421 | 22 | 136 | 4.8 | 11.3 | 0.00 | 0.00 | 0.00 | 60 | 1017.2 |
| 20260902181258 | 22 | 195 | 3.2 | 11.3 | 0.00 | 0.00 | 0.00 | 60 | 1017.2 |
| 20260902181158 | 22 | 201 | 3.2 | 11.3 | 0.00 | 0.00 | 0.00 | 60 | 1017.2 |
| 20260902181100 | 22 | 250 | 3.2 | 11.3 | 0.00 | 0.00 | 0.00 | 60 | 1017.2 |
| 20260902180958 | 22 | 229 | 3.2 | 11.3 | 0.00 | 0.00 | 0.00 | 60 | 1017.2 |
| 20260902180858 | 22 | 207 | 3.2 | 11.3 | 0.00 | 0.00 | 0.00 | 60 | 1017.2 |
| 20260902180811 | 22 | 135 | 3.2 | 11.3 | 0.00 | 0.00 | 0.00 | 60 | 1017.1 |
| 20260902180758 | 22 | 139 | 1.6 | 11.3 | 0.00 | 0.00 | 0.00 | 60 | 1017.1 |
| 20260902180658 | 22 | 160 | 1.6 | 11.3 | 0.00 | 0.00 | 0.00 | 60 | 1017.2 |
| 20260902180559 | 22 | 200 | 1.6 | 8.0 | 0.00 | 0.00 | 0.00 | 60 | 1017.2 |
| 20260902180540 | 22 | 191 | 1.6 | 6.4 | 0.00 | 0.00 | 0.00 | 61 | 1017.2 |
| 20260902180458 | 22 | 138 | 1.6 | 8.0 | 0.00 | 0.00 | 0.00 | 61 | 1017.2 |
| 20260902180424 | 22 | 166 | 1.6 | 6.4 | 0.00 | 0.00 | 0.00 | 62 | 1017.1 |
| 20260902180258 | 22 | 192 | 1.6 | 6.4 | 0.00 | 0.00 | 0.00 | 61 | 1017.2 |
| 20260902180158 | 22 | 191 | 1.6 | 6.4 | 0.00 | 0.00 | 0.00 | 61 | 1017.2 |
| 20260902180059 | 22 | 183 | 1.6 | 6.4 | 0.00 | 0.00 | 0.00 | 61 | 1017.2 |
| 20260902175958 | 22 | 183 | 1.6 | 6.4 | 0.00 | 0.00 | 0.00 | 62 | 1017.2 |
| 20260902175856 | 22 | 208 | 1.6 | 6.4 | 0.00 | 0.00 | 0.00 | 63 | 1017.2 |
| 20260902175812 | 22 | 163 | 1.6 | 6.4 | 0.00 | 0.00 | 0.00 | 62 | 1017.1 |
| 20260902175756 | 22 | 163 | 3.2 | 8.0 | 0.00 | 0.00 | 0.00 | 62 | 1017.1 |
| 20260902175657 | 22 | 163 | 3.2 | 11.3 | 0.00 | 0.00 | 0.00 | 62 | 1017.1 |
| 20260902175556 | 22 | 143 | 3.2 | 11.3 | 0.00 | 0.00 | 0.00 | 62 | 1017.1 |
| 20260902175457 | 22 | 134 | 3.2 | 11.3 | 0.00 | 0.00 | 0.00 | 62 | 1017.2 |
| 20260902175356 | 22 | 243 | 3.2 | 11.3 | 0.00 | 0.00 | 0.00 | 62 | 1017.2 |
| 20260902175311 | 22 | 232 | 3.2 | 11.3 | 0.00 | 0.00 | 0.00 | 62 | 1017.2 |
| 20260902175254 | 22 | 233 | 3.2 | 11.3 | 0.00 | 0.00 | 0.00 | 62 | 1017.2 |
| 20260902175148 | 22 | 260 | 3.2 | 11.3 | 0.00 | 0.00 | 0.00 | 62 | 1017.1 |
| 20260902175049 | 22 | 217 | 3.2 | 11.3 | 0.00 | 0.00 | 0.00 | 62 | 1017.2 |
| 20260902174949 | 22 | 219 | 3.2 | 11.3 | 0.00 | 0.00 | 0.00 | 61 | 1017.1 |
| 20260902174848 | 22 | 239 | 3.2 | 11.3 | 0.00 | 0.00 | 0.00 | 62 | 1017.2 |
| 20260902174811 | 22 | 238 | 3.2 | 11.3 | 0.00 | 0.00 | 0.00 | 62 | 1017.2 |
| 20260902174748 | 22 | 235 | 1.6 | 9.7 | 0.00 | 0.00 | 0.00 | 62 | 1017.2 |
| 20260902174649 | 22 | 228 | 1.6 | 9.7 | 0.00 | 0.00 | 0.00 | 62 | 1017.2 |
| 20260902174549 | 22 | 200 | 1.6 | 9.7 | 0.00 | 0.00 | 0.00 | 62 | 1017.2 |
| 20260902174531 | 21 | 224 | 1.6 | 9.7 | 0.00 | 0.00 | 0.00 | 62 | 1017.3 |
| 20260902174448 | 21 | 223 | 1.6 | 9.7 | 0.00 | 0.00 | 0.00 | 62 | 1017.2 |
| 20260902174432 | 21 | 210 | 1.6 | 9.7 | 0.00 | 0.00 | 0.00 | 62 | 1017.3 |
| 20260902174248 | 21 | 216 | 1.6 | 9.7 | 0.00 | 0.00 | 0.00 | 63 | 1017.3 |
| 20260902174148 | 21 | 222 | 1.6 | 9.7 | 0.00 | 0.00 | 0.00 | 63 | 1017.2 |
| 20260902174048 | 21 | 221 | 1.6 | 9.7 | 0.00 | 0.00 | 0.00 | 63 | 1017.2 |
| 20260902174038 | 21 | 221 | 3.2 | 9.7 | 0.00 | 0.00 | 0.00 | 63 | 1017.3 |
| 20260902174001 | 21 | 221 | 3.2 | 9.7 | 0.00 | 0.00 | 0.00 | 63 | 1017.3 |
| 20260902173922 | 21 | 221 | 3.2 | 9.7 | 0.00 | 0.00 | 0.00 | 63 | 1017.3 |
| 20260902173748 | 21 | 232 | 3.2 | 9.7 | 0.00 | 0.00 | 0.00 | 62 | 1017.3 |
| 20260902173648 | 21 | 232 | 3.2 | 9.7 | 0.00 | 0.00 | 0.00 | 62 | 1017.3 |
| 20260902173548 | 21 | 226 | 3.2 | 12.9 | 0.00 | 0.00 | 0.00 | 63 | 1017.2 |
| 20260902173448 | 21 | 238 | 3.2 | 12.9 | 0.00 | 0.00 | 0.00 | 62 | 1017.3 |
| 20260902173348 | 21 | 245 | 3.2 | 12.9 | 0.00 | 0.00 | 0.00 | 63 | 1017.2 |
| 20260902173311 | 21 | 259 | 3.2 | 12.9 | 0.00 | 0.00 | 0.00 | 63 | 1017.2 |
| 20260902173242 | 21 | 243 | 3.2 | 12.9 | 0.00 | 0.00 | 0.00 | 63 | 1017.2 |
| 20260902173143 | 21 | 260 | 3.2 | 12.9 | 0.00 | 0.00 | 0.00 | 63 | 1017.2 |
| 20260902173042 | 21 | 239 | 3.2 | 12.9 | 0.00 | 0.00 | 0.00 | 63 | 1017.2 |
| 20260902172942 | 21 | 188 | 3.2 | 12.9 | 0.00 | 0.00 | 0.00 | 63 | 1017.2 |
| 20260902172842 | 21 | 219 | 3.2 | 12.9 | 0.00 | 0.00 | 0.00 | 64 | 1017.1 |
| 20260902172812 | 21 | 242 | 3.2 | 12.9 | 0.00 | 0.00 | 0.00 | 63 | 1017.2 |
| 20260902172742 | 21 | 242 | 3.2 | 12.9 | 0.00 | 0.00 | 0.00 | 63 | 1017.2 |
| 20260902172643 | 21 | 225 | 3.2 | 12.9 | 0.00 | 0.00 | 0.00 | 63 | 1017.2 |
| 20260902172543 | 21 | 242 | 1.6 | 9.7 | 0.00 | 0.00 | 0.00 | 63 | 1017.2 |
| 20260902172535 | 21 | 129 | 3.2 | 9.7 | 0.00 | 0.00 | 0.00 | 64 | 1017.2 |
| 20260902172442 | 21 | 231 | 3.2 | 9.7 | 0.00 | 0.00 | 0.00 | 63 | 1017.2 |
| 20260902172421 | 21 | 143 | 3.2 | 9.7 | 0.00 | 0.00 | 0.00 | 63 | 1017.2 |
| 20260902172242 | 21 | 135 | 3.2 | 9.7 | 0.00 | 0.00 | 0.00 | 64 | 1017.2 |
| 20260902172143 | 21 | 243 | 3.2 | 9.7 | 0.00 | 0.00 | 0.00 | 64 | 1017.2 |
| 20260902172042 | 21 | 230 | 3.2 | 9.7 | 0.00 | 0.00 | 0.00 | 64 | 1017.2 |
| 20260902171942 | 21 | 192 | 3.2 | 9.7 | 0.00 | 0.00 | 0.00 | 64 | 1017.2 |
| 20260902171842 | 21 | 136 | 3.2 | 9.7 | 0.00 | 0.00 | 0.00 | 64 | 1017.2 |
| 20260902171811 | 21 | 143 | 1.6 | 9.7 | 0.00 | 0.00 | 0.00 | 64 | 1017.2 |
| 20260902171742 | 21 | 155 | 1.6 | 9.7 | 0.00 | 0.00 | 0.00 | 65 | 1017.2 |
| 20260902171643 | 21 | 186 | 3.2 | 8.0 | 0.00 | 0.00 | 0.00 | 65 | 1017.2 |
| 20260902171554 | 21 | 186 | 3.2 | 8.0 | 0.00 | 0.00 | 0.00 | 65 | 1017.2 |
| 20260902171441 | 21 | 210 | 3.2 | 8.0 | 0.00 | 0.00 | 0.00 | 64 | 1017.2 |
| 20260902171340 | 21 | 214 | 3.2 | 8.0 | 0.00 | 0.00 | 0.00 | 64 | 1017.2 |
| 20260902171305 | 21 | 218 | 1.6 | 8.0 | 0.00 | 0.00 | 0.00 | 64 | 1017.1 |
| 20260902171240 | 21 | 144 | 1.6 | 8.0 | 0.00 | 0.00 | 0.00 | 65 | 1017.1 |
| 20260902171140 | 21 | 179 | 3.2 | 9.7 | 0.00 | 0.00 | 0.00 | 65 | 1017.2 |
| 20260902171040 | 21 | 239 | 3.2 | 9.7 | 0.00 | 0.00 | 0.00 | 65 | 1017.2 |
| 20260902170941 | 21 | 228 | 3.2 | 12.9 | 0.00 | 0.00 | 0.00 | 66 | 1017.1 |
| 20260902170840 | 21 | 221 | 3.2 | 12.9 | 0.00 | 0.00 | 0.00 | 65 | 1017.2 |
| 20260902170805 | 21 | 217 | 3.2 | 12.9 | 0.00 | 0.00 | 0.00 | 65 | 1017.2 |
| 20260902170740 | 21 | 225 | 3.2 | 12.9 | 0.00 | 0.00 | 0.00 | 65 | 1017.2 |
| 20260902170639 | 21 | 228 | 3.2 | 12.9 | 0.00 | 0.00 | 0.00 | 66 | 1017.1 |
| 20260902170538 | 21 | 267 | 3.2 | 12.9 | 0.00 | 0.00 | 0.00 | 66 | 1017.1 |
| 20260902170438 | 21 | 243 | 3.2 | 12.9 | 0.00 | 0.00 | 0.00 | 65 | 1017.1 |
| 20260902170339 | 21 | 242 | 3.2 | 12.9 | 0.00 | 0.00 | 0.00 | 65 | 1017.1 |
| 20260902170303 | 21 | 231 | 3.2 | 12.9 | 0.00 | 0.00 | 0.00 | 65 | 1017.1 |
| 20260902170236 | 21 | 231 | 3.2 | 12.9 | 0.00 | 0.00 | 0.00 | 64 | 1017.1 |
| 20260902170136 | 21 | 246 | 3.2 | 12.9 | 0.00 | 0.00 | 0.00 | 65 | 1017.1 |
| 20260902170036 | 21 | 186 | 1.6 | 12.9 | 0.00 | 0.00 | 0.00 | 65 | 1017.1 |
| 20260902165936 | 21 | 131 | 1.6 | 8.0 | 0.00 | 0.00 | 0.00 | 66 | 1017.0 |
| 20260902165846 | 18 | 103 | 3.2 | 6.4 | 0.00 | 0.00 | 0.00 | 73 | 1016.9 |
| 20260902165836 | 21 | 143 | 1.6 | 8.0 | 0.00 | 0.00 | 0.00 | 66 | 1017.1 |
| 20260902165802 | 21 | 183 | 1.6 | 8.0 | 0.00 | 0.00 | 0.00 | 67 | 1017.0 |
| 20260902165736 | 21 | 132 | 1.6 | 8.0 | 0.00 | 0.00 | 0.00 | 67 | 1017.0 |
| 20260902165657 | 20 | 218 | 3.2 | 8.0 | 0.00 | 0.00 | 0.00 | 70 | 1017.0 |
| 20260902165651 | 19 | 143 | 3.2 | 8.0 | 0.00 | 0.00 | 0.00 | 72 | 1016.9 |
| 20260902165647 | 19 | 107 | 3.2 | 8.0 | 0.00 | 0.00 | 0.00 | 72 | 1016.9 |
| 20260902165640 | 18 | 121 | 3.2 | 8.0 | 0.00 | 0.00 | 0.00 | 72 | 1016.9 |
| 20260902165637 | 18 | 101 | 3.2 | 8.0 | 0.00 | 0.00 | 0.00 | 73 | 1016.9 |
| 20260902165632 | 20 | 127 | 3.2 | 8.0 | 0.00 | 0.00 | 0.00 | 67 | 1017.0 |
| 20260902165617 | 20 | 129 | 3.2 | 8.0 | 0.00 | 0.00 | 0.00 | 67 | 1017.0 |
| 20260902165605 | 20 | 144 | 3.2 | 8.0 | 0.00 | 0.00 | 0.00 | 67 | 1017.0 |
| 20260902165556 | 20 | 146 | 3.2 | 8.0 | 0.00 | 0.00 | 0.00 | 67 | 1017.0 |
| 20260902165540 | 20 | 146 | 3.2 | 8.0 | 0.00 | 0.00 | 0.00 | 67 | 1017.1 |
| 20260902165535 | 20 | 131 | 3.2 | 8.0 | 0.00 | 0.00 | 0.00 | 68 | 1017.1 |
| 20260902165526 | 20 | 214 | 3.2 | 8.0 | 0.00 | 0.00 | 0.00 | 68 | 1017.1 |
| 20260902165518 | 20 | 133 | 3.2 | 8.0 | 0.00 | 0.00 | 0.00 | 68 | 1017.1 |
| 20260902165510 | 20 | 129 | 3.2 | 8.0 | 0.00 | 0.00 | 0.00 | 68 | 1017.0 |
| 20260902165501 | 20 | 106 | 3.2 | 8.0 | 0.00 | 0.00 | 0.00 | 69 | 1017.1 |
| 20260902165345 | 20 | 155 | 3.2 | 8.0 | 0.00 | 0.00 | 0.00 | 70 | 1017.0 |
| 20260902165337 | 20 | 145 | 3.2 | 8.0 | 0.00 | 0.00 | 0.00 | 71 | 1017.0 |
| 20260902165328 | 19 | 161 | 3.2 | 8.0 | 0.00 | 0.00 | 0.00 | 70 | 1017.0 |
| 20260902165308 | 20 | 70 | 3.2 | 8.0 | 0.00 | 0.00 | 0.00 | 69 | 1017.0 |
| 20260902165256 | 20 | 101 | 3.2 | 8.0 | 0.00 | 0.00 | 0.00 | 69 | 1017.0 |
| 20260902165245 | 20 | 107 | 1.6 | 8.0 | 0.00 | 0.00 | 0.00 | 70 | 1017.0 |
| 20260902165240 | 20 | 103 | 1.6 | 8.0 | 0.00 | 0.00 | 0.00 | 70 | 1017.0 |
| 20260902165231 | 20 | 113 | 1.6 | 8.0 | 0.00 | 0.00 | 0.00 | 70 | 1016.9 |
| 20260902165223 | 19 | 88 | 1.6 | 8.0 | 0.00 | 0.00 | 0.00 | 71 | 1016.9 |
| 20260902165214 | 19 | 129 | 1.6 | 4.8 | 0.00 | 0.00 | 0.00 | 71 | 1016.9 |
| 20260902165205 | 19 | 231 | 1.6 | 6.4 | 0.00 | 0.00 | 0.00 | 71 | 1016.9 |
| 20260902165155 | 19 | 181 | 3.2 | 8.0 | 0.00 | 0.00 | 0.00 | 71 | 1016.9 |
| 20260902165149 | 19 | 225 | 3.2 | 8.0 | 0.00 | 0.00 | 0.00 | 71 | 1016.9 |
| 20260902164002 | 19 | 107 | 3.2 | 8.0 | 0.00 | 0.00 | 0.00 | 72 | 1016.9 |
| 20260902163936 | 19 | 96 | 3.2 | 8.0 | 0.00 | 0.00 | 0.00 | 72 | 1016.9 |
| 20260902163927 | 19 | 121 | 3.2 | 8.0 | 0.00 | 0.00 | 0.00 | 72 | 1016.9 |
| 20260902163702 | 18 | 131 | 3.2 | 8.0 | 0.00 | 0.00 | 0.00 | 72 | 1016.9 |
| 20260902163653 | 18 | 150 | 3.2 | 8.0 | 0.00 | 0.00 | 0.00 | 73 | 1016.9 |
| 20260902163645 | 18 | 173 | 3.2 | 8.0 | 0.00 | 0.00 | 0.00 | 73 | 1016.9 |
| 20260902163636 | 18 | 96 | 3.2 | 8.0 | 0.00 | 0.00 | 0.00 | 73 | 1016.9 |
| 20260902162723 | 18 | 107 | 3.2 | 6.4 | 0.00 | 0.00 | 0.00 | 73 | 1016.9 |
| 20260902162635 | 18 | 120 | 1.6 | 6.4 | 0.00 | 0.00 | 0.00 | 73 | 1017.0 |
| 20260902162631 | 18 | 104 | 1.6 | 6.4 | 0.00 | 0.00 | 0.00 | 73 | 1017.0 |
| 20260902162423 | 18 | 103 | 1.6 | 6.4 | 0.00 | 0.00 | 0.00 | 74 | 1017.0 |
| 20260902162323 | 18 | 114 | 3.2 | 6.4 | 0.00 | 0.00 | 0.00 | 74 | 1016.9 |
| 20260902162306 | 18 | 114 | 3.2 | 6.4 | 0.00 | 0.00 | 0.00 | 74 | 1017.0 |
| 20260902162224 | 18 | 134 | 3.2 | 6.4 | 0.00 | 0.00 | 0.00 | 74 | 1017.0 |
| 20260902162120 | 18 | 143 | 3.2 | 6.4 | 0.00 | 0.00 | 0.00 | 74 | 1017.0 |
| 20260902162021 | 18 | 136 | 3.2 | 6.4 | 0.00 | 0.00 | 0.00 | 74 | 1017.0 |
| 20260902161919 | 18 | 103 | 1.6 | 6.4 | 0.00 | 0.00 | 0.00 | 75 | 1017.0 |
| 20260902161820 | 18 | 108 | 1.6 | 6.4 | 0.00 | 0.00 | 0.00 | 75 | 1017.1 |
| 20260902161802 | 18 | 226 | 1.6 | 6.4 | 0.00 | 0.00 | 0.00 | 75 | 1017.1 |
| 20260902161721 | 18 | 153 | 1.6 | 6.4 | 0.00 | 0.00 | 0.00 | 75 | 1017.1 |
| 20260902161619 | 18 | 110 | 1.6 | 6.4 | 0.00 | 0.00 | 0.00 | 75 | 1017.1 |
| 20260902161518 | 18 | 96 | 1.6 | 6.4 | 0.00 | 0.00 | 0.00 | 75 | 1017.1 |
| 20260902161419 | 18 | 96 | 1.6 | 6.4 | 0.00 | 0.00 | 0.00 | 75 | 1017.0 |
| 20260902161318 | 18 | 110 | 1.6 | 6.4 | 0.00 | 0.00 | 0.00 | 76 | 1017.1 |
| 20260902161301 | 18 | 110 | 1.6 | 6.4 | 0.00 | 0.00 | 0.00 | 76 | 1017.1 |
| 20260902161219 | 18 | 82 | 1.6 | 6.4 | 0.00 | 0.00 | 0.00 | 76 | 1017.1 |
| 20260902161203 | 17 | 91 | 1.6 | 4.8 | 0.00 | 0.00 | 0.00 | 76 | 1017.1 |
| 20260902161158 | 17 | 113 | 1.6 | 6.4 | 0.00 | 0.00 | 0.00 | 76 | 1017.1 |
| 20260902161152 | 17 | 129 | 1.6 | 4.8 | 0.00 | 0.00 | 0.00 | 77 | 1017.2 |
| 20260902161147 | 17 | 135 | 0.0 | 3.2 | 0.00 | 0.00 | 0.00 | 78 | 1017.2 |
| 20260902161143 | 18 | 96 | 1.6 | 6.4 | 0.00 | 0.00 | 0.00 | 76 | 1017.1 |
| 20260902161134 | 18 | 113 | 1.6 | 6.4 | 0.00 | 0.00 | 0.00 | 76 | 1017.1 |
| 20260902161125 | 17 | 113 | 1.6 | 6.4 | 0.00 | 0.00 | 0.00 | 76 | 1017.0 |
| 20260902161043 | 17 | 113 | 1.6 | 6.4 | 0.00 | 0.00 | 0.00 | 76 | 1017.1 |
| 20260902161037 | 17 | 88 | 1.6 | 6.4 | 0.00 | 0.00 | 0.00 | 76 | 1017.1 |
| 20260902161028 | 17 | 162 | 1.6 | 6.4 | 0.00 | 0.00 | 0.00 | 76 | 1017.1 |
| 20260902161019 | 17 | 130 | 1.6 | 6.4 | 0.00 | 0.00 | 0.00 | 76 | 1017.1 |
| 20260902161005 | 17 | 146 | 1.6 | 4.8 | 0.00 | 0.00 | 0.00 | 76 | 1017.1 |
| 20260902160956 | 17 | 91 | 1.6 | 4.8 | 0.00 | 0.00 | 0.00 | 76 | 1017.1 |
| 20260902160947 | 17 | 91 | 1.6 | 4.8 | 0.00 | 0.00 | 0.00 | 76 | 1017.1 |
| 20260902160938 | 17 | 91 | 1.6 | 4.8 | 0.00 | 0.00 | 0.00 | 77 | 1017.2 |
| 20260902160929 | 17 | 97 | 1.6 | 4.8 | 0.00 | 0.00 | 0.00 | 76 | 1017.1 |
| 20260902160920 | 17 | 105 | 1.6 | 4.8 | 0.00 | 0.00 | 0.00 | 77 | 1017.1 |
| 20260902160911 | 17 | 150 | 1.6 | 4.8 | 0.00 | 0.00 | 0.00 | 77 | 1017.1 |
| 20260902160902 | 17 | 155 | 1.6 | 4.8 | 0.00 | 0.00 | 0.00 | 77 | 1017.2 |
| 20260902160746 | 17 | 132 | 1.6 | 4.8 | 0.00 | 0.00 | 0.00 | 77 | 1017.2 |
| 20260902160737 | 17 | 127 | 0.0 | 4.8 | 0.00 | 0.00 | 0.00 | 77 | 1017.2 |
| 20260902160728 | 17 | 106 | 0.0 | 4.8 | 0.00 | 0.00 | 0.00 | 77 | 1017.2 |
| 20260902160715 | 17 | 129 | 0.0 | 4.8 | 0.00 | 0.00 | 0.00 | 78 | 1017.2 |
| 20260902160706 | 17 | 113 | 0.0 | 3.2 | 0.00 | 0.00 | 0.00 | 78 | 1017.2 |
| 20260902160655 | 17 | 113 | 0.0 | 3.2 | 0.00 | 0.00 | 0.00 | 78 | 1017.2 |
| 20260902160648 | 17 | 115 | 0.0 | 3.2 | 0.00 | 0.00 | 0.00 | 78 | 1017.2 |
| 20260902155008 | 17 | 135 | 0.0 | 3.2 | 0.00 | 0.00 | 0.00 | 78 | 1017.2 |
| 20260902154908 | 17 | 141 | 0.0 | 3.2 | 0.00 | 0.00 | 0.00 | 79 | 1017.2 |
| 20260902154810 | 17 | 141 | 0.0 | 3.2 | 0.00 | 0.00 | 0.00 | 79 | 1017.2 |
| 20260902154759 | 17 | 141 | 0.0 | 3.2 | 0.00 | 0.00 | 0.00 | 79 | 1017.2 |
| 20260902154706 | 17 | 141 | 0.0 | 3.2 | 0.00 | 0.00 | 0.00 | 79 | 1017.2 |
| 20260902154607 | 17 | 139 | 0.0 | 3.2 | 0.00 | 0.00 | 0.00 | 79 | 1017.2 |
| 20260902154523 | 16 | 131 | 1.6 | 4.8 | 0.00 | 0.00 | 0.00 | 80 | 1017.2 |
| 20260902154507 | 16 | 141 | 0.0 | 3.2 | 0.00 | 0.00 | 0.00 | 79 | 1017.2 |
| 20260902154418 | 16 | 168 | 0.0 | 4.8 | 0.00 | 0.00 | 0.00 | 79 | 1017.2 |
| 20260902154408 | 16 | 131 | 1.6 | 4.8 | 0.00 | 0.00 | 0.00 | 80 | 1017.2 |
| 20260902154203 | 16 | 146 | 1.6 | 6.4 | 0.00 | 0.00 | 0.00 | 80 | 1017.2 |
| 20260902154114 | 16 | 108 | 1.6 | 6.4 | 0.00 | 0.00 | 0.00 | 80 | 1017.1 |
| 20260902154108 | 16 | 147 | 1.6 | 6.4 | 0.00 | 0.00 | 0.00 | 80 | 1017.1 |
| 20260902153900 | 16 | 107 | 1.6 | 6.4 | 0.00 | 0.00 | 0.00 | 81 | 1017.1 |
| 20260902153806 | 16 | 108 | 1.6 | 6.4 | 0.00 | 0.00 | 0.00 | 81 | 1017.1 |
| 20260902153800 | 16 | 107 | 1.6 | 6.4 | 0.00 | 0.00 | 0.00 | 81 | 1017.1 |
| 20260902153700 | 16 | 108 | 3.2 | 6.4 | 0.00 | 0.00 | 0.00 | 81 | 1017.0 |
| 20260902153601 | 16 | 108 | 3.2 | 6.4 | 0.00 | 0.00 | 0.00 | 81 | 1017.0 |
| 20260902153500 | 16 | 112 | 1.6 | 6.4 | 0.00 | 0.00 | 0.00 | 81 | 1017.0 |
| 20260902153403 | 16 | 106 | 1.6 | 6.4 | 0.00 | 0.00 | 0.00 | 81 | 1017.0 |
| 20260902153354 | 15 | 86 | 1.6 | 4.8 | 0.00 | 0.00 | 0.00 | 84 | 1017.0 |
| 20260902153348 | 15 | 115 | 1.6 | 6.4 | 0.00 | 0.00 | 0.00 | 83 | 1017.0 |
| 20260902153344 | 15 | 96 | 1.6 | 6.4 | 0.00 | 0.00 | 0.00 | 83 | 1016.9 |
| 20260902153338 | 16 | 120 | 1.6 | 6.4 | 0.00 | 0.00 | 0.00 | 81 | 1017.0 |
| 20260902153332 | 16 | 102 | 1.6 | 6.4 | 0.00 | 0.00 | 0.00 | 81 | 1017.0 |
| 20260902153324 | 16 | 117 | 1.6 | 6.4 | 0.00 | 0.00 | 0.00 | 81 | 1017.0 |
| 20260902153315 | 16 | 108 | 1.6 | 6.4 | 0.00 | 0.00 | 0.00 | 81 | 1017.0 |
| 20260902153307 | 16 | 115 | 1.6 | 6.4 | 0.00 | 0.00 | 0.00 | 82 | 1017.0 |
| 20260902153258 | 16 | 115 | 1.6 | 6.4 | 0.00 | 0.00 | 0.00 | 82 | 1017.0 |
| 20260902153248 | 16 | 101 | 1.6 | 4.8 | 0.00 | 0.00 | 0.00 | 82 | 1017.0 |
| 20260902153242 | 16 | 107 | 1.6 | 4.8 | 0.00 | 0.00 | 0.00 | 82 | 1017.0 |
| 20260902153234 | 16 | 110 | 1.6 | 3.2 | 0.00 | 0.00 | 0.00 | 82 | 1017.0 |
| 20260902153225 | 16 | 110 | 1.6 | 3.2 | 0.00 | 0.00 | 0.00 | 83 | 1017.0 |
| 20260902153204 | 15 | 110 | 1.6 | 3.2 | 0.00 | 0.00 | 0.00 | 83 | 1017.0 |
| 20260902153156 | 15 | 110 | 1.6 | 4.8 | 0.00 | 0.00 | 0.00 | 83 | 1017.0 |
| 20260902153140 | 15 | 110 | 1.6 | 4.8 | 0.00 | 0.00 | 0.00 | 83 | 1017.0 |
| 20260902153132 | 15 | 119 | 1.6 | 4.8 | 0.00 | 0.00 | 0.00 | 83 | 1017.0 |
| 20260902153123 | 15 | 118 | 3.2 | 4.8 | 0.00 | 0.00 | 0.00 | 83 | 1017.0 |
| 20260902153115 | 15 | 119 | 3.2 | 4.8 | 0.00 | 0.00 | 0.00 | 83 | 1017.0 |
| 20260902153106 | 15 | 118 | 3.2 | 6.4 | 0.00 | 0.00 | 0.00 | 83 | 1017.0 |
| 20260902152949 | 15 | 115 | 1.6 | 6.4 | 0.00 | 0.00 | 0.00 | 83 | 1017.0 |
| 20260902152832 | 15 | 122 | 1.6 | 6.4 | 0.00 | 0.00 | 0.00 | 83 | 1016.9 |
| 20260902152817 | 15 | 127 | 1.6 | 6.4 | 0.00 | 0.00 | 0.00 | 83 | 1016.9 |
| 20260902152809 | 15 | 115 | 1.6 | 6.4 | 0.00 | 0.00 | 0.00 | 83 | 1016.9 |
| 20260902152753 | 15 | 107 | 1.6 | 6.4 | 0.00 | 0.00 | 0.00 | 83 | 1016.9 |
| 20260902152745 | 15 | 125 | 1.6 | 6.4 | 0.00 | 0.00 | 0.00 | 83 | 1016.8 |
| 20260902151058 | 15 | 104 | 1.6 | 6.4 | 0.00 | 0.00 | 0.00 | 83 | 1016.9 |
| 20260902151022 | 15 | 88 | 1.6 | 4.8 | 0.00 | 0.00 | 0.00 | 84 | 1017.0 |
| 20260902151018 | 15 | 110 | 1.6 | 6.4 | 0.00 | 0.00 | 0.00 | 83 | 1016.9 |
| 20260902151010 | 15 | 113 | 1.6 | 4.8 | 0.00 | 0.00 | 0.00 | 83 | 1016.9 |
| 20260902150652 | 15 | 105 | 1.6 | 4.8 | 0.00 | 0.00 | 0.00 | 83 | 1016.9 |
| 20260902150553 | 15 | 104 | 1.6 | 4.8 | 0.00 | 0.00 | 0.00 | 84 | 1017.0 |
| 20260902150452 | 15 | 132 | 1.6 | 4.8 | 0.00 | 0.00 | 0.00 | 84 | 1016.9 |
| 20260902150356 | 15 | 106 | 0.0 | 3.2 | 0.00 | 0.00 | 0.00 | 84 | 1016.7 |
| 20260902150352 | 15 | 132 | 1.6 | 4.8 | 0.00 | 0.00 | 0.00 | 84 | 1016.9 |
| 20260902150257 | 15 | 105 | 1.6 | 4.8 | 0.00 | 0.00 | 0.00 | 84 | 1016.8 |
| 20260902150250 | 15 | 129 | 1.6 | 4.8 | 0.00 | 0.00 | 0.00 | 84 | 1016.8 |
| 20260902150231 | 15 | 120 | 1.6 | 4.8 | 0.00 | 0.00 | 0.00 | 84 | 1016.8 |
| 20260902150049 | 15 | 105 | 0.0 | 3.2 | 0.00 | 0.00 | 0.00 | 84 | 1016.8 |
| 20260902150036 | 13 | 84 | 0.0 | 3.2 | 0.00 | 0.00 | 0.00 | 87 | 1016.5 |
| 20260902150032 | 13 | 110 | 0.0 | 3.2 | 0.00 | 0.00 | 0.00 | 87 | 1016.4 |
| 20260902150026 | 14 | 110 | 3.2 | 6.4 | 0.00 | 0.00 | 0.00 | 85 | 1016.4 |
| 20260902150018 | 15 | 160 | 0.0 | 3.2 | 0.00 | 0.00 | 0.00 | 84 | 1016.8 |
| 20260902150009 | 15 | 110 | 0.0 | 3.2 | 0.00 | 0.00 | 0.00 | 84 | 1016.8 |
| 20260902150002 | 15 | 106 | 0.0 | 3.2 | 0.00 | 0.00 | 0.00 | 84 | 1016.7 |
| 20260902145848 | 15 | 102 | 0.0 | 3.2 | 0.00 | 0.00 | 0.00 | 84 | 1016.7 |
| 20260902145734 | 15 | 113 | 1.6 | 3.2 | 0.00 | 0.00 | 0.00 | 85 | 1016.8 |
| 20260902145729 | 15 | 113 | 1.6 | 4.8 | 0.00 | 0.00 | 0.00 | 85 | 1016.7 |
| 20260902145724 | 15 | 102 | 0.0 | 3.2 | 0.00 | 0.00 | 0.00 | 84 | 1016.8 |
| 20260902145603 | 15 | 113 | 1.6 | 4.8 | 0.00 | 0.00 | 0.00 | 85 | 1016.7 |
| 20260902145414 | 15 | 113 | 1.6 | 4.8 | 0.00 | 0.00 | 0.00 | 85 | 1016.7 |
| 20260902145250 | 15 | 110 | 1.6 | 4.8 | 0.00 | 0.00 | 0.00 | 85 | 1016.7 |
| 20260902145246 | 15 | 113 | 1.6 | 4.8 | 0.00 | 0.00 | 0.00 | 85 | 1016.7 |
| 20260902145238 | 15 | 113 | 1.6 | 4.8 | 0.00 | 0.00 | 0.00 | 85 | 1016.7 |
| 20260902145229 | 15 | 113 | 1.6 | 4.8 | 0.00 | 0.00 | 0.00 | 85 | 1016.7 |
| 20260902145221 | 15 | 100 | 1.6 | 4.8 | 0.00 | 0.00 | 0.00 | 85 | 1016.7 |
| 20260902145212 | 15 | 110 | 1.6 | 4.8 | 0.00 | 0.00 | 0.00 | 85 | 1016.7 |
| 20260902145202 | 15 | 110 | 1.6 | 4.8 | 0.00 | 0.00 | 0.00 | 85 | 1016.7 |
| 20260902145046 | 15 | 109 | 1.6 | 4.8 | 0.00 | 0.00 | 0.00 | 85 | 1016.7 |
| 20260902144617 | 14 | 108 | 0.0 | 3.2 | 0.00 | 0.00 | 0.00 | 86 | 1016.5 |
| 20260902144609 | 14 | 108 | 1.6 | 4.8 | 0.00 | 0.00 | 0.00 | 85 | 1016.7 |
| 20260902144449 | 14 | 102 | 1.6 | 3.2 | 0.00 | 0.00 | 0.00 | 85 | 1016.7 |
| 20260902144336 | 14 | 100 | 1.6 | 3.2 | 0.00 | 0.00 | 0.00 | 85 | 1016.7 |
| 20260902144327 | 14 | 110 | 3.2 | 6.4 | 0.00 | 0.00 | 0.00 | 86 | 1016.4 |
| 20260902144320 | 14 | 108 | 1.6 | 3.2 | 0.00 | 0.00 | 0.00 | 85 | 1016.7 |
| 20260902144314 | 14 | 107 | 1.6 | 3.2 | 0.00 | 0.00 | 0.00 | 85 | 1016.7 |
| 20260902144305 | 14 | 107 | 1.6 | 3.2 | 0.00 | 0.00 | 0.00 | 85 | 1016.7 |
| 20260902144257 | 14 | 107 | 0.0 | 3.2 | 0.00 | 0.00 | 0.00 | 85 | 1016.6 |
| 20260902144249 | 14 | 120 | 0.0 | 3.2 | 0.00 | 0.00 | 0.00 | 85 | 1016.6 |
| 20260902144240 | 14 | 120 | 0.0 | 3.2 | 0.00 | 0.00 | 0.00 | 85 | 1016.6 |
| 20260902143812 | 13 | 84 | 0.0 | 1.6 | 0.00 | 0.00 | 0.00 | 86 | 1016.5 |
| 20260902143759 | 14 | 120 | 0.0 | 3.2 | 0.00 | 0.00 | 0.00 | 85 | 1016.5 |
| 20260902143646 | 14 | 120 | 0.0 | 3.2 | 0.00 | 0.00 | 0.00 | 85 | 1016.6 |
| 20260902143637 | 14 | 120 | 0.0 | 3.2 | 0.00 | 0.00 | 0.00 | 85 | 1016.5 |
| 20260902143625 | 14 | 120 | 0.0 | 3.2 | 0.00 | 0.00 | 0.00 | 85 | 1016.5 |
| 20260902143616 | 14 | 129 | 0.0 | 3.2 | 0.00 | 0.00 | 0.00 | 85 | 1016.6 |
| 20260902143544 | 14 | 129 | 1.6 | 3.2 | 0.00 | 0.00 | 0.00 | 85 | 1016.5 |
| 20260902143536 | 14 | 129 | 1.6 | 4.8 | 0.00 | 0.00 | 0.00 | 85 | 1016.5 |
| 20260902143527 | 14 | 129 | 1.6 | 4.8 | 0.00 | 0.00 | 0.00 | 85 | 1016.5 |
| 20260902143519 | 14 | 129 | 1.6 | 6.4 | 0.00 | 0.00 | 0.00 | 85 | 1016.5 |
| 20260902143510 | 14 | 96 | 1.6 | 6.4 | 0.00 | 0.00 | 0.00 | 85 | 1016.5 |
| 20260902143454 | 14 | 96 | 3.2 | 6.4 | 0.00 | 0.00 | 0.00 | 86 | 1016.5 |
| 20260902143446 | 14 | 103 | 3.2 | 6.4 | 0.00 | 0.00 | 0.00 | 85 | 1016.5 |
| 20260902143437 | 14 | 102 | 3.2 | 6.4 | 0.00 | 0.00 | 0.00 | 85 | 1016.5 |
| 20260902143424 | 14 | 110 | 3.2 | 6.4 | 0.00 | 0.00 | 0.00 | 85 | 1016.4 |
| 20260902143416 | 14 | 109 | 3.2 | 6.4 | 0.00 | 0.00 | 0.00 | 85 | 1016.4 |
| 20260902143300 | 14 | 110 | 3.2 | 6.4 | 0.00 | 0.00 | 0.00 | 85 | 1016.4 |
| 20260902143251 | 14 | 108 | 3.2 | 6.4 | 0.00 | 0.00 | 0.00 | 85 | 1016.4 |
| 20260902143246 | 14 | 110 | 3.2 | 6.4 | 0.00 | 0.00 | 0.00 | 86 | 1016.4 |
| 20260902143154 | 14 | 105 | 3.2 | 4.8 | 0.00 | 0.00 | 0.00 | 86 | 1016.4 |
| 20260902143145 | 14 | 103 | 3.2 | 4.8 | 0.00 | 0.00 | 0.00 | 86 | 1016.4 |
| 20260902143135 | 14 | 112 | 1.6 | 4.8 | 0.00 | 0.00 | 0.00 | 86 | 1016.4 |
| 20260902143129 | 14 | 102 | 1.6 | 4.8 | 0.00 | 0.00 | 0.00 | 86 | 1016.4 |
| 20260902143121 | 14 | 103 | 1.6 | 4.8 | 0.00 | 0.00 | 0.00 | 86 | 1016.5 |
| 20260902143112 | 14 | 131 | 1.6 | 4.8 | 0.00 | 0.00 | 0.00 | 86 | 1016.5 |
| 20260902143050 | 14 | 101 | 1.6 | 4.8 | 0.00 | 0.00 | 0.00 | 86 | 1016.5 |
| 20260902143038 | 14 | 111 | 1.6 | 3.2 | 0.00 | 0.00 | 0.00 | 86 | 1016.5 |
| 20260902141435 | 13 | 115 | 0.0 | 3.2 | 0.00 | 0.00 | 0.00 | 86 | 1016.5 |
| 20260902141426 | 13 | 79 | 0.0 | 3.2 | 0.00 | 0.00 | 0.00 | 86 | 1016.5 |
| 20260902141418 | 13 | 81 | 0.0 | 3.2 | 0.00 | 0.00 | 0.00 | 86 | 1016.5 |
| 20260902141409 | 13 | 64 | 0.0 | 3.2 | 0.00 | 0.00 | 0.00 | 86 | 1016.6 |
| 20260902141401 | 13 | 84 | 0.0 | 1.6 | 0.00 | 0.00 | 0.00 | 86 | 1016.5 |
| 20260902141245 | 13 | 85 | 0.0 | 1.6 | 0.00 | 0.00 | 0.00 | 86 | 1016.5 |
| 20260902141237 | 13 | 85 | 0.0 | 3.2 | 0.00 | 0.00 | 0.00 | 86 | 1016.5 |
| 20260902141228 | 13 | 117 | 0.0 | 3.2 | 0.00 | 0.00 | 0.00 | 86 | 1016.5 |
| 20260902141216 | 13 | 117 | 0.0 | 3.2 | 0.00 | 0.00 | 0.00 | 86 | 1016.5 |
| 20260902141208 | 13 | 117 | 0.0 | 3.2 | 0.00 | 0.00 | 0.00 | 86 | 1016.5 |
| 20260902141158 | 13 | 117 | 0.0 | 3.2 | 0.00 | 0.00 | 0.00 | 86 | 1016.5 |
| 20260902141152 | 13 | 117 | 0.0 | 3.2 | 0.00 | 0.00 | 0.00 | 87 | 1016.5 |
| 20260902141143 | 13 | 119 | 0.0 | 3.2 | 0.00 | 0.00 | 0.00 | 87 | 1016.5 |
| 20260902141135 | 13 | 118 | 0.0 | 3.2 | 0.00 | 0.00 | 0.00 | 87 | 1016.5 |
| 20260902141126 | 13 | 89 | 0.0 | 3.2 | 0.00 | 0.00 | 0.00 | 87 | 1016.5 |
| 20260902141117 | 13 | 84 | 0.0 | 3.2 | 0.00 | 0.00 | 0.00 | 87 | 1016.5 |
| 20260902135724 | 13 | 83 | 0.0 | 3.2 | 0.00 | 0.00 | 0.00 | 87 | 1016.5 |
| 20260902135622 | 13 | 110 | 0.0 | 1.6 | 0.00 | 0.00 | 0.00 | 87 | 1016.5 |
| 20260902135614 | 13 | 110 | 0.0 | 1.6 | 0.00 | 0.00 | 0.00 | 87 | 1016.4 |
| 20260902135422 | 13 | 110 | 0.0 | 1.6 | 0.00 | 0.00 | 0.00 | 87 | 1016.4 |
| 20260902135358 | 13 | 110 | 0.0 | 1.6 | 0.00 | 0.00 | 0.00 | 87 | 1016.4 |
| 20260902135347 | 13 | 110 | 0.0 | 1.6 | 0.00 | 0.00 | 0.00 | 87 | 1016.4 |
| 20260902135220 | 13 | 110 | 0.0 | 1.6 | 0.00 | 0.00 | 0.00 | 87 | 1016.4 |
| 20260902135127 | 13 | 110 | 0.0 | 1.6 | 0.00 | 0.00 | 0.00 | 87 | 1016.4 |
| 20260902135014 | 13 | 110 | 0.0 | 1.6 | 0.00 | 0.00 | 0.00 | 87 | 1016.4 |
| 20260902134914 | 13 | 110 | 0.0 | 1.6 | 0.00 | 0.00 | 0.00 | 87 | 1016.5 |
| 20260902134814 | 13 | 110 | 0.0 | 3.2 | 0.00 | 0.00 | 0.00 | 87 | 1016.4 |
| 20260902134805 | 13 | 110 | 0.0 | 3.2 | 0.00 | 0.00 | 0.00 | 87 | 1016.4 |
| 20260902134714 | 13 | 110 | 0.0 | 3.2 | 0.00 | 0.00 | 0.00 | 87 | 1016.4 |
| 20260902134616 | 13 | 110 | 0.0 | 3.2 | 0.00 | 0.00 | 0.00 | 87 | 1016.4 |
| 20260902134514 | 13 | 110 | 0.0 | 3.2 | 0.00 | 0.00 | 0.00 | 87 | 1016.4 |
| 20260902134414 | 13 | 110 | 0.0 | 3.2 | 0.00 | 0.00 | 0.00 | 87 | 1016.4 |
| 20260902134314 | 13 | 110 | 0.0 | 3.2 | 0.00 | 0.00 | 0.00 | 87 | 1016.4 |
| 20260902134251 | 13 | 110 | 0.0 | 3.2 | 0.00 | 0.00 | 0.00 | 87 | 1016.4 |
| 20260902134214 | 13 | 110 | 0.0 | 3.2 | 0.00 | 0.00 | 0.00 | 87 | 1016.3 |
| 20260902134115 | 13 | 110 | 0.0 | 3.2 | 0.00 | 0.00 | 0.00 | 87 | 1016.3 |
| 20260902134014 | 13 | 110 | 0.0 | 3.2 | 0.00 | 0.00 | 0.00 | 87 | 1016.2 |
| 20260902133914 | 13 | 110 | 0.0 | 3.2 | 0.00 | 0.00 | 0.00 | 87 | 1016.2 |
| 20260902133807 | 13 | 110 | 0.0 | 1.6 | 0.00 | 0.00 | 0.00 | 87 | 1016.3 |
| 20260902133752 | 13 | 110 | 0.0 | 1.6 | 0.00 | 0.00 | 0.00 | 87 | 1016.3 |
| 20260902133709 | 13 | 110 | 0.0 | 1.6 | 0.00 | 0.00 | 0.00 | 87 | 1016.3 |
| 20260902133609 | 13 | 110 | 0.0 | 1.6 | 0.00 | 0.00 | 0.00 | 87 | 1016.3 |
| 20260902133508 | 13 | 110 | 0.0 | 1.6 | 0.00 | 0.00 | 0.00 | 87 | 1016.3 |
| 20260902133409 | 13 | 110 | 0.0 | 1.6 | 0.00 | 0.00 | 0.00 | 87 | 1016.2 |
| 20260902133308 | 13 | 110 | 0.0 | 1.6 | 0.00 | 0.00 | 0.00 | 87 | 1016.2 |
| 20260902133249 | 13 | 110 | 0.0 | 1.6 | 0.00 | 0.00 | 0.00 | 87 | 1016.2 |
| 20260902133208 | 13 | 110 | 0.0 | 1.6 | 0.00 | 0.00 | 0.00 | 87 | 1016.2 |
| 20260902133109 | 13 | 110 | 0.0 | 1.6 | 0.00 | 0.00 | 0.00 | 87 | 1016.2 |
| 20260902133009 | 13 | 110 | 0.0 | 1.6 | 0.00 | 0.00 | 0.00 | 87 | 1016.2 |
| 20260902132908 | 13 | 110 | 0.0 | 1.6 | 0.00 | 0.00 | 0.00 | 87 | 1016.2 |
| 20260902132808 | 13 | 110 | 0.0 | 1.6 | 0.00 | 0.00 | 0.00 | 87 | 1016.2 |
| 20260902132749 | 13 | 110 | 0.0 | 1.6 | 0.00 | 0.00 | 0.00 | 87 | 1016.2 |
| 20260902132709 | 13 | 110 | 0.0 | 1.6 | 0.00 | 0.00 | 0.00 | 87 | 1016.2 |
| 20260902132607 | 13 | 110 | 0.0 | 3.2 | 0.00 | 0.00 | 0.00 | 87 | 1016.1 |
| 20260902132506 | 13 | 110 | 0.0 | 3.2 | 0.00 | 0.00 | 0.00 | 87 | 1016.1 |
| 20260902132406 | 13 | 110 | 0.0 | 3.2 | 0.00 | 0.00 | 0.00 | 86 | 1016.1 |
| 20260902132250 | 13 | 110 | 0.0 | 3.2 | 0.00 | 0.00 | 0.00 | 86 | 1016.0 |
| 20260902132203 | 13 | 110 | 0.0 | 3.2 | 0.00 | 0.00 | 0.00 | 87 | 1016.0 |
| 20260902132058 | 13 | 110 | 0.0 | 3.2 | 0.00 | 0.00 | 0.00 | 87 | 1016.0 |
| 20260902131957 | 13 | 110 | 0.0 | 3.2 | 0.00 | 0.00 | 0.00 | 86 | 1016.0 |
| 20260902131856 | 13 | 110 | 0.0 | 3.2 | 0.00 | 0.00 | 0.00 | 86 | 1016.0 |
| 20260902131802 | 13 | 110 | 0.0 | 3.2 | 0.00 | 0.00 | 0.00 | 86 | 1016.0 |
| 20260902131657 | 13 | 105 | 0.0 | 3.2 | 0.00 | 0.00 | 0.00 | 86 | 1016.0 |
| 20260902131557 | 13 | 105 | 0.0 | 3.2 | 0.00 | 0.00 | 0.00 | 86 | 1016.0 |
| 20260902131456 | 13 | 114 | 0.0 | 3.2 | 0.00 | 0.00 | 0.00 | 86 | 1016.0 |
| 20260902131357 | 13 | 114 | 0.0 | 3.2 | 0.00 | 0.00 | 0.00 | 86 | 1015.9 |
| 20260902131300 | 13 | 114 | 0.0 | 3.2 | 0.00 | 0.00 | 0.00 | 86 | 1015.9 |
| 20260902131250 | 13 | 115 | 0.0 | 3.2 | 0.00 | 0.00 | 0.00 | 86 | 1015.9 |
| 20260902131156 | 13 | 114 | 0.0 | 1.6 | 0.00 | 0.00 | 0.00 | 86 | 1016.0 |
| 20260902131057 | 13 | 110 | 0.0 | 1.6 | 0.00 | 0.00 | 0.00 | 86 | 1015.9 |
| 20260902130956 | 13 | 110 | 0.0 | 1.6 | 0.00 | 0.00 | 0.00 | 86 | 1015.9 |
| 20260902130856 | 13 | 110 | 0.0 | 1.6 | 0.00 | 0.00 | 0.00 | 86 | 1015.9 |
| 20260902130750 | 13 | 79 | 0.0 | 1.6 | 0.00 | 0.00 | 0.00 | 86 | 1015.9 |
| 20260902130656 | 13 | 79 | 0.0 | 1.6 | 0.00 | 0.00 | 0.00 | 86 | 1016.0 |
| 20260902130558 | 13 | 75 | 0.0 | 1.6 | 0.00 | 0.00 | 0.00 | 86 | 1016.0 |
| 20260902130456 | 13 | 75 | 0.0 | 1.6 | 0.00 | 0.00 | 0.00 | 87 | 1016.0 |
| 20260902130356 | 13 | 75 | 0.0 | 1.6 | 0.00 | 0.00 | 0.00 | 87 | 1016.0 |
| 20260902130247 | 13 | 75 | 0.0 | 1.6 | 0.00 | 0.00 | 0.00 | 87 | 1016.0 |
| 20260902130232 | 13 | 94 | 0.0 | 1.6 | 0.00 | 0.00 | 0.00 | 87 | 1015.9 |
| 20260902130154 | 13 | 75 | 0.0 | 1.6 | 0.00 | 0.00 | 0.00 | 87 | 1016.0 |
| 20260902130115 | 13 | 75 | 0.0 | 1.6 | 0.00 | 0.00 | 0.00 | 87 | 1016.0 |
| 20260902125954 | 13 | 75 | 0.0 | 1.6 | 0.00 | 0.00 | 0.00 | 87 | 1015.9 |
| 20260902125906 | 13 | 93 | 0.0 | 1.6 | 0.00 | 0.00 | 0.00 | 87 | 1015.9 |
| 20260902125857 | 13 | 93 | 0.0 | 1.6 | 0.00 | 0.00 | 0.00 | 87 | 1015.9 |
| 20260902125654 | 13 | 93 | 0.0 | 1.6 | 0.00 | 0.00 | 0.00 | 87 | 1015.9 |
| 20260902125555 | 13 | 94 | 0.0 | 1.6 | 0.00 | 0.00 | 0.00 | 87 | 1015.9 |
| 20260902125454 | 13 | 94 | 0.0 | 1.6 | 0.00 | 0.00 | 0.00 | 87 | 1015.9 |
| 20260902125355 | 13 | 94 | 0.0 | 3.2 | 0.00 | 0.00 | 0.00 | 86 | 1015.9 |
| 20260902125254 | 13 | 93 | 1.6 | 3.2 | 0.00 | 0.00 | 0.00 | 86 | 1015.9 |